Time,TemperatureF,DewpointF,PressureIn,WindDirection,WindDirectionDegrees,WindSpeedMPH,WindSpeedGustMPH,Humidity,HourlyPrecipIn,Conditions,Clouds,dailyrainin,SoftwareType,DateUTC
2013-04-24 00:01:00,33.4,17.3,29.84,NW,325,0.0,0.0,51,0.00,,CLR,0.00,VWS V14.01,2013-04-24 07:01:00,
2013-04-24 00:06:00,33.3,17.1,29.84,NW,325,0.0,0.0,51,0.00,,CLR,0.00,VWS V14.01,2013-04-24 07:06:00,
2013-04-24 00:11:00,32.7,17.9,29.84,NW,325,2.7,2.7,54,0.00,,CLR,0.00,VWS V14.01,2013-04-24 07:11:00,
2013-04-24 00:16:00,32.5,17.3,29.84,NW,325,0.0,0.0,53,0.00,,CLR,0.00,VWS V14.01,2013-04-24 07:16:00,
2013-04-24 00:21:00,32.5,17.3,29.84,NW,325,0.0,0.0,53,0.00,,CLR,0.00,VWS V14.01,2013-04-24 07:21:00,
2013-04-24 00:26:00,32.4,17.1,29.84,NW,325,0.0,0.0,53,0.00,,CLR,0.00,VWS V14.01,2013-04-24 07:26:00,
2013-04-24 00:31:00,32.4,17.1,29.84,NW,325,0.0,0.0,53,0.00,,CLR,0.00,VWS V14.01,2013-04-24 07:31:00,
2013-04-24 00:36:00,32.5,17.8,29.84,NW,325,0.0,0.0,54,0.00,,CLR,0.00,VWS V14.01,2013-04-24 07:36:00,
2013-04-24 00:41:00,32.7,18.8,29.84,NW,325,0.0,0.0,56,0.00,,CLR,0.00,VWS V14.01,2013-04-24 07:41:00,
2013-04-24 00:46:00,32.5,18.2,29.84,NW,325,0.0,0.0,55,0.00,,CLR,0.00,VWS V14.01,2013-04-24 07:46:00,
2013-04-24 00:51:00,32.4,17.6,29.84,NW,325,0.0,0.0,54,0.00,,CLR,0.00,VWS V14.01,2013-04-24 07:51:00,
2013-04-24 00:56:00,32.2,17.4,29.84,NW,325,0.0,0.0,54,0.00,,CLR,0.00,VWS V14.01,2013-04-24 07:56:00,
2013-04-24 01:01:00,31.8,16.6,29.84,NW,325,0.0,0.0,53,0.00,,CLR,0.00,VWS V14.01,2013-04-24 08:01:00,
2013-04-24 01:06:00,31.8,17.1,29.84,NW,325,0.0,0.0,54,0.00,,CLR,0.00,VWS V14.01,2013-04-24 08:06:00,
2013-04-24 01:11:00,32.0,17.2,29.84,NW,325,0.0,0.0,54,0.00,,CLR,0.00,VWS V14.01,2013-04-24 08:11:00,
2013-04-24 01:16:00,32.0,17.7,29.84,NW,325,0.0,0.0,55,0.00,,CLR,0.00,VWS V14.01,2013-04-24 08:16:00,
2013-04-24 01:21:00,31.8,17.9,29.84,NW,325,0.0,0.0,56,0.00,,CLR,0.00,VWS V14.01,2013-04-24 08:21:00,
2013-04-24 01:26:00,31.8,17.9,29.84,NW,325,0.0,0.0,56,0.00,,CLR,0.00,VWS V14.01,2013-04-24 08:26:00,
2013-04-24 01:31:00,31.6,17.8,29.84,NW,325,0.0,0.0,56,0.00,,CLR,0.00,VWS V14.01,2013-04-24 08:31:00,
2013-04-24 01:36:00,31.1,16.8,29.84,NW,325,0.0,0.0,55,0.00,,CLR,0.00,VWS V14.01,2013-04-24 08:36:00,
2013-04-24 01:41:00,30.9,16.7,29.87,NW,325,0.0,0.0,55,0.00,,CLR,0.00,VWS V14.01,2013-04-24 08:41:00,
2013-04-24 01:46:00,30.7,16.5,29.87,NW,325,0.0,0.0,55,0.00,,CLR,0.00,VWS V14.01,2013-04-24 08:46:00,
2013-04-24 01:51:00,31.1,19.2,29.87,NW,325,0.0,0.0,61,0.00,,CLR,0.00,VWS V14.01,2013-04-24 08:51:00,
2013-04-24 01:56:00,31.1,18.9,29.84,NW,325,0.0,0.0,60,0.00,,CLR,0.00,VWS V14.01,2013-04-24 08:56:00,
2013-04-24 02:01:00,30.9,18.3,29.84,NW,325,0.0,0.0,59,0.00,,CLR,0.00,VWS V14.01,2013-04-24 09:01:00,
2013-04-24 02:06:00,30.7,18.1,29.84,NW,325,0.0,0.0,59,0.00,,CLR,0.00,VWS V14.01,2013-04-24 09:06:00,
2013-04-24 02:11:00,30.7,18.1,29.84,NW,325,0.0,0.0,59,0.00,,CLR,0.00,VWS V14.01,2013-04-24 09:11:00,
2013-04-24 02:16:00,30.9,18.3,29.84,NW,325,0.0,0.0,59,0.00,,CLR,0.00,VWS V14.01,2013-04-24 09:16:00,
2013-04-24 02:21:00,30.9,18.3,29.84,NW,325,0.0,0.0,59,0.00,,CLR,0.00,VWS V14.01,2013-04-24 09:21:00,
2013-04-24 02:26:00,30.4,17.8,29.84,NW,325,0.0,0.0,59,0.00,,CLR,0.00,VWS V14.01,2013-04-24 09:26:00,
2013-04-24 02:30:00,30.6,18.0,29.84,NW,325,0.0,0.0,59,0.00,,CLR,0.00,VWS V14.01,2013-04-24 09:30:00,
2013-04-24 02:35:00,30.4,17.8,29.84,NW,325,0.0,0.0,59,0.00,,CLR,0.00,VWS V14.01,2013-04-24 09:35:00,
2013-04-24 02:40:00,30.7,18.9,29.84,NW,325,0.0,0.0,61,0.00,,CLR,0.00,VWS V14.01,2013-04-24 09:40:00,
2013-04-24 02:45:00,31.1,19.6,29.84,NW,325,0.0,0.0,62,0.00,,CLR,0.00,VWS V14.01,2013-04-24 09:45:00,
2013-04-24 02:50:00,31.3,19.8,29.84,NW,325,0.0,0.0,62,0.00,,CLR,0.00,VWS V14.01,2013-04-24 09:50:00,
2013-04-24 02:55:00,31.1,19.2,29.84,NW,325,0.0,0.0,61,0.00,,CLR,0.00,VWS V14.01,2013-04-24 09:55:00,
2013-04-24 03:00:00,30.7,18.9,29.84,NW,325,0.0,0.0,61,0.00,,CLR,0.00,VWS V14.01,2013-04-24 10:00:00,
2013-04-24 03:05:00,30.4,18.6,29.84,NW,325,0.0,0.0,61,0.00,,CLR,0.00,VWS V14.01,2013-04-24 10:05:00,
2013-04-24 03:10:00,30.2,18.4,29.84,NW,325,0.0,0.0,61,0.00,,CLR,0.00,VWS V14.01,2013-04-24 10:10:00,
2013-04-24 03:15:00,29.5,17.3,29.84,NW,325,0.0,0.0,60,0.00,,CLR,0.00,VWS V14.01,2013-04-24 10:15:00,
2013-04-24 03:20:00,29.1,17.0,29.84,NW,325,0.0,0.0,60,0.00,,CLR,0.00,VWS V14.01,2013-04-24 10:20:00,
2013-04-24 03:25:00,29.1,17.4,29.87,NW,325,0.0,0.0,61,0.00,,CLR,0.00,VWS V14.01,2013-04-24 10:25:00,
2013-04-24 03:30:00,29.1,17.4,29.87,NW,325,0.0,0.0,61,0.00,,CLR,0.00,VWS V14.01,2013-04-24 10:30:00,
2013-04-24 03:35:00,29.5,19.2,29.87,NW,325,0.0,0.0,65,0.00,,CLR,0.00,VWS V14.01,2013-04-24 10:35:00,
2013-04-24 03:40:00,29.1,18.8,29.87,NW,325,0.0,0.0,65,0.00,,CLR,0.00,VWS V14.01,2013-04-24 10:40:00,
2013-04-24 03:45:00,28.9,18.7,29.87,NW,325,0.0,0.0,65,0.00,,CLR,0.00,VWS V14.01,2013-04-24 10:45:00,
2013-04-24 03:50:00,28.9,19.0,29.87,NW,325,0.0,0.0,66,0.00,,CLR,0.00,VWS V14.01,2013-04-24 10:50:00,
2013-04-24 03:55:00,29.3,21.1,29.87,NW,325,0.0,0.0,71,0.00,,CLR,0.00,VWS V14.01,2013-04-24 10:55:00,
2013-04-24 04:00:00,29.1,20.6,29.87,NW,325,0.0,0.0,70,0.00,,CLR,0.00,VWS V14.01,2013-04-24 11:00:00,
2013-04-24 04:05:00,29.3,20.7,29.87,NW,325,0.0,0.0,70,0.00,,CLR,0.00,VWS V14.01,2013-04-24 11:05:00,
2013-04-24 04:10:00,29.3,21.1,29.87,NW,325,0.0,0.0,71,0.00,,CLR,0.00,VWS V14.01,2013-04-24 11:10:00,
2013-04-24 04:15:00,29.3,21.1,29.87,NW,325,0.0,0.0,71,0.00,,CLR,0.00,VWS V14.01,2013-04-24 11:15:00,
2013-04-24 04:20:00,29.8,22.2,29.87,NW,325,0.0,0.0,73,0.00,,CLR,0.00,VWS V14.01,2013-04-24 11:20:00,
2013-04-24 04:25:00,29.8,22.2,29.87,NW,325,0.0,0.0,73,0.00,,CLR,0.00,VWS V14.01,2013-04-24 11:25:00,
2013-04-24 04:30:00,29.7,21.8,29.87,NW,325,0.0,0.0,72,0.00,,CLR,0.00,VWS V14.01,2013-04-24 11:30:00,
2013-04-24 04:35:00,29.5,21.6,29.87,NW,325,0.0,0.0,72,0.00,,CLR,0.00,VWS V14.01,2013-04-24 11:35:00,
2013-04-24 04:40:00,29.5,21.6,29.87,NW,325,0.0,0.0,72,0.00,,CLR,0.00,VWS V14.01,2013-04-24 11:40:00,
2013-04-24 04:45:00,29.1,20.9,29.87,NW,325,0.0,0.0,71,0.00,,CLR,0.00,VWS V14.01,2013-04-24 11:45:00,
2013-04-24 04:50:00,28.9,20.7,29.87,NW,325,0.0,0.0,71,0.00,,CLR,0.00,VWS V14.01,2013-04-24 11:50:00,
2013-04-24 04:55:00,29.1,20.9,29.87,NW,325,0.0,0.0,71,0.00,,CLR,0.00,VWS V14.01,2013-04-24 11:55:00,
2013-04-24 05:00:00,28.8,20.2,29.87,NW,325,0.0,0.0,70,0.00,,CLR,0.00,VWS V14.01,2013-04-24 12:00:00,
2013-04-24 05:05:00,28.6,20.0,29.87,NW,325,0.0,0.0,70,0.00,,CLR,0.00,VWS V14.01,2013-04-24 12:05:00,
2013-04-24 05:10:00,28.4,19.9,29.87,NW,325,0.0,0.0,70,0.00,,CLR,0.00,VWS V14.01,2013-04-24 12:10:00,
2013-04-24 05:15:00,28.0,19.2,29.87,NW,325,0.0,0.0,69,0.00,,CLR,0.00,VWS V14.01,2013-04-24 12:15:00,
2013-04-24 05:20:00,27.9,19.0,29.87,NW,325,0.0,0.0,69,0.00,,CLR,0.00,VWS V14.01,2013-04-24 12:20:00,
2013-04-24 05:25:00,27.9,19.4,29.87,NW,325,0.0,0.0,70,0.00,,CLR,0.00,VWS V14.01,2013-04-24 12:25:00,
2013-04-24 05:30:00,27.9,19.0,29.87,NW,325,0.0,0.0,69,0.00,,CLR,0.00,VWS V14.01,2013-04-24 12:30:00,
2013-04-24 05:35:00,28.0,19.9,29.87,NW,325,0.0,0.0,71,0.00,,CLR,0.00,VWS V14.01,2013-04-24 12:35:00,
2013-04-24 05:40:00,27.7,18.9,29.87,NW,325,0.0,0.0,69,0.00,,CLR,0.00,VWS V14.01,2013-04-24 12:40:00,
2013-04-24 05:45:00,27.7,19.2,29.87,NW,325,0.0,0.0,70,0.00,,CLR,0.00,VWS V14.01,2013-04-24 12:45:00,
2013-04-24 05:50:00,27.5,18.7,29.87,NW,325,0.0,0.0,69,0.00,,CLR,0.00,VWS V14.01,2013-04-24 12:50:00,
2013-04-24 05:55:00,27.5,18.7,29.87,NW,325,0.0,0.0,69,0.00,,CLR,0.00,VWS V14.01,2013-04-24 12:55:00,
2013-04-24 06:00:00,28.0,19.9,29.87,NW,325,0.0,0.0,71,0.00,,CLR,0.00,VWS V14.01,2013-04-24 13:00:00,
2013-04-24 06:05:00,28.2,19.7,29.87,NW,325,0.0,0.0,70,0.00,,CLR,0.00,VWS V14.01,2013-04-24 13:05:00,
2013-04-24 06:10:00,28.2,19.7,29.87,NW,325,0.0,0.0,70,0.00,,CLR,0.00,VWS V14.01,2013-04-24 13:10:00,
2013-04-24 06:15:00,28.4,20.2,29.87,NW,325,0.0,0.0,71,0.00,,CLR,0.00,VWS V14.01,2013-04-24 13:15:00,
2013-04-24 06:20:00,28.9,21.1,29.87,NW,325,0.0,0.0,72,0.00,,CLR,0.00,VWS V14.01,2013-04-24 13:20:00,
2013-04-24 06:24:00,28.0,19.5,29.87,NW,325,0.0,0.0,70,0.00,,FEW075,0.00,VWS V14.01,2013-04-24 13:24:00,
2013-04-24 06:25:00,29.7,22.1,29.87,NW,325,0.0,0.0,73,0.00,,CLR,0.00,VWS V14.01,2013-04-24 13:25:00,
2013-04-24 06:26:00,28.2,19.7,29.87,NW,325,0.0,0.0,70,0.00,,FEW075,0.00,VWS V14.01,2013-04-24 13:26:00,
2013-04-24 06:27:00,28.2,19.7,29.87,NW,325,0.0,0.0,70,0.00,,FEW075,0.00,VWS V14.01,2013-04-24 13:27:00,
2013-04-24 06:28:00,28.4,20.2,29.87,NW,325,0.0,0.0,71,0.00,,FEW075,0.00,VWS V14.01,2013-04-24 13:28:00,
2013-04-24 06:29:00,28.6,20.4,29.87,NW,325,0.0,0.0,71,0.00,,FEW075,0.00,VWS V14.01,2013-04-24 13:29:00,
2013-04-24 06:30:00,30.2,22.9,29.87,NW,325,0.0,0.0,74,0.00,,CLR,0.00,VWS V14.01,2013-04-24 13:30:00,
2013-04-24 06:31:00,28.8,20.6,29.87,NW,325,0.0,0.0,71,0.00,,FEW075,0.00,VWS V14.01,2013-04-24 13:31:00,
2013-04-24 06:32:00,28.8,20.9,29.87,NW,325,0.0,0.0,72,0.00,,FEW075,0.00,VWS V14.01,2013-04-24 13:32:00,
2013-04-24 06:33:00,28.9,21.1,29.87,NW,325,0.0,0.0,72,0.00,,FEW075,0.00,VWS V14.01,2013-04-24 13:33:00,
2013-04-24 06:34:00,29.1,21.6,29.87,NW,325,0.0,0.0,73,0.00,,FEW075,0.00,VWS V14.01,2013-04-24 13:34:00,
2013-04-24 06:35:00,30.9,23.9,29.87,NW,318,0.0,0.0,75,0.00,,CLR,0.00,VWS V14.01,2013-04-24 13:35:00,
2013-04-24 06:36:00,29.5,21.9,29.87,NW,325,0.0,0.0,73,0.00,,FEW075,0.00,VWS V14.01,2013-04-24 13:36:00,
2013-04-24 06:37:00,29.7,22.1,29.87,NW,325,0.0,0.0,73,0.00,,FEW075,0.00,VWS V14.01,2013-04-24 13:37:00,
2013-04-24 06:38:00,29.7,22.1,29.87,NW,325,0.0,0.0,73,0.00,,FEW075,0.00,VWS V14.01,2013-04-24 13:38:00,
2013-04-24 06:39:00,29.8,22.6,29.87,NW,325,0.0,0.0,74,0.00,,FEW075,0.00,VWS V14.01,2013-04-24 13:39:00,
2013-04-24 06:40:00,31.3,24.3,29.87,SSW,200,2.2,2.2,75,0.00,,CLR,0.00,VWS V14.01,2013-04-24 13:40:00,
2013-04-24 06:41:00,30.0,22.8,29.87,NW,325,2.2,2.2,74,0.00,,FEW075,0.00,VWS V14.01,2013-04-24 13:41:00,
2013-04-24 06:42:00,30.2,22.9,29.87,NW,325,0.0,3.1,74,0.00,,FEW075,0.00,VWS V14.01,2013-04-24 13:42:00,
2013-04-24 06:43:00,30.2,22.9,29.87,NW,325,0.0,0.0,74,0.00,,FEW075,0.00,VWS V14.01,2013-04-24 13:43:00,
2013-04-24 06:44:00,30.4,23.1,29.87,NW,325,0.0,0.0,74,0.00,,FEW075,0.00,VWS V14.01,2013-04-24 13:44:00,
2013-04-24 06:45:00,31.8,24.8,29.87,SSW,200,0.0,0.0,75,0.00,,CLR,0.00,VWS V14.01,2013-04-24 13:45:00,
2013-04-24 06:46:00,30.7,23.8,29.87,NW,318,0.0,2.2,75,0.00,,FEW075,0.00,VWS V14.01,2013-04-24 13:46:00,
2013-04-24 06:47:00,30.9,23.9,29.87,NW,318,0.0,0.0,75,0.00,,FEW075,0.00,VWS V14.01,2013-04-24 13:47:00,
2013-04-24 06:48:00,30.9,23.9,29.87,NW,318,0.0,0.0,75,0.00,,FEW075,0.00,VWS V14.01,2013-04-24 13:48:00,
2013-04-24 06:49:00,31.1,24.1,29.87,NW,316,2.2,2.2,75,0.00,,FEW075,0.00,VWS V14.01,2013-04-24 13:49:00,
2013-04-24 06:50:00,32.2,25.2,29.87,SSW,200,0.0,0.0,75,0.00,,CLR,0.00,VWS V14.01,2013-04-24 13:50:00,
2013-04-24 06:51:00,31.1,24.1,29.87,NW,316,0.0,0.0,75,0.00,,FEW075,0.00,VWS V14.01,2013-04-24 13:51:00,
2013-04-24 06:52:00,31.3,24.3,29.87,SSW,204,3.1,3.1,75,0.00,,FEW075,0.00,VWS V14.01,2013-04-24 13:52:00,
2013-04-24 06:53:00,31.3,24.3,29.87,SSW,200,2.2,3.6,75,0.00,,FEW075,0.00,VWS V14.01,2013-04-24 13:53:00,
2013-04-24 06:54:00,31.5,24.5,29.87,SSW,200,2.2,2.2,75,0.00,,FEW075,0.00,VWS V14.01,2013-04-24 13:54:00,
2013-04-24 06:55:00,32.7,25.7,29.87,ENE,62,2.2,2.7,75,0.00,,CLR,0.00,VWS V14.01,2013-04-24 13:55:00,
2013-04-24 06:56:00,31.6,24.6,29.87,SSW,200,0.0,0.0,75,0.00,,FEW075,0.00,VWS V14.01,2013-04-24 13:56:00,
2013-04-24 06:57:00,31.6,24.6,29.87,SSW,200,2.2,2.2,75,0.00,,FEW075,0.00,VWS V14.01,2013-04-24 13:57:00,
2013-04-24 06:58:00,31.8,24.8,29.87,SSW,200,0.0,2.2,75,0.00,,FEW075,0.00,VWS V14.01,2013-04-24 13:58:00,
2013-04-24 06:59:00,31.8,24.8,29.87,SSW,200,0.0,0.0,75,0.00,,FEW075,0.00,VWS V14.01,2013-04-24 13:59:00,
2013-04-24 07:00:00,33.3,26.2,29.87,ENE,60,0.0,0.0,75,0.00,,CLR,0.00,VWS V14.01,2013-04-24 14:00:00,
2013-04-24 07:01:00,32.2,25.2,29.87,SSW,200,0.0,0.0,75,0.00,,FEW075,0.00,VWS V14.01,2013-04-24 14:01:00,
2013-04-24 07:02:00,32.2,25.2,29.87,SSW,200,0.0,0.0,75,0.00,,FEW075,0.00,VWS V14.01,2013-04-24 14:02:00,
2013-04-24 07:03:00,32.2,25.2,29.87,SSW,200,0.0,0.0,75,0.00,,FEW075,0.00,VWS V14.01,2013-04-24 14:03:00,
2013-04-24 07:04:00,32.4,25.3,29.87,SSW,200,0.0,0.0,75,0.00,,FEW075,0.00,VWS V14.01,2013-04-24 14:04:00,
2013-04-24 07:05:00,34.0,26.9,29.87,ENE,68,0.0,0.0,75,0.00,,CLR,0.00,VWS V14.01,2013-04-24 14:05:00,
2013-04-24 07:06:00,32.5,25.5,29.87,SSW,200,0.0,0.0,75,0.00,,FEW075,0.00,VWS V14.01,2013-04-24 14:06:00,
2013-04-24 07:07:00,32.5,25.5,29.87,SSW,200,0.0,0.0,75,0.00,,FEW075,0.00,VWS V14.01,2013-04-24 14:07:00,
2013-04-24 07:08:00,32.7,25.7,29.87,ENE,63,2.7,3.6,75,0.00,,FEW075,0.00,VWS V14.01,2013-04-24 14:08:00,
2013-04-24 07:09:00,32.7,25.7,29.87,ENE,60,2.2,2.7,75,0.00,,FEW075,0.00,VWS V14.01,2013-04-24 14:09:00,
2013-04-24 07:10:00,34.7,27.3,29.87,ENE,63,0.0,0.0,74,0.00,,CLR,0.00,VWS V14.01,2013-04-24 14:10:00,
2013-04-24 07:11:00,33.1,26.0,29.87,ENE,60,0.0,0.0,75,0.00,,FEW075,0.00,VWS V14.01,2013-04-24 14:11:00,
2013-04-24 07:12:00,33.1,26.0,29.87,ENE,60,0.0,0.0,75,0.00,,FEW075,0.00,VWS V14.01,2013-04-24 14:12:00,
2013-04-24 07:13:00,33.3,26.2,29.87,ENE,60,0.0,0.0,75,0.00,,FEW075,0.00,VWS V14.01,2013-04-24 14:13:00,
2013-04-24 07:14:00,33.6,26.6,29.87,ENE,60,0.0,0.0,75,0.00,,FEW075,0.00,VWS V14.01,2013-04-24 14:14:00,
2013-04-24 07:15:00,35.2,27.5,29.87,ENE,67,2.2,2.7,73,0.00,,CLR,0.00,VWS V14.01,2013-04-24 14:15:00,
2013-04-24 07:16:00,33.8,26.7,29.87,ENE,60,0.0,0.0,75,0.00,,FEW075,0.00,VWS V14.01,2013-04-24 14:16:00,
2013-04-24 07:17:00,33.8,26.7,29.87,ENE,64,2.2,2.7,75,0.00,,FEW075,0.00,VWS V14.01,2013-04-24 14:17:00,
2013-04-24 07:18:00,34.0,26.9,29.87,ENE,68,0.0,2.2,75,0.00,,FEW075,0.00,VWS V14.01,2013-04-24 14:18:00,
2013-04-24 07:19:00,34.3,27.2,29.87,ENE,61,2.7,2.7,75,0.00,,FEW075,0.00,VWS V14.01,2013-04-24 14:19:00,
2013-04-24 07:20:00,35.8,27.3,29.87,ENE,68,0.0,0.0,71,0.00,,CLR,0.00,VWS V14.01,2013-04-24 14:20:00,
2013-04-24 07:21:00,34.5,27.1,29.87,ENE,64,0.0,2.7,74,0.00,,FEW075,0.00,VWS V14.01,2013-04-24 14:21:00,
2013-04-24 07:22:00,34.5,27.1,29.87,ENE,64,0.0,0.0,74,0.00,,FEW075,0.00,VWS V14.01,2013-04-24 14:22:00,
2013-04-24 07:23:00,34.7,27.3,29.87,ENE,63,0.0,0.0,74,0.00,,FEW075,0.00,VWS V14.01,2013-04-24 14:23:00,
2013-04-24 07:24:00,34.9,27.5,29.87,ENE,61,0.0,0.0,74,0.00,,FEW075,0.00,VWS V14.01,2013-04-24 14:24:00,
2013-04-24 07:25:00,36.3,27.1,29.87,ENE,68,0.0,0.0,69,0.00,,CLR,0.00,VWS V14.01,2013-04-24 14:25:00,
2013-04-24 07:26:00,35.1,27.6,29.87,ENE,68,2.7,2.7,74,0.00,,FEW075,0.00,VWS V14.01,2013-04-24 14:26:00,
2013-04-24 07:27:00,35.1,27.3,29.87,ENE,71,2.2,2.7,73,0.00,,FEW075,0.00,VWS V14.01,2013-04-24 14:27:00,
2013-04-24 07:28:00,35.2,27.5,29.87,ENE,67,2.2,2.7,73,0.00,,FEW075,0.00,VWS V14.01,2013-04-24 14:28:00,
2013-04-24 07:29:00,35.4,27.6,29.87,ENE,67,0.0,2.2,73,0.00,,FEW075,0.00,VWS V14.01,2013-04-24 14:29:00,
2013-04-24 07:30:00,36.9,27.3,29.87,ENE,65,0.0,0.0,68,0.00,,CLR,0.00,VWS V14.01,2013-04-24 14:30:00,
2013-04-24 07:31:00,35.6,27.5,29.87,ENE,68,0.0,0.0,72,0.00,,FEW075,0.00,VWS V14.01,2013-04-24 14:31:00,
2013-04-24 07:32:00,35.8,27.3,29.87,ENE,68,2.2,2.2,71,0.00,,FEW075,0.00,VWS V14.01,2013-04-24 14:32:00,
2013-04-24 07:33:00,35.8,27.3,29.87,ENE,68,0.0,2.2,71,0.00,,FEW075,0.00,VWS V14.01,2013-04-24 14:33:00,
2013-04-24 07:34:00,36.0,27.5,29.87,ENE,68,0.0,0.0,71,0.00,,FEW075,0.00,VWS V14.01,2013-04-24 14:34:00,
2013-04-24 07:35:00,37.6,26.1,29.87,SSE,168,0.0,3.1,63,0.00,,CLR,0.00,VWS V14.01,2013-04-24 14:35:00,
2013-04-24 07:36:00,36.1,27.3,29.87,ENE,67,0.0,0.0,70,0.00,,FEW075,0.00,VWS V14.01,2013-04-24 14:36:00,
2013-04-24 07:37:00,36.1,27.3,29.87,ENE,68,0.0,0.0,70,0.00,,FEW075,0.00,VWS V14.01,2013-04-24 14:37:00,
2013-04-24 07:38:00,36.3,27.1,29.87,ENE,68,0.0,0.0,69,0.00,,FEW075,0.00,VWS V14.01,2013-04-24 14:38:00,
2013-04-24 07:39:00,36.5,27.3,29.87,ENE,66,0.0,0.0,69,0.00,,FEW075,0.00,VWS V14.01,2013-04-24 14:39:00,
2013-04-24 07:40:00,38.1,25.1,29.87,SSE,168,0.0,0.0,59,0.00,,CLR,0.00,VWS V14.01,2013-04-24 14:40:00,
2013-04-24 07:41:00,36.7,27.1,29.87,ENE,66,0.0,0.0,68,0.00,,FEW075,0.00,VWS V14.01,2013-04-24 14:41:00,
2013-04-24 07:42:00,36.9,27.3,29.87,ENE,65,0.0,0.0,68,0.00,,FEW075,0.00,VWS V14.01,2013-04-24 14:42:00,
2013-04-24 07:43:00,36.9,27.3,29.87,ENE,65,0.0,0.0,68,0.00,,FEW075,0.00,VWS V14.01,2013-04-24 14:43:00,
2013-04-24 07:44:00,37.0,27.1,29.87,SE,145,2.2,3.1,67,0.00,,FEW075,0.00,VWS V14.01,2013-04-24 14:44:00,
2013-04-24 07:45:00,38.7,24.3,29.87,SSE,161,0.0,0.0,56,0.00,,CLR,0.00,VWS V14.01,2013-04-24 14:45:00,
2013-04-24 07:46:00,37.2,26.5,29.87,SSE,160,4.0,4.0,65,0.00,,FEW075,0.00,VWS V14.01,2013-04-24 14:46:00,
2013-04-24 07:47:00,37.4,26.0,29.87,SSE,165,3.1,4.0,63,0.00,,FEW075,0.00,VWS V14.01,2013-04-24 14:47:00,
2013-04-24 07:48:00,37.6,26.1,29.87,SSE,168,0.0,3.1,63,0.00,,FEW075,0.00,VWS V14.01,2013-04-24 14:48:00,
2013-04-24 07:49:00,37.8,26.3,29.87,SSE,168,0.0,0.0,63,0.00,,FEW075,0.00,VWS V14.01,2013-04-24 14:49:00,
2013-04-24 07:50:00,39.0,24.2,29.87,SE,138,0.0,0.0,55,0.00,,CLR,0.00,VWS V14.01,2013-04-24 14:50:00,
2013-04-24 07:51:00,38.1,25.9,29.87,South,170,0.0,2.2,61,0.00,,FEW075,0.00,VWS V14.01,2013-04-24 14:51:00,
2013-04-24 07:52:00,38.1,25.9,29.87,South,170,0.0,0.0,61,0.00,,FEW075,0.00,VWS V14.01,2013-04-24 14:52:00,
2013-04-24 07:53:00,38.1,25.1,29.87,SSE,168,0.0,0.0,59,0.00,,FEW075,0.00,VWS V14.01,2013-04-24 14:53:00,
2013-04-24 07:54:00,38.3,25.2,29.87,SSE,162,0.0,3.1,59,0.00,,FEW075,0.00,VWS V14.01,2013-04-24 14:54:00,
2013-04-24 07:55:00,39.7,23.6,29.87,South,182,3.6,3.6,52,0.00,,CLR,0.00,VWS V14.01,2013-04-24 14:55:00,
2013-04-24 07:56:00,38.5,24.6,29.87,SSE,161,0.0,0.0,57,0.00,,FEW075,0.00,VWS V14.01,2013-04-24 14:56:00,
2013-04-24 07:57:00,38.5,24.6,29.87,SSE,161,0.0,0.0,57,0.00,,FEW075,0.00,VWS V14.01,2013-04-24 14:57:00,
2013-04-24 07:58:00,38.7,24.3,29.87,SSE,161,0.0,0.0,56,0.00,,FEW075,0.00,VWS V14.01,2013-04-24 14:58:00,
2013-04-24 07:59:00,38.7,24.3,29.87,SE,140,2.2,2.2,56,0.00,,FEW075,0.00,VWS V14.01,2013-04-24 14:59:00,
2013-04-24 08:00:00,40.3,23.6,29.87,SSE,156,2.2,2.7,51,0.00,,CLR,0.00,VWS V14.01,2013-04-24 15:00:00,
2013-04-24 08:01:00,38.8,24.1,29.87,SE,139,0.0,2.2,55,0.00,,FEW075,0.00,VWS V14.01,2013-04-24 15:01:00,
2013-04-24 08:02:00,38.8,24.1,29.87,SE,138,0.0,0.0,55,0.00,,FEW075,0.00,VWS V14.01,2013-04-24 15:02:00,
2013-04-24 08:03:00,39.0,24.2,29.87,SE,138,0.0,0.0,55,0.00,,FEW075,0.00,VWS V14.01,2013-04-24 15:03:00,
2013-04-24 08:04:00,39.2,24.0,29.87,SE,138,0.0,0.0,54,0.00,,FEW075,0.00,VWS V14.01,2013-04-24 15:04:00,
2013-04-24 08:05:00,41.0,23.3,29.87,ESE,110,0.0,0.0,49,0.00,,CLR,0.00,VWS V14.01,2013-04-24 15:05:00,
2013-04-24 08:06:00,39.4,24.1,29.87,SSE,163,0.0,3.1,54,0.00,,FEW075,0.00,VWS V14.01,2013-04-24 15:06:00,
2013-04-24 08:07:00,39.6,23.9,29.87,SSW,202,3.6,3.6,53,0.00,,FEW075,0.00,VWS V14.01,2013-04-24 15:07:00,
2013-04-24 08:08:00,39.7,23.6,29.87,South,182,3.6,3.6,52,0.00,,FEW075,0.00,VWS V14.01,2013-04-24 15:08:00,
2013-04-24 08:09:00,39.7,23.6,29.87,South,186,0.0,3.6,52,0.00,,FEW075,0.00,VWS V14.01,2013-04-24 15:09:00,
2013-04-24 08:10:00,41.5,23.3,29.87,ESE,110,0.0,0.0,48,0.00,,CLR,0.00,VWS V14.01,2013-04-24 15:10:00,
2013-04-24 08:11:00,39.9,23.7,29.87,SSE,165,3.1,3.1,52,0.00,,FEW075,0.00,VWS V14.01,2013-04-24 15:11:00,
2013-04-24 08:12:00,40.1,23.4,29.87,SSE,152,2.7,3.6,51,0.00,,FEW075,0.00,VWS V14.01,2013-04-24 15:12:00,
2013-04-24 08:13:00,40.3,23.6,29.87,SSE,156,2.2,2.7,51,0.00,,FEW075,0.00,VWS V14.01,2013-04-24 15:13:00,
2013-04-24 08:14:00,40.5,23.3,29.87,SSE,156,0.0,2.2,50,0.00,,FEW075,0.00,VWS V14.01,2013-04-24 15:14:00,
2013-04-24 08:15:00,42.1,23.3,29.87,East,100,2.2,2.7,47,0.00,,CLR,0.00,VWS V14.01,2013-04-24 15:15:00,
2013-04-24 08:16:00,40.8,23.6,29.87,SSE,152,2.2,2.2,50,0.00,,FEW075,0.00,VWS V14.01,2013-04-24 15:16:00,
2013-04-24 08:17:00,41.0,23.3,29.87,ESE,110,0.0,2.7,49,0.00,,FEW075,0.00,VWS V14.01,2013-04-24 15:17:00,
2013-04-24 08:18:00,41.0,23.3,29.87,ESE,110,0.0,0.0,49,0.00,,FEW075,0.00,VWS V14.01,2013-04-24 15:18:00,
2013-04-24 08:19:00,41.2,23.0,29.87,ESE,110,0.0,0.0,48,0.00,,FEW075,0.00,VWS V14.01,2013-04-24 15:19:00,
2013-04-24 08:20:00,43.0,23.6,29.87,East,86,2.7,2.7,46,0.00,,CLR,0.00,VWS V14.01,2013-04-24 15:20:00,
2013-04-24 08:21:00,41.4,23.2,29.87,ESE,110,0.0,0.0,48,0.00,,FEW075,0.00,VWS V14.01,2013-04-24 15:21:00,
2013-04-24 08:22:00,41.5,23.3,29.87,ESE,110,0.0,0.0,48,0.00,,FEW075,0.00,VWS V14.01,2013-04-24 15:22:00,
2013-04-24 08:23:00,41.5,23.3,29.87,ESE,110,0.0,0.0,48,0.00,,FEW075,0.00,VWS V14.01,2013-04-24 15:23:00,
2013-04-24 08:24:00,41.5,22.8,29.87,ESE,105,2.2,2.2,47,0.00,,FEW075,0.00,VWS V14.01,2013-04-24 15:24:00,
2013-04-24 08:25:00,43.7,23.2,29.87,NE,50,0.0,2.2,44,0.00,,CLR,0.00,VWS V14.01,2013-04-24 15:25:00,
2013-04-24 08:26:00,41.9,23.2,29.87,ESE,105,2.7,3.1,47,0.00,,FEW075,0.00,VWS V14.01,2013-04-24 15:26:00,
2013-04-24 08:27:00,42.1,23.3,29.87,East,100,2.7,3.1,47,0.00,,FEW075,0.00,VWS V14.01,2013-04-24 15:27:00,
2013-04-24 08:28:00,42.3,23.5,29.87,East,100,2.2,2.7,47,0.00,,FEW075,0.00,VWS V14.01,2013-04-24 15:28:00,
2013-04-24 08:29:00,42.3,23.5,29.87,East,100,2.2,2.7,47,0.00,,FEW075,0.00,VWS V14.01,2013-04-24 15:29:00,
2013-04-24 08:30:00,43.9,22.9,29.87,NE,36,0.0,2.2,43,0.00,,CLR,0.00,VWS V14.01,2013-04-24 15:30:00,
2013-04-24 08:31:00,42.8,23.5,29.87,East,86,0.0,2.7,46,0.00,,FEW075,0.00,VWS V14.01,2013-04-24 15:31:00,
2013-04-24 08:32:00,42.8,23.5,29.87,East,86,2.7,2.7,46,0.00,,FEW075,0.00,VWS V14.01,2013-04-24 15:32:00,
2013-04-24 08:33:00,43.0,23.6,29.87,East,86,2.7,2.7,46,0.00,,FEW075,0.00,VWS V14.01,2013-04-24 15:33:00,
2013-04-24 08:34:00,43.2,23.8,29.87,East,86,2.2,2.7,46,0.00,,FEW075,0.00,VWS V14.01,2013-04-24 15:34:00,
2013-04-24 08:35:00,44.8,23.1,29.87,ENE,69,2.7,2.7,42,0.00,,CLR,0.00,VWS V14.01,2013-04-24 15:35:00,
2013-04-24 08:36:00,43.7,23.8,29.87,NE,51,3.1,3.6,45,0.00,,FEW075,0.00,VWS V14.01,2013-04-24 15:36:00,
2013-04-24 08:37:00,43.7,23.8,29.87,NE,50,2.2,3.1,45,0.00,,FEW075,0.00,VWS V14.01,2013-04-24 15:37:00,
2013-04-24 08:38:00,43.7,23.2,29.87,NE,50,0.0,2.2,44,0.00,,FEW075,0.00,VWS V14.01,2013-04-24 15:38:00,
2013-04-24 08:39:00,43.7,22.7,29.87,NE,50,0.0,0.0,43,0.00,,FEW075,0.00,VWS V14.01,2013-04-24 15:39:00,
2013-04-24 08:40:00,45.5,22.6,29.87,ENE,70,2.7,2.7,40,0.00,,CLR,0.00,VWS V14.01,2013-04-24 15:40:00,
2013-04-24 08:41:00,43.7,22.7,29.87,NE,50,0.0,0.0,43,0.00,,FEW075,0.00,VWS V14.01,2013-04-24 15:41:00,
2013-04-24 08:42:00,43.7,22.7,29.87,NNE,33,2.2,3.1,43,0.00,,FEW075,0.00,VWS V14.01,2013-04-24 15:42:00,
2013-04-24 08:43:00,43.9,22.9,29.87,NE,48,2.7,2.7,43,0.00,,FEW075,0.00,VWS V14.01,2013-04-24 15:43:00,
2013-04-24 08:44:00,43.9,22.9,29.87,NE,52,3.1,3.1,43,0.00,,FEW075,0.00,VWS V14.01,2013-04-24 15:44:00,
2013-04-24 08:45:00,46.4,22.8,29.87,ENE,62,3.1,3.1,39,0.00,,CLR,0.00,VWS V14.01,2013-04-24 15:45:00,
2013-04-24 08:46:00,44.4,23.3,29.87,ENE,69,0.0,2.7,43,0.00,,FEW075,0.00,VWS V14.01,2013-04-24 15:46:00,
2013-04-24 08:47:00,44.6,22.9,29.87,ENE,69,0.0,0.0,42,0.00,,FEW075,0.00,VWS V14.01,2013-04-24 15:47:00,
2013-04-24 08:48:00,44.8,23.1,29.87,ENE,69,2.7,2.7,42,0.00,,FEW075,0.00,VWS V14.01,2013-04-24 15:48:00,
2013-04-24 08:49:00,45.0,22.7,29.87,ENE,69,2.2,2.7,41,0.00,,FEW075,0.00,VWS V14.01,2013-04-24 15:49:00,
2013-04-24 08:50:00,46.4,22.2,29.87,NE,56,3.1,3.1,38,0.00,,CLR,0.00,VWS V14.01,2013-04-24 15:50:00,
2013-04-24 08:51:00,45.3,23.0,29.87,ENE,62,2.7,2.7,41,0.00,,FEW075,0.00,VWS V14.01,2013-04-24 15:51:00,
2013-04-24 08:52:00,45.5,22.6,29.87,ENE,68,2.7,3.1,40,0.00,,FEW075,0.00,VWS V14.01,2013-04-24 15:52:00,
2013-04-24 08:53:00,45.5,22.6,29.87,ENE,70,2.7,2.7,40,0.00,,FEW075,0.00,VWS V14.01,2013-04-24 15:53:00,
2013-04-24 08:54:00,45.9,23.5,29.87,ENE,70,2.7,2.7,41,0.00,,FEW075,0.00,VWS V14.01,2013-04-24 15:54:00,
2013-04-24 08:55:00,46.8,22.5,29.87,NE,46,2.7,3.6,38,0.00,,CLR,0.00,VWS V14.01,2013-04-24 15:55:00,
2013-04-24 08:56:00,46.2,23.2,29.87,ENE,69,2.7,2.7,40,0.00,,FEW075,0.00,VWS V14.01,2013-04-24 15:56:00,
2013-04-24 08:57:00,46.4,22.8,29.87,ENE,69,2.7,2.7,39,0.00,,FEW075,0.00,VWS V14.01,2013-04-24 15:57:00,
2013-04-24 08:58:00,46.4,22.8,29.87,ENE,61,2.7,3.1,39,0.00,,FEW075,0.00,VWS V14.01,2013-04-24 15:58:00,
2013-04-24 08:59:00,46.4,22.8,29.87,NE,54,3.1,3.1,39,0.00,,FEW075,0.00,VWS V14.01,2013-04-24 15:59:00,
2013-04-24 09:00:00,47.7,23.3,29.87,East,80,3.1,3.6,38,0.00,,CLR,0.00,VWS V14.01,2013-04-24 16:00:00,
2013-04-24 09:01:00,46.4,22.2,29.87,NE,41,2.7,4.0,38,0.00,,FEW075,0.00,VWS V14.01,2013-04-24 16:01:00,
2013-04-24 09:02:00,46.4,22.2,29.87,ENE,57,2.7,3.1,38,0.00,,FEW075,0.00,VWS V14.01,2013-04-24 16:02:00,
2013-04-24 09:03:00,46.4,22.2,29.87,NE,56,2.2,3.1,38,0.00,,FEW075,0.00,VWS V14.01,2013-04-24 16:03:00,
2013-04-24 09:04:00,46.6,22.4,29.87,NE,54,3.1,3.1,38,0.00,,FEW075,0.00,VWS V14.01,2013-04-24 16:04:00,
2013-04-24 09:05:00,48.2,23.2,29.87,NE,49,3.1,3.1,37,0.00,,FEW200,0.00,VWS V14.01,2013-04-24 16:05:00,
2013-04-24 09:06:00,46.6,22.4,29.87,ENE,59,2.2,2.7,38,0.00,,FEW075,0.00,VWS V14.01,2013-04-24 16:06:00,
2013-04-24 09:07:00,46.8,22.5,29.87,East,81,3.1,3.1,38,0.00,,FEW075,0.00,VWS V14.01,2013-04-24 16:07:00,
2013-04-24 09:08:00,46.8,22.5,29.87,NNE,27,3.1,3.6,38,0.00,,FEW075,0.00,VWS V14.01,2013-04-24 16:08:00,
2013-04-24 09:09:00,46.9,22.7,29.87,ENE,59,2.2,3.1,38,0.00,,FEW075,0.00,VWS V14.01,2013-04-24 16:09:00,
2013-04-24 09:10:00,48.2,23.2,29.87,NE,40,2.7,3.6,37,0.00,,FEW200,0.00,VWS V14.01,2013-04-24 16:10:00,
2013-04-24 09:11:00,47.1,22.8,29.87,East,80,2.7,3.1,38,0.00,,FEW075,0.00,VWS V14.01,2013-04-24 16:11:00,
2013-04-24 09:12:00,47.5,23.2,29.87,East,81,3.1,3.1,38,0.00,,FEW075,0.00,VWS V14.01,2013-04-24 16:12:00,
2013-04-24 09:13:00,47.8,23.5,29.87,East,80,3.1,3.6,38,0.00,,FEW075,0.00,VWS V14.01,2013-04-24 16:13:00,
2013-04-24 09:14:00,47.8,23.5,29.87,NE,50,2.7,3.1,38,0.00,,FEW075,0.00,VWS V14.01,2013-04-24 16:14:00,
2013-04-24 09:15:00,48.2,23.2,29.87,NNE,27,2.2,2.2,37,0.00,,FEW200,0.00,VWS V14.01,2013-04-24 16:15:00,
2013-04-24 09:16:00,48.2,23.2,29.87,NNE,24,2.2,3.1,37,0.00,,FEW075,0.00,VWS V14.01,2013-04-24 16:16:00,
2013-04-24 09:17:00,48.2,23.2,29.87,NNE,27,2.7,2.7,37,0.00,,FEW075,0.00,VWS V14.01,2013-04-24 16:17:00,
2013-04-24 09:18:00,48.2,23.2,29.87,NE,49,2.2,3.1,37,0.00,,FEW075,0.00,VWS V14.01,2013-04-24 16:18:00,
2013-04-24 09:19:00,48.2,23.2,29.87,NE,39,2.7,3.6,37,0.00,,FEW075,0.00,VWS V14.01,2013-04-24 16:19:00,
2013-04-24 09:20:00,48.7,23.0,29.87,NNE,26,3.1,3.1,36,0.00,,FEW200,0.00,VWS V14.01,2013-04-24 16:20:00,
2013-04-24 09:21:00,48.2,23.2,29.87,NNE,31,3.1,3.6,37,0.00,,FEW075,0.00,VWS V14.01,2013-04-24 16:21:00,
2013-04-24 09:22:00,48.2,23.2,29.87,NE,36,2.7,3.6,37,0.00,,FEW075,0.00,VWS V14.01,2013-04-24 16:22:00,
2013-04-24 09:23:00,48.2,23.2,29.87,NE,39,2.2,3.6,37,0.00,,FEW075,0.00,VWS V14.01,2013-04-24 16:23:00,
2013-04-24 09:24:00,48.2,23.2,29.87,NNE,27,3.6,3.6,37,0.00,,FEW075,0.00,VWS V14.01,2013-04-24 16:24:00,
2013-04-24 09:25:00,48.9,22.5,29.84,ENE,71,3.6,4.0,35,0.00,,FEW200,0.00,VWS V14.01,2013-04-24 16:25:00,
2013-04-24 09:26:00,48.2,23.2,29.87,NNE,27,0.0,2.7,37,0.00,,FEW075,0.00,VWS V14.01,2013-04-24 16:26:00,
2013-04-24 09:27:00,48.2,23.2,29.87,NNE,27,0.0,0.0,37,0.00,,FEW075,0.00,VWS V14.01,2013-04-24 16:27:00,
2013-04-24 09:28:00,48.2,23.2,29.87,NNE,27,2.7,2.7,37,0.00,,FEW075,0.00,VWS V14.01,2013-04-24 16:28:00,
2013-04-24 09:29:00,48.4,23.3,29.87,NNE,27,0.0,3.1,37,0.00,,FEW075,0.00,VWS V14.01,2013-04-24 16:29:00,
2013-04-24 09:30:00,49.8,21.9,29.84,North,9,2.7,2.7,33,0.00,,FEW200,0.00,VWS V14.01,2013-04-24 16:30:00,
2013-04-24 09:31:00,48.6,23.5,29.87,NNE,26,0.0,3.1,37,0.00,,FEW075,0.00,VWS V14.01,2013-04-24 16:31:00,
2013-04-24 09:32:00,48.7,23.0,29.87,NNE,26,2.7,2.7,36,0.00,,FEW075,0.00,VWS V14.01,2013-04-24 16:32:00,
2013-04-24 09:33:00,48.7,23.0,29.87,NNE,26,2.2,3.1,36,0.00,,FEW075,0.00,VWS V14.01,2013-04-24 16:33:00,
2013-04-24 09:34:00,48.7,22.3,29.84,NNE,26,2.2,2.7,35,0.00,,FEW075,0.00,VWS V14.01,2013-04-24 16:34:00,
2013-04-24 09:35:00,50.2,22.9,29.84,SSW,199,5.4,5.4,34,0.00,,FEW200,0.00,VWS V14.01,2013-04-24 16:35:00,
2013-04-24 09:36:00,48.9,22.5,29.84,NNE,26,3.6,3.6,35,0.00,,FEW075,0.00,VWS V14.01,2013-04-24 16:36:00,
2013-04-24 09:37:00,48.9,21.8,29.84,ENE,74,3.1,3.6,34,0.00,,FEW075,0.00,VWS V14.01,2013-04-24 16:37:00,
2013-04-24 09:38:00,49.1,22.6,29.84,ENE,71,2.2,4.0,35,0.00,,FEW075,0.00,VWS V14.01,2013-04-24 16:38:00,
2013-04-24 09:39:00,49.3,22.8,29.84,ENE,65,0.0,2.7,35,0.00,,FEW075,0.00,VWS V14.01,2013-04-24 16:39:00,
2013-04-24 09:40:00,52.5,22.8,29.84,SSW,197,5.4,5.4,31,0.00,,FEW200,0.00,VWS V14.01,2013-04-24 16:40:00,
2013-04-24 09:41:00,49.5,22.3,29.84,NE,51,3.1,3.6,34,0.00,,FEW075,0.00,VWS V14.01,2013-04-24 16:41:00,
2013-04-24 09:42:00,49.6,22.4,29.84,NE,46,2.2,3.6,34,0.00,,FEW075,0.00,VWS V14.01,2013-04-24 16:42:00,
2013-04-24 09:43:00,49.8,21.9,29.84,North,8,2.7,3.1,33,0.00,,FEW075,0.00,VWS V14.01,2013-04-24 16:43:00,
2013-04-24 09:44:00,49.8,21.2,29.84,North,8,2.2,2.7,32,0.00,,FEW075,0.00,VWS V14.01,2013-04-24 16:44:00,
2013-04-24 09:45:00,54.0,23.2,29.84,WSW,242,5.8,5.8,30,0.00,,FEW200,0.00,VWS V14.01,2013-04-24 16:45:00,
2013-04-24 09:46:00,50.0,22.0,29.84,North,357,2.7,2.7,33,0.00,,FEW075,0.00,VWS V14.01,2013-04-24 16:46:00,
2013-04-24 09:47:00,50.2,22.9,29.84,SSW,204,4.0,4.0,34,0.00,,FEW075,0.00,VWS V14.01,2013-04-24 16:47:00,
2013-04-24 09:48:00,50.5,23.2,29.84,SSW,199,5.4,5.4,34,0.00,,FEW075,0.00,VWS V14.01,2013-04-24 16:48:00,
2013-04-24 09:49:00,50.9,22.8,29.84,SW,235,5.4,5.8,33,0.00,,FEW075,0.00,VWS V14.01,2013-04-24 16:49:00,
2013-04-24 09:50:00,55.0,23.4,29.84,WSW,252,6.3,7.2,29,0.00,,FEW200,0.00,VWS V14.01,2013-04-24 16:50:00,
2013-04-24 09:51:00,51.8,22.9,29.84,SW,221,4.0,5.4,32,0.00,,FEW075,0.00,VWS V14.01,2013-04-24 16:51:00,
2013-04-24 09:52:00,52.2,24.0,29.84,SW,223,5.4,5.4,33,0.00,,FEW075,0.00,VWS V14.01,2013-04-24 16:52:00,
2013-04-24 09:53:00,52.7,22.9,29.84,SW,226,4.0,5.4,31,0.00,,FEW075,0.00,VWS V14.01,2013-04-24 16:53:00,
2013-04-24 09:54:00,53.1,21.7,29.84,SW,216,5.4,6.3,29,0.00,,FEW075,0.00,VWS V14.01,2013-04-24 16:54:00,
2013-04-24 09:55:00,55.8,23.2,29.84,West,263,4.9,5.8,28,0.00,,FEW200,0.00,VWS V14.01,2013-04-24 16:55:00,
2013-04-24 09:56:00,53.6,22.1,29.84,WSW,247,5.4,5.4,29,0.00,,FEW075,0.00,VWS V14.01,2013-04-24 16:56:00,
2013-04-24 09:57:00,53.8,22.3,29.84,SW,236,2.7,6.3,29,0.00,,FEW075,0.00,VWS V14.01,2013-04-24 16:57:00,
2013-04-24 09:58:00,54.0,23.2,29.84,West,264,4.0,5.8,30,0.00,,FEW075,0.00,VWS V14.01,2013-04-24 16:58:00,
2013-04-24 09:59:00,54.3,22.8,29.84,SSW,211,5.8,7.2,29,0.00,,FEW075,0.00,VWS V14.01,2013-04-24 16:59:00,
2013-04-24 10:00:00,55.9,22.5,29.84,West,262,6.3,8.1,27,0.00,,FEW200,0.00,VWS V14.01,2013-04-24 17:00:00,
2013-04-24 10:01:00,54.7,22.2,29.84,SW,225,4.0,5.4,28,0.00,,FEW075,0.00,VWS V14.01,2013-04-24 17:01:00,
2013-04-24 10:02:00,55.0,23.4,29.84,WSW,256,7.2,7.2,29,0.00,,FEW075,0.00,VWS V14.01,2013-04-24 17:02:00,
2013-04-24 10:03:00,55.0,23.4,29.84,WSW,251,5.4,7.2,29,0.00,,FEW120,0.00,VWS V14.01,2013-04-24 17:03:00,
2013-04-24 10:04:00,55.4,22.9,29.84,WSW,254,5.4,5.8,28,0.00,,FEW075,0.00,VWS V14.01,2013-04-24 17:04:00,
2013-04-24 10:05:00,56.3,22.8,29.84,SSW,212,3.6,4.0,27,0.00,,FEW200,0.00,VWS V14.01,2013-04-24 17:05:00,
2013-04-24 10:06:00,55.6,23.0,29.84,WSW,257,6.7,6.7,28,0.00,,FEW075,0.00,VWS V14.01,2013-04-24 17:06:00,
2013-04-24 10:07:00,55.8,23.2,29.84,WSW,247,5.8,6.7,28,0.00,,FEW075,0.00,VWS V14.01,2013-04-24 17:07:00,
2013-04-24 10:08:00,55.8,23.2,29.84,SW,232,5.4,5.8,28,0.00,,FEW075,0.00,VWS V14.01,2013-04-24 17:08:00,
2013-04-24 10:09:00,55.9,22.5,29.84,WSW,258,4.0,5.4,27,0.00,,FEW120,0.00,VWS V14.01,2013-04-24 17:09:00,
2013-04-24 10:10:00,56.8,23.2,29.84,West,277,5.8,7.6,27,0.00,,FEW200,0.00,VWS V14.01,2013-04-24 17:10:00,
2013-04-24 10:11:00,55.9,22.5,29.84,West,272,5.4,5.4,27,0.00,,FEW075,0.00,VWS V14.01,2013-04-24 17:11:00,
2013-04-24 10:12:00,55.9,22.5,29.84,SW,227,6.7,7.6,27,0.00,,FEW075,0.00,VWS V14.01,2013-04-24 17:12:00,
2013-04-24 10:13:00,55.9,22.5,29.84,WSW,250,7.6,8.1,27,0.00,,FEW075,0.00,VWS V14.01,2013-04-24 17:13:00,
2013-04-24 10:14:00,56.1,22.6,29.84,WSW,245,6.3,7.6,27,0.00,,FEW075,0.00,VWS V14.01,2013-04-24 17:14:00,
2013-04-24 10:15:00,56.8,23.2,29.84,SSW,205,4.9,4.9,27,0.00,,FEW200,0.00,VWS V14.01,2013-04-24 17:15:00,
2013-04-24 10:16:00,56.3,22.8,29.84,WSW,248,4.0,7.6,27,0.00,,FEW075,0.00,VWS V14.01,2013-04-24 17:16:00,
2013-04-24 10:17:00,56.3,22.8,29.84,SW,227,4.0,4.0,27,0.00,,FEW075,0.00,VWS V14.01,2013-04-24 17:17:00,
2013-04-24 10:18:00,56.3,22.8,29.84,SSW,195,4.5,4.5,27,0.00,,FEW075,0.00,VWS V14.01,2013-04-24 17:18:00,
2013-04-24 10:19:00,56.5,22.9,29.84,SSW,195,4.0,5.4,27,0.00,,FEW075,0.00,VWS V14.01,2013-04-24 17:19:00,
2013-04-24 10:20:00,57.2,23.5,29.84,SW,224,5.4,5.4,27,0.00,,FEW200,0.00,VWS V14.01,2013-04-24 17:20:00,
2013-04-24 10:21:00,56.7,23.1,29.84,West,264,8.7,10.5,27,0.00,,FEW075,0.00,VWS V14.01,2013-04-24 17:21:00,
2013-04-24 10:22:00,56.8,23.2,29.84,West,261,7.6,8.7,27,0.00,,FEW075,0.00,VWS V14.01,2013-04-24 17:22:00,
2013-04-24 10:23:00,56.8,23.2,29.84,West,276,7.2,7.6,27,0.00,,FEW075,0.00,VWS V14.01,2013-04-24 17:23:00,
2013-04-24 10:24:00,56.8,22.3,29.84,West,265,3.1,7.2,26,0.00,,FEW075,0.00,VWS V14.01,2013-04-24 17:24:00,
2013-04-24 10:25:00,57.2,23.5,29.84,WSW,249,4.9,6.3,27,0.00,,FEW200,0.00,VWS V14.01,2013-04-24 17:25:00,
2013-04-24 10:26:00,56.8,23.2,29.84,WSW,245,4.5,5.8,27,0.00,,FEW075,0.00,VWS V14.01,2013-04-24 17:26:00,
2013-04-24 10:27:00,56.8,23.2,29.84,SW,231,3.6,4.5,27,0.00,,FEW075,0.00,VWS V14.01,2013-04-24 17:27:00,
2013-04-24 10:28:00,56.8,23.2,29.84,SSW,205,4.9,4.9,27,0.00,,FEW075,0.00,VWS V14.01,2013-04-24 17:28:00,
2013-04-24 10:29:00,56.8,23.2,29.84,West,260,5.4,8.7,27,0.00,,FEW075,0.00,VWS V14.01,2013-04-24 17:29:00,
2013-04-24 10:30:00,57.4,22.8,29.84,West,272,7.6,7.6,26,0.00,,FEW200,0.00,VWS V14.01,2013-04-24 17:30:00,
2013-04-24 10:31:00,57.0,23.4,29.84,SW,217,5.8,6.7,27,0.00,,FEW075,0.00,VWS V14.01,2013-04-24 17:31:00,
2013-04-24 10:32:00,57.2,23.5,29.84,SW,224,4.0,7.2,27,0.00,,FEW075,0.00,VWS V14.01,2013-04-24 17:32:00,
2013-04-24 10:33:00,57.2,22.6,29.84,WSW,237,0.0,5.4,26,0.00,,FEW075,0.00,VWS V14.01,2013-04-24 17:33:00,
2013-04-24 10:34:00,57.2,22.6,29.84,WSW,237,0.0,2.2,26,0.00,,FEW075,0.00,VWS V14.01,2013-04-24 17:34:00,
2013-04-24 10:35:00,57.4,22.8,29.84,West,268,4.9,4.9,26,0.00,,FEW200,0.00,VWS V14.01,2013-04-24 17:35:00,
2013-04-24 10:36:00,57.0,23.4,29.84,WSW,243,5.4,7.6,27,0.00,,FEW075,0.00,VWS V14.01,2013-04-24 17:36:00,
2013-04-24 10:37:00,57.0,23.4,29.84,WSW,239,5.4,6.3,27,0.00,,FEW075,0.00,VWS V14.01,2013-04-24 17:37:00,
2013-04-24 10:38:00,57.2,23.5,29.84,West,271,5.8,6.3,27,0.00,,FEW075,0.00,VWS V14.01,2013-04-24 17:38:00,
2013-04-24 10:39:00,57.4,22.8,29.84,WSW,252,4.0,5.8,26,0.00,,FEW075,0.00,VWS V14.01,2013-04-24 17:39:00,
2013-04-24 10:40:00,56.5,22.0,29.84,NW,319,2.2,3.1,26,0.00,,FEW200,0.00,VWS V14.01,2013-04-24 17:40:00,
2013-04-24 10:41:00,57.6,23.0,29.84,WNW,285,3.1,8.1,26,0.00,,FEW075,0.00,VWS V14.01,2013-04-24 17:41:00,
2013-04-24 10:42:00,57.4,22.8,29.84,SW,230,5.4,5.8,26,0.00,,FEW075,0.00,VWS V14.01,2013-04-24 17:42:00,
2013-04-24 10:43:00,57.4,22.8,29.84,WSW,257,5.8,8.7,26,0.00,,FEW075,0.00,VWS V14.01,2013-04-24 17:43:00,
2013-04-24 10:44:00,57.4,22.8,29.84,West,271,4.0,5.8,26,0.00,,FEW075,0.00,VWS V14.01,2013-04-24 17:44:00,
2013-04-24 10:45:00,55.6,21.3,29.84,WNW,303,3.1,5.8,26,0.00,,FEW200,0.00,VWS V14.01,2013-04-24 17:45:00,
2013-04-24 10:46:00,57.4,22.8,29.84,WSW,248,5.8,7.6,26,0.00,,FEW075,0.00,VWS V14.01,2013-04-24 17:46:00,
2013-04-24 10:47:00,57.4,22.8,29.84,West,274,3.6,6.3,26,0.00,,FEW075,0.00,VWS V14.01,2013-04-24 17:47:00,
2013-04-24 10:48:00,57.2,21.7,29.84,NW,317,3.6,4.9,25,0.00,,FEW075,0.00,VWS V14.01,2013-04-24 17:48:00,
2013-04-24 10:49:00,57.2,22.6,29.84,NW,319,2.7,3.6,26,0.00,,FEW075,0.00,VWS V14.01,2013-04-24 17:49:00,
2013-04-24 10:50:00,55.2,21.0,29.84,NW,324,0.0,0.0,26,0.00,,FEW200,0.00,VWS V14.01,2013-04-24 17:50:00,
2013-04-24 10:51:00,56.8,22.3,29.84,NW,319,2.7,2.7,26,0.00,,FEW075,0.00,VWS V14.01,2013-04-24 17:51:00,
2013-04-24 10:52:00,56.5,22.0,29.84,NW,319,3.1,3.1,26,0.00,,FEW075,0.00,VWS V14.01,2013-04-24 17:52:00,
2013-04-24 10:53:00,56.5,22.0,29.84,NW,319,2.7,3.1,26,0.00,,FEW075,0.00,VWS V14.01,2013-04-24 17:53:00,
2013-04-24 10:54:00,56.1,21.7,29.84,NW,319,3.1,4.0,26,0.00,,FEW075,0.00,VWS V14.01,2013-04-24 17:54:00,
2013-04-24 10:55:00,55.9,21.6,29.84,West,266,0.0,2.2,26,0.00,,FEW200,0.00,VWS V14.01,2013-04-24 17:55:00,
2013-04-24 10:56:00,55.9,21.6,29.84,NW,325,3.1,3.1,26,0.00,,FEW075,0.00,VWS V14.01,2013-04-24 17:56:00,
2013-04-24 10:57:00,55.4,21.1,29.84,WNW,303,5.8,6.7,26,0.00,,FEW075,0.00,VWS V14.01,2013-04-24 17:57:00,
2013-04-24 10:58:00,55.6,21.3,29.84,NW,305,3.1,5.8,26,0.00,,FEW075,0.00,VWS V14.01,2013-04-24 17:58:00,
2013-04-24 10:59:00,55.6,21.3,29.84,NW,323,3.6,3.6,26,0.00,,FEW075,0.00,VWS V14.01,2013-04-24 17:59:00,
2013-04-24 11:00:00,56.5,22.0,29.84,West,268,2.7,2.7,26,0.00,,SCT200,0.00,VWS V14.01,2013-04-24 18:00:00,
2013-04-24 11:01:00,55.4,21.1,29.84,NW,324,0.0,4.0,26,0.00,,FEW075,0.00,VWS V14.01,2013-04-24 18:01:00,
2013-04-24 11:02:00,55.2,21.0,29.84,NW,324,0.0,2.2,26,0.00,,FEW075,0.00,VWS V14.01,2013-04-24 18:02:00,
2013-04-24 11:03:00,55.2,21.0,29.84,NW,324,0.0,2.7,26,0.00,,FEW075,0.00,VWS V14.01,2013-04-24 18:03:00,
2013-04-24 11:04:00,55.2,21.0,29.84,NW,324,0.0,0.0,26,0.00,,FEW075,0.00,VWS V14.01,2013-04-24 18:04:00,
2013-04-24 11:05:00,56.5,22.0,29.84,NNW,327,2.2,2.7,26,0.00,,SCT200,0.00,VWS V14.01,2013-04-24 18:05:00,
2013-04-24 11:06:00,55.8,22.3,29.84,WSW,253,3.6,5.4,27,0.00,,FEW075,0.00,VWS V14.01,2013-04-24 18:06:00,
2013-04-24 11:07:00,55.8,21.4,29.84,West,270,2.2,4.0,26,0.00,,FEW075,0.00,VWS V14.01,2013-04-24 18:07:00,
2013-04-24 11:08:00,56.1,21.7,29.84,West,266,2.7,2.7,26,0.00,,FEW075,0.00,VWS V14.01,2013-04-24 18:08:00,
2013-04-24 11:09:00,56.1,21.7,29.84,NW,319,3.1,5.8,26,0.00,,FEW075,0.00,VWS V14.01,2013-04-24 18:09:00,
2013-04-24 11:10:00,57.2,23.5,29.84,SSW,210,5.8,8.1,27,0.00,,SCT200,0.00,VWS V14.01,2013-04-24 18:10:00,
2013-04-24 11:11:00,56.3,21.9,29.84,WSW,248,3.6,4.9,26,0.00,,FEW075,0.00,VWS V14.01,2013-04-24 18:11:00,
2013-04-24 11:12:00,56.3,21.9,29.84,West,261,2.7,5.8,26,0.00,,FEW075,0.00,VWS V14.01,2013-04-24 18:12:00,
2013-04-24 11:13:00,56.5,22.0,29.84,West,268,4.9,5.4,26,0.00,,FEW075,0.00,VWS V14.01,2013-04-24 18:13:00,
2013-04-24 11:14:00,56.7,22.2,29.84,West,266,4.0,4.9,26,0.00,,FEW075,0.00,VWS V14.01,2013-04-24 18:14:00,
2013-04-24 11:15:00,58.3,23.6,29.84,West,261,4.0,4.9,26,0.00,,SCT200,0.00,VWS V14.01,2013-04-24 18:15:00,
2013-04-24 11:16:00,56.7,22.2,29.84,NNW,327,5.8,5.8,26,0.00,,FEW075,0.00,VWS V14.01,2013-04-24 18:16:00,
2013-04-24 11:17:00,56.5,22.0,29.84,NNW,327,2.7,5.8,26,0.00,,FEW075,0.00,VWS V14.01,2013-04-24 18:17:00,
2013-04-24 11:18:00,56.5,22.0,29.84,NNW,327,2.7,2.7,26,0.00,,FEW075,0.00,VWS V14.01,2013-04-24 18:18:00,
2013-04-24 11:19:00,56.3,21.9,29.84,WSW,238,4.9,6.3,26,0.00,,FEW075,0.00,VWS V14.01,2013-04-24 18:19:00,
2013-04-24 11:20:00,58.6,22.9,29.84,NNW,346,3.1,3.1,25,0.00,,SCT200,0.00,VWS V14.01,2013-04-24 18:20:00,
2013-04-24 11:21:00,56.8,23.2,29.84,WSW,252,7.6,7.6,27,0.00,,FEW075,0.00,VWS V14.01,2013-04-24 18:21:00,
2013-04-24 11:22:00,57.0,23.4,29.84,SW,235,8.1,8.1,27,0.00,,FEW075,0.00,VWS V14.01,2013-04-24 18:22:00,
2013-04-24 11:23:00,57.4,23.7,29.84,WSW,257,6.3,8.1,27,0.00,,FEW075,0.00,VWS V14.01,2013-04-24 18:23:00,
2013-04-24 11:24:00,57.7,23.1,29.84,WSW,240,4.0,6.3,26,0.00,,FEW075,0.00,VWS V14.01,2013-04-24 18:24:00,
2013-04-24 11:25:00,57.4,21.9,29.84,NNW,339,3.1,3.1,25,0.00,,SCT200,0.00,VWS V14.01,2013-04-24 18:25:00,
2013-04-24 11:26:00,58.1,24.3,29.84,WSW,240,8.1,8.1,27,0.00,,FEW075,0.00,VWS V14.01,2013-04-24 18:26:00,
2013-04-24 11:27:00,58.3,23.6,29.84,West,262,4.9,8.1,26,0.00,,FEW075,0.00,VWS V14.01,2013-04-24 18:27:00,
2013-04-24 11:28:00,58.5,23.7,29.84,West,266,5.4,5.4,26,0.00,,FEW075,0.00,VWS V14.01,2013-04-24 18:28:00,
2013-04-24 11:29:00,58.5,23.7,29.84,SW,236,5.4,5.8,26,0.00,,FEW075,0.00,VWS V14.01,2013-04-24 18:29:00,
2013-04-24 11:30:00,56.8,22.3,29.84,NNE,28,2.7,2.7,26,0.00,,SCT200,0.00,VWS V14.01,2013-04-24 18:30:00,
2013-04-24 11:31:00,58.8,24.0,29.84,WNW,298,8.7,8.7,26,0.00,,FEW075,0.00,VWS V14.01,2013-04-24 18:31:00,
2013-04-24 11:32:00,58.6,22.9,29.84,NNW,340,2.7,8.7,25,0.00,,FEW075,0.00,VWS V14.01,2013-04-24 18:32:00,
2013-04-24 11:33:00,58.6,23.9,29.84,NNW,328,4.0,4.0,26,0.00,,FEW075,0.00,VWS V14.01,2013-04-24 18:33:00,
2013-04-24 11:34:00,58.1,22.5,29.84,NNW,329,4.9,4.9,25,0.00,,FEW075,0.00,VWS V14.01,2013-04-24 18:34:00,
2013-04-24 11:35:00,57.2,22.6,29.84,NNE,25,2.7,5.4,26,0.00,,SCT200,0.00,VWS V14.01,2013-04-24 18:35:00,
2013-04-24 11:36:00,57.6,22.0,29.84,NNW,328,2.2,3.6,25,0.00,,FEW075,0.00,VWS V14.01,2013-04-24 18:36:00,
2013-04-24 11:37:00,57.4,21.9,29.84,NNW,340,2.7,3.1,25,0.00,,FEW075,0.00,VWS V14.01,2013-04-24 18:37:00,
2013-04-24 11:38:00,57.0,21.6,29.84,NW,325,4.0,5.4,25,0.00,,FEW075,0.00,VWS V14.01,2013-04-24 18:38:00,
2013-04-24 11:39:00,56.8,21.4,29.84,NW,323,2.2,4.0,25,0.00,,FEW075,0.00,VWS V14.01,2013-04-24 18:39:00,
2013-04-24 11:40:00,57.6,22.0,29.84,NNW,328,4.0,4.0,25,0.00,,SCT200,0.00,VWS V14.01,2013-04-24 18:40:00,
2013-04-24 11:41:00,56.8,21.4,29.84,NNW,340,3.6,3.6,25,0.00,,FEW075,0.00,VWS V14.01,2013-04-24 18:41:00,
2013-04-24 11:42:00,56.8,22.3,29.84,NNE,28,2.7,3.6,26,0.00,,FEW075,0.00,VWS V14.01,2013-04-24 18:42:00,
2013-04-24 11:43:00,56.8,22.3,29.84,NNE,21,5.8,5.8,26,0.00,,FEW075,0.00,VWS V14.01,2013-04-24 18:43:00,
2013-04-24 11:44:00,56.8,22.3,29.84,ENE,76,3.6,5.8,26,0.00,,FEW075,0.00,VWS V14.01,2013-04-24 18:44:00,
2013-04-24 11:45:00,57.7,22.2,29.84,WNW,303,3.6,5.8,25,0.00,,SCT200,0.00,VWS V14.01,2013-04-24 18:45:00,
2013-04-24 11:46:00,57.2,22.6,29.84,ENE,74,3.1,3.1,26,0.00,,FEW075,0.00,VWS V14.01,2013-04-24 18:46:00,
2013-04-24 11:47:00,57.2,22.6,29.84,NNE,25,2.7,5.4,26,0.00,,FEW075,0.00,VWS V14.01,2013-04-24 18:47:00,
2013-04-24 11:48:00,57.4,21.9,29.84,NNE,25,2.2,3.1,25,0.00,,FEW075,0.00,VWS V14.01,2013-04-24 18:48:00,
2013-04-24 11:49:00,57.6,22.0,29.84,NW,317,3.1,3.6,25,0.00,,FEW075,0.00,VWS V14.01,2013-04-24 18:49:00,
2013-04-24 11:50:00,57.7,22.2,29.84,SSW,208,4.9,4.9,25,0.00,,SCT200,0.00,VWS V14.01,2013-04-24 18:50:00,
2013-04-24 11:51:00,57.6,22.0,29.84,NNW,327,2.2,4.9,25,0.00,,FEW075,0.00,VWS V14.01,2013-04-24 18:51:00,
2013-04-24 11:52:00,57.6,22.0,29.84,NNW,328,4.0,4.0,25,0.00,,FEW075,0.00,VWS V14.01,2013-04-24 18:52:00,
2013-04-24 11:53:00,57.7,22.2,29.84,NNE,24,2.2,4.0,25,0.00,,FEW075,0.00,VWS V14.01,2013-04-24 18:53:00,
2013-04-24 11:54:00,57.7,22.2,29.84,NNE,20,2.7,4.0,25,0.00,,FEW075,0.00,VWS V14.01,2013-04-24 18:54:00,
2013-04-24 11:55:00,58.1,22.5,29.81,ENE,60,3.1,5.4,25,0.00,,SCT200,0.00,VWS V14.01,2013-04-24 18:55:00,
2013-04-24 11:56:00,57.7,22.2,29.84,WNW,292,2.7,4.0,25,0.00,,FEW075,0.00,VWS V14.01,2013-04-24 18:56:00,
2013-04-24 11:57:00,57.7,22.2,29.84,NNW,333,5.8,5.8,25,0.00,,FEW075,0.00,VWS V14.01,2013-04-24 18:57:00,
2013-04-24 11:58:00,57.7,22.2,29.84,NNW,328,4.0,5.8,25,0.00,,FEW075,0.00,VWS V14.01,2013-04-24 18:58:00,
2013-04-24 11:59:00,57.6,22.0,29.84,NNW,333,2.7,4.0,25,0.00,,FEW075,0.00,VWS V14.01,2013-04-24 18:59:00,
2013-04-24 12:00:00,58.3,22.6,29.81,East,86,2.7,2.7,25,0.00,,SCT200,0.00,VWS V14.01,2013-04-24 19:00:00,
2013-04-24 12:01:00,57.7,22.2,29.84,West,276,3.1,5.4,25,0.00,,FEW075,0.00,VWS V14.01,2013-04-24 19:01:00,
2013-04-24 12:02:00,57.7,22.2,29.84,SSW,210,4.0,6.3,25,0.00,,FEW075,0.00,VWS V14.01,2013-04-24 19:02:00,
2013-04-24 12:03:00,57.9,23.3,29.84,SW,230,2.7,4.9,26,0.00,,FEW075,0.00,VWS V14.01,2013-04-24 19:03:00,
2013-04-24 12:04:00,57.9,22.3,29.81,SW,220,0.0,3.1,25,0.00,,FEW075,0.00,VWS V14.01,2013-04-24 19:04:00,
2013-04-24 12:05:00,58.5,22.8,29.81,SE,136,7.6,7.6,25,0.00,,SCT200,0.00,VWS V14.01,2013-04-24 19:05:00,
2013-04-24 12:06:00,58.1,22.5,29.81,ESE,102,5.4,5.4,25,0.00,,FEW075,0.00,VWS V14.01,2013-04-24 19:06:00,
2013-04-24 12:07:00,58.1,22.5,29.81,ENE,71,5.4,5.4,25,0.00,,FEW075,0.00,VWS V14.01,2013-04-24 19:07:00,
2013-04-24 12:08:00,58.3,22.6,29.81,ENE,74,3.6,5.4,25,0.00,,FEW075,0.00,VWS V14.01,2013-04-24 19:08:00,
2013-04-24 12:09:00,58.3,22.6,29.81,NE,36,4.0,7.6,25,0.00,,FEW075,0.00,VWS V14.01,2013-04-24 19:09:00,
2013-04-24 12:10:00,59.4,23.6,29.81,West,259,3.1,3.1,25,0.00,,SCT200,0.00,VWS V14.01,2013-04-24 19:10:00,
2013-04-24 12:11:00,58.3,22.6,29.81,NNE,19,2.2,4.5,25,0.00,,FEW075,0.00,VWS V14.01,2013-04-24 19:11:00,
2013-04-24 12:12:00,58.3,22.6,29.81,East,86,2.7,2.7,25,0.00,,FEW075,0.00,VWS V14.01,2013-04-24 19:12:00,
2013-04-24 12:13:00,58.3,22.6,29.81,ENE,78,2.7,3.1,25,0.00,,FEW075,0.00,VWS V14.01,2013-04-24 19:13:00,
2013-04-24 12:14:00,58.3,22.6,29.81,NE,36,3.1,3.1,25,0.00,,FEW075,0.00,VWS V14.01,2013-04-24 19:14:00,
2013-04-24 12:15:00,59.9,24.0,29.81,West,262,8.3,8.3,25,0.00,,SCT200,0.00,VWS V14.01,2013-04-24 19:15:00,
2013-04-24 12:16:00,58.3,22.6,29.81,NNE,33,2.2,3.1,25,0.00,,FEW075,0.00,VWS V14.01,2013-04-24 19:16:00,
2013-04-24 12:17:00,58.5,22.8,29.81,SSE,152,3.1,3.1,25,0.00,,FEW075,0.00,VWS V14.01,2013-04-24 19:17:00,
2013-04-24 12:18:00,58.5,22.8,29.81,SSE,148,4.0,7.6,25,0.00,,FEW075,0.00,VWS V14.01,2013-04-24 19:18:00,
2013-04-24 12:19:00,58.6,23.9,29.81,SSW,213,8.1,8.1,26,0.00,,FEW075,0.00,VWS V14.01,2013-04-24 19:19:00,
2013-04-24 12:20:00,59.7,22.9,29.81,NW,320,3.6,3.6,24,0.00,,SCT200,0.00,VWS V14.01,2013-04-24 19:20:00,
2013-04-24 12:21:00,59.2,23.4,29.81,South,179,2.7,5.8,25,0.00,,FEW075,0.00,VWS V14.01,2013-04-24 19:21:00,
2013-04-24 12:22:00,59.4,23.6,29.81,West,259,3.1,3.1,25,0.00,,FEW075,0.00,VWS V14.01,2013-04-24 19:22:00,
2013-04-24 12:23:00,59.5,23.7,29.81,SSW,200,5.8,5.8,25,0.00,,FEW075,0.00,VWS V14.01,2013-04-24 19:23:00,
2013-04-24 12:24:00,59.5,23.7,29.81,WSW,237,6.3,6.3,25,0.00,,FEW075,0.00,VWS V14.01,2013-04-24 19:24:00,
2013-04-24 12:25:00,59.2,23.4,29.78,WSW,239,8.7,8.7,25,0.00,,SCT200,0.00,VWS V14.01,2013-04-24 19:25:00,
2013-04-24 12:26:00,59.9,24.0,29.81,West,276,5.4,5.8,25,0.00,,FEW075,0.00,VWS V14.01,2013-04-24 19:26:00,
2013-04-24 12:27:00,59.9,24.0,29.81,West,262,8.3,8.3,25,0.00,,FEW075,0.00,VWS V14.01,2013-04-24 19:27:00,
2013-04-24 12:28:00,59.9,23.0,29.81,WNW,292,2.2,8.3,24,0.00,,FEW075,0.00,VWS V14.01,2013-04-24 19:28:00,
2013-04-24 12:29:00,59.9,23.0,29.81,WNW,292,2.2,2.7,24,0.00,,FEW075,0.00,VWS V14.01,2013-04-24 19:29:00,
2013-04-24 12:30:00,59.9,24.0,29.78,SSW,213,3.1,5.8,25,0.00,,SCT200,0.00,VWS V14.01,2013-04-24 19:30:00,
2013-04-24 12:31:00,59.7,22.9,29.81,West,263,3.1,6.7,24,0.00,,FEW075,0.00,VWS V14.01,2013-04-24 19:31:00,
2013-04-24 12:32:00,59.7,22.9,29.81,NW,320,3.6,3.6,24,0.00,,FEW075,0.00,VWS V14.01,2013-04-24 19:32:00,
2013-04-24 12:33:00,59.5,22.7,29.81,WNW,287,2.7,3.6,24,0.00,,FEW075,0.00,VWS V14.01,2013-04-24 19:33:00,
2013-04-24 12:34:00,59.2,22.4,29.81,WNW,300,0.0,3.1,24,0.00,,FEW075,0.00,VWS V14.01,2013-04-24 19:34:00,
2013-04-24 12:35:00,60.6,24.6,29.78,SW,230,5.4,5.4,25,0.00,,SCT200,0.00,VWS V14.01,2013-04-24 19:35:00,
2013-04-24 12:36:00,59.2,22.4,29.78,SSW,207,2.2,2.7,24,0.00,,FEW075,0.00,VWS V14.01,2013-04-24 19:36:00,
2013-04-24 12:37:00,59.2,23.4,29.78,WSW,239,8.7,8.7,25,0.00,,FEW075,0.00,VWS V14.01,2013-04-24 19:37:00,
2013-04-24 12:38:00,59.2,23.4,29.78,SW,234,6.3,8.7,25,0.00,,FEW075,0.00,VWS V14.01,2013-04-24 19:38:00,
2013-04-24 12:39:00,59.4,23.6,29.78,SW,233,7.6,10.1,25,0.00,,FEW075,0.00,VWS V14.01,2013-04-24 19:39:00,
2013-04-24 12:40:00,60.8,23.8,29.78,West,273,4.0,4.0,24,0.00,,SCT200,0.00,VWS V14.01,2013-04-24 19:40:00,
2013-04-24 12:41:00,59.7,23.9,29.78,SSW,200,5.4,8.3,25,0.00,,FEW075,0.00,VWS V14.01,2013-04-24 19:41:00,
2013-04-24 12:42:00,59.9,24.0,29.78,SSW,213,3.1,5.8,25,0.00,,FEW075,0.00,VWS V14.01,2013-04-24 19:42:00,
2013-04-24 12:43:00,60.1,24.2,29.78,SW,225,5.8,5.8,25,0.00,,FEW075,0.00,VWS V14.01,2013-04-24 19:43:00,
2013-04-24 12:44:00,60.3,24.3,29.78,WSW,246,12.8,12.8,25,0.00,,FEW075,0.00,VWS V14.01,2013-04-24 19:44:00,
2013-04-24 12:45:00,60.8,23.8,29.78,SW,226,10.1,10.1,24,0.00,,SCT200,0.00,VWS V14.01,2013-04-24 19:45:00,
2013-04-24 12:46:00,60.6,24.6,29.78,SSW,207,3.6,6.3,25,0.00,,FEW075,0.00,VWS V14.01,2013-04-24 19:46:00,
2013-04-24 12:47:00,60.6,24.6,29.78,SW,230,5.4,6.3,25,0.00,,FEW075,0.00,VWS V14.01,2013-04-24 19:47:00,
2013-04-24 12:48:00,60.8,24.8,29.78,WSW,241,5.8,7.6,25,0.00,,FEW075,0.00,VWS V14.01,2013-04-24 19:48:00,
2013-04-24 12:49:00,60.8,23.8,29.78,WSW,237,5.4,8.1,24,0.00,,FEW075,0.00,VWS V14.01,2013-04-24 19:49:00,
2013-04-24 12:50:00,60.8,23.8,29.78,SSW,212,7.6,7.6,24,0.00,,SCT200,0.00,VWS V14.01,2013-04-24 19:50:00,
2013-04-24 12:51:00,61.0,24.0,29.78,WSW,252,3.1,3.1,24,0.00,,FEW075,0.00,VWS V14.01,2013-04-24 19:51:00,
2013-04-24 12:52:00,60.8,23.8,29.78,West,273,4.0,4.0,24,0.00,,FEW075,0.00,VWS V14.01,2013-04-24 19:52:00,
2013-04-24 12:53:00,60.8,23.8,29.78,West,267,5.4,7.6,24,0.00,,FEW075,0.00,VWS V14.01,2013-04-24 19:53:00,
2013-04-24 12:54:00,60.8,23.8,29.78,West,263,5.8,5.8,24,0.00,,FEW075,0.00,VWS V14.01,2013-04-24 19:54:00,
2013-04-24 12:55:00,61.2,24.1,29.78,WSW,238,8.1,8.7,24,0.00,,SCT200,0.00,VWS V14.01,2013-04-24 19:55:00,
2013-04-24 12:56:00,60.6,23.6,29.78,WSW,247,8.7,10.1,24,0.00,,FEW075,0.00,VWS V14.01,2013-04-24 19:56:00,
2013-04-24 12:57:00,60.8,23.8,29.78,SW,226,10.1,10.1,24,0.00,,FEW075,0.00,VWS V14.01,2013-04-24 19:57:00,
2013-04-24 12:58:00,60.8,23.8,29.78,SW,229,5.8,10.1,24,0.00,,FEW075,0.00,VWS V14.01,2013-04-24 19:58:00,
2013-04-24 12:59:00,60.8,23.8,29.78,SW,232,10.1,11.0,24,0.00,,FEW075,0.00,VWS V14.01,2013-04-24 19:59:00,
2013-04-24 13:00:00,61.5,24.4,29.78,West,275,8.1,13.2,24,0.00,,SCT200,0.00,VWS V14.01,2013-04-24 20:00:00,
2013-04-24 13:01:00,60.8,23.8,29.78,SW,230,6.3,12.8,24,0.00,,FEW075,0.00,VWS V14.01,2013-04-24 20:01:00,
2013-04-24 13:02:00,60.8,23.8,29.78,SSW,212,7.6,8.1,24,0.00,,FEW075,0.00,VWS V14.01,2013-04-24 20:02:00,
2013-04-24 13:03:00,61.0,24.0,29.78,SW,217,5.8,8.1,24,0.00,,FEW075,0.00,VWS V14.01,2013-04-24 20:03:00,
2013-04-24 13:04:00,61.0,24.0,29.78,SW,230,5.4,5.8,24,0.00,,FEW075,0.00,VWS V14.01,2013-04-24 20:04:00,
2013-04-24 13:05:00,61.2,24.1,29.78,WSW,253,7.6,7.6,24,0.00,,SCT200,0.00,VWS V14.01,2013-04-24 20:05:00,
2013-04-24 13:06:00,61.2,25.1,29.78,WSW,237,8.7,12.8,25,0.00,,FEW075,0.00,VWS V14.01,2013-04-24 20:06:00,
2013-04-24 13:07:00,61.2,24.1,29.78,SW,232,5.8,8.7,24,0.00,,FEW075,0.00,VWS V14.01,2013-04-24 20:07:00,
2013-04-24 13:08:00,61.3,24.3,29.78,SSW,209,10.5,10.5,24,0.00,,FEW075,0.00,VWS V14.01,2013-04-24 20:08:00,
2013-04-24 13:09:00,61.3,24.3,29.78,SW,216,9.2,10.5,24,0.00,,FEW075,0.00,VWS V14.01,2013-04-24 20:09:00,
2013-04-24 13:10:00,61.0,24.0,29.78,NW,313,0.0,8.1,24,0.00,,SCT200,0.00,VWS V14.01,2013-04-24 20:10:00,
2013-04-24 13:11:00,61.5,24.4,29.78,SW,226,8.3,10.1,24,0.00,,FEW075,0.00,VWS V14.01,2013-04-24 20:11:00,
2013-04-24 13:12:00,61.5,24.4,29.78,West,275,8.1,13.2,24,0.00,,FEW075,0.00,VWS V14.01,2013-04-24 20:12:00,
2013-04-24 13:13:00,61.3,24.3,29.78,West,272,5.8,8.1,24,0.00,,FEW075,0.00,VWS V14.01,2013-04-24 20:13:00,
2013-04-24 13:14:00,61.3,24.3,29.78,West,266,3.1,5.8,24,0.00,,FEW075,0.00,VWS V14.01,2013-04-24 20:14:00,
2013-04-24 13:15:00,60.4,23.5,29.78,NNW,332,3.6,7.6,24,0.00,,SCT200,0.00,VWS V14.01,2013-04-24 20:15:00,
2013-04-24 13:16:00,61.2,24.1,29.78,West,262,4.0,4.0,24,0.00,,FEW075,0.00,VWS V14.01,2013-04-24 20:16:00,
2013-04-24 13:17:00,61.2,24.1,29.78,West,272,6.7,7.6,24,0.00,,FEW075,0.00,VWS V14.01,2013-04-24 20:17:00,
2013-04-24 13:18:00,61.0,24.0,29.78,West,270,3.1,7.6,24,0.00,,FEW075,0.00,VWS V14.01,2013-04-24 20:18:00,
2013-04-24 13:19:00,61.0,24.0,29.78,West,275,8.3,8.3,24,0.00,,FEW075,0.00,VWS V14.01,2013-04-24 20:19:00,
2013-04-24 13:20:00,60.6,23.6,29.78,West,281,4.0,11.0,24,0.00,,SCT200,0.00,VWS V14.01,2013-04-24 20:20:00,
2013-04-24 13:21:00,61.0,24.0,29.78,West,277,5.4,9.6,24,0.00,,FEW075,0.00,VWS V14.01,2013-04-24 20:21:00,
2013-04-24 13:22:00,61.0,24.0,29.78,NW,313,0.0,8.1,24,0.00,,FEW075,0.00,VWS V14.01,2013-04-24 20:22:00,
2013-04-24 13:23:00,60.8,20.6,29.78,NNW,335,4.0,4.0,21,0.00,,FEW075,0.00,VWS V14.01,2013-04-24 20:23:00,
2013-04-24 13:24:00,60.6,21.6,29.78,NNW,340,2.7,4.9,22,0.00,,FEW075,0.00,VWS V14.01,2013-04-24 20:24:00,
2013-04-24 13:25:00,61.0,24.0,29.75,WSW,246,10.5,11.0,24,0.00,,SCT200,0.00,VWS V14.01,2013-04-24 20:25:00,
2013-04-24 13:26:00,60.4,23.5,29.78,West,267,7.6,7.6,24,0.00,,FEW075,0.00,VWS V14.01,2013-04-24 20:26:00,
2013-04-24 13:27:00,60.4,23.5,29.78,NNW,332,3.6,7.6,24,0.00,,FEW075,0.00,VWS V14.01,2013-04-24 20:27:00,
2013-04-24 13:28:00,60.4,21.4,29.78,WNW,283,3.1,3.6,22,0.00,,FEW075,0.00,VWS V14.01,2013-04-24 20:28:00,
2013-04-24 13:29:00,60.3,21.3,29.78,WNW,292,4.9,7.6,22,0.00,,FEW075,0.00,VWS V14.01,2013-04-24 20:29:00,
2013-04-24 13:30:00,61.0,24.0,29.75,WSW,249,5.4,7.6,24,0.00,,SCT200,0.00,VWS V14.01,2013-04-24 20:30:00,
2013-04-24 13:31:00,60.4,23.5,29.78,West,277,11.0,11.0,24,0.00,,FEW075,0.00,VWS V14.01,2013-04-24 20:31:00,
2013-04-24 13:32:00,60.6,23.6,29.78,West,281,2.2,11.0,24,0.00,,FEW075,0.00,VWS V14.01,2013-04-24 20:32:00,
2013-04-24 13:33:00,60.6,23.6,29.78,West,265,7.6,7.6,24,0.00,,FEW075,0.00,VWS V14.01,2013-04-24 20:33:00,
2013-04-24 13:34:00,60.6,23.6,29.75,West,272,3.6,8.1,24,0.00,,FEW075,0.00,VWS V14.01,2013-04-24 20:34:00,
2013-04-24 13:35:00,61.0,24.0,29.75,West,261,4.9,7.6,24,0.00,,SCT200,0.00,VWS V14.01,2013-04-24 20:35:00,
2013-04-24 13:36:00,60.8,23.8,29.75,WSW,239,10.1,10.1,24,0.00,,FEW075,0.00,VWS V14.01,2013-04-24 20:36:00,
2013-04-24 13:37:00,61.0,24.0,29.75,West,264,8.1,11.0,24,0.00,,FEW075,0.00,VWS V14.01,2013-04-24 20:37:00,
2013-04-24 13:38:00,61.0,24.0,29.75,SW,231,10.5,11.0,24,0.00,,FEW075,0.00,VWS V14.01,2013-04-24 20:38:00,
2013-04-24 13:39:00,61.2,24.1,29.75,WNW,285,7.6,11.0,24,0.00,,FEW075,0.00,VWS V14.01,2013-04-24 20:39:00,
2013-04-24 13:40:00,60.6,21.6,29.75,NNW,329,5.4,6.3,22,0.00,,SCT200,0.00,VWS V14.01,2013-04-24 20:40:00,
2013-04-24 13:41:00,61.2,24.1,29.75,WSW,248,7.6,8.7,24,0.00,,FEW075,0.00,VWS V14.01,2013-04-24 20:41:00,
2013-04-24 13:42:00,61.0,24.0,29.75,West,280,5.4,7.6,24,0.00,,FEW075,0.00,VWS V14.01,2013-04-24 20:42:00,
2013-04-24 13:43:00,61.0,24.0,29.75,West,277,8.7,8.7,24,0.00,,FEW075,0.00,VWS V14.01,2013-04-24 20:43:00,
2013-04-24 13:44:00,61.0,24.0,29.75,West,265,7.6,13.2,24,0.00,,FEW075,0.00,VWS V14.01,2013-04-24 20:44:00,
2013-04-24 13:45:00,60.8,23.8,29.75,SW,236,5.8,8.7,24,0.00,,SCT200,0.00,VWS V14.01,2013-04-24 20:45:00,
2013-04-24 13:46:00,61.0,24.0,29.75,West,260,6.3,8.1,24,0.00,,FEW075,0.00,VWS V14.01,2013-04-24 20:46:00,
2013-04-24 13:47:00,61.0,24.0,29.75,West,266,2.7,7.6,24,0.00,,FEW075,0.00,VWS V14.01,2013-04-24 20:47:00,
2013-04-24 13:48:00,60.8,20.6,29.75,NNW,336,8.1,8.1,21,0.00,,FEW075,0.00,VWS V14.01,2013-04-24 20:48:00,
2013-04-24 13:49:00,60.6,21.6,29.75,West,279,4.0,8.1,22,0.00,,FEW075,0.00,VWS V14.01,2013-04-24 20:49:00,
2013-04-24 13:50:00,61.0,20.8,29.75,NNW,329,2.7,5.4,21,0.00,,SCT200,0.00,VWS V14.01,2013-04-24 20:50:00,
2013-04-24 13:51:00,60.6,21.6,29.75,SW,235,3.6,4.0,22,0.00,,FEW075,0.00,VWS V14.01,2013-04-24 20:51:00,
2013-04-24 13:52:00,60.6,21.6,29.75,NW,315,5.4,6.3,22,0.00,,FEW075,0.00,VWS V14.01,2013-04-24 20:52:00,
2013-04-24 13:53:00,60.6,21.6,29.75,NW,314,4.0,5.4,22,0.00,,FEW075,0.00,VWS V14.01,2013-04-24 20:53:00,
2013-04-24 13:54:00,60.8,20.6,29.75,NW,321,5.4,5.8,21,0.00,,FEW075,0.00,VWS V14.01,2013-04-24 20:54:00,
2013-04-24 13:55:00,60.8,23.8,29.75,West,277,4.9,8.3,24,0.00,,SCT200,0.00,VWS V14.01,2013-04-24 20:55:00,
2013-04-24 13:56:00,60.8,23.8,29.75,WSW,244,8.1,8.7,24,0.00,,FEW075,0.00,VWS V14.01,2013-04-24 20:56:00,
2013-04-24 13:57:00,60.8,23.8,29.75,WSW,239,3.6,8.7,24,0.00,,FEW075,0.00,VWS V14.01,2013-04-24 20:57:00,
2013-04-24 13:58:00,60.8,23.8,29.75,West,261,7.6,7.6,24,0.00,,FEW075,0.00,VWS V14.01,2013-04-24 20:58:00,
2013-04-24 13:59:00,61.0,24.0,29.75,West,262,5.8,12.8,24,0.00,,FEW075,0.00,VWS V14.01,2013-04-24 20:59:00,
2013-04-24 14:00:00,60.6,23.6,29.75,WSW,253,3.1,7.6,24,0.00,,BKN200,0.00,VWS V14.01,2013-04-24 21:00:00,
2013-04-24 14:01:00,61.0,24.0,29.75,WNW,292,5.4,8.1,24,0.00,,FEW075,0.00,VWS V14.01,2013-04-24 21:01:00,
2013-04-24 14:02:00,61.0,20.8,29.75,NNW,329,2.7,5.4,21,0.00,,FEW075,0.00,VWS V14.01,2013-04-24 21:02:00,
2013-04-24 14:03:00,60.8,20.6,29.75,North,350,2.7,3.6,21,0.00,,FEW075,0.00,VWS V14.01,2013-04-24 21:03:00,
2013-04-24 14:04:00,60.8,20.6,29.75,West,268,3.1,4.9,21,0.00,,FEW075,0.00,VWS V14.01,2013-04-24 21:04:00,
2013-04-24 14:05:00,60.8,23.8,29.75,WSW,258,5.4,6.3,24,0.00,,BKN200,0.00,VWS V14.01,2013-04-24 21:05:00,
2013-04-24 14:06:00,60.8,23.8,29.75,West,277,8.3,13.6,24,0.00,,FEW075,0.00,VWS V14.01,2013-04-24 21:06:00,
2013-04-24 14:07:00,60.8,23.8,29.75,West,277,4.9,8.3,24,0.00,,FEW075,0.00,VWS V14.01,2013-04-24 21:07:00,
2013-04-24 14:08:00,60.8,23.8,29.75,NW,315,4.9,8.3,24,0.00,,FEW075,0.00,VWS V14.01,2013-04-24 21:08:00,
2013-04-24 14:09:00,60.6,21.6,29.75,NW,314,4.9,5.4,22,0.00,,FEW075,0.00,VWS V14.01,2013-04-24 21:09:00,
2013-04-24 14:10:00,61.2,20.9,29.75,West,264,11.0,12.3,21,0.00,,BKN200,0.00,VWS V14.01,2013-04-24 21:10:00,
2013-04-24 14:11:00,60.6,23.6,29.75,WSW,249,5.4,10.5,24,0.00,,FEW075,0.00,VWS V14.01,2013-04-24 21:11:00,
2013-04-24 14:12:00,60.6,23.6,29.75,West,261,5.4,7.6,24,0.00,,FEW075,0.00,VWS V14.01,2013-04-24 21:12:00,
2013-04-24 14:13:00,60.6,23.6,29.75,West,271,5.8,8.3,24,0.00,,FEW075,0.00,VWS V14.01,2013-04-24 21:13:00,
2013-04-24 14:14:00,60.6,21.6,29.75,WNW,294,4.0,7.6,22,0.00,,FEW075,0.00,VWS V14.01,2013-04-24 21:14:00,
2013-04-24 14:15:00,61.3,21.1,29.75,West,275,12.8,12.8,21,0.00,,BKN200,0.00,VWS V14.01,2013-04-24 21:15:00,
2013-04-24 14:16:00,60.8,23.8,29.75,WSW,247,6.3,6.3,24,0.00,,FEW075,0.00,VWS V14.01,2013-04-24 21:16:00,
2013-04-24 14:17:00,60.8,23.8,29.75,WSW,258,5.4,6.3,24,0.00,,FEW075,0.00,VWS V14.01,2013-04-24 21:17:00,
2013-04-24 14:18:00,60.8,23.8,29.75,SW,232,4.9,7.6,24,0.00,,FEW075,0.00,VWS V14.01,2013-04-24 21:18:00,
2013-04-24 14:19:00,61.0,24.0,29.75,WSW,246,9.2,9.2,24,0.00,,FEW075,0.00,VWS V14.01,2013-04-24 21:19:00,
2013-04-24 14:20:00,61.2,20.9,29.75,WSW,251,6.3,6.7,21,0.00,,BKN200,0.00,VWS V14.01,2013-04-24 21:20:00,
2013-04-24 14:21:00,61.0,24.0,29.75,West,269,8.1,12.3,24,0.00,,FEW075,0.00,VWS V14.01,2013-04-24 21:21:00,
2013-04-24 14:22:00,61.2,20.9,29.75,West,265,12.3,12.3,21,0.00,,FEW075,0.00,VWS V14.01,2013-04-24 21:22:00,
2013-04-24 14:23:00,61.2,20.9,29.75,West,278,5.8,12.3,21,0.00,,FEW075,0.00,VWS V14.01,2013-04-24 21:23:00,
2013-04-24 14:24:00,61.2,24.1,29.75,WNW,291,4.9,8.1,24,0.00,,FEW075,0.00,VWS V14.01,2013-04-24 21:24:00,
2013-04-24 14:25:00,61.0,20.8,29.75,WNW,293,6.3,6.3,21,0.00,,BKN200,0.00,VWS V14.01,2013-04-24 21:25:00,
2013-04-24 14:26:00,61.3,21.1,29.75,West,265,12.3,12.3,21,0.00,,FEW075,0.00,VWS V14.01,2013-04-24 21:26:00,
2013-04-24 14:27:00,61.3,21.1,29.75,WNW,301,6.3,12.8,21,0.00,,FEW075,0.00,VWS V14.01,2013-04-24 21:27:00,
2013-04-24 14:28:00,61.3,21.1,29.75,WNW,301,3.6,6.3,21,0.00,,FEW075,0.00,VWS V14.01,2013-04-24 21:28:00,
2013-04-24 14:29:00,61.3,21.1,29.75,West,272,4.0,4.0,21,0.00,,FEW075,0.00,VWS V14.01,2013-04-24 21:29:00,
2013-04-24 14:30:00,61.0,20.8,29.75,West,274,5.8,5.8,21,0.00,,BKN200,0.00,VWS V14.01,2013-04-24 21:30:00,
2013-04-24 14:31:00,61.2,20.9,29.75,West,261,6.3,6.3,21,0.00,,FEW075,0.00,VWS V14.01,2013-04-24 21:31:00,
2013-04-24 14:32:00,61.2,20.9,29.75,West,274,7.6,7.6,21,0.00,,FEW075,0.00,VWS V14.01,2013-04-24 21:32:00,
2013-04-24 14:33:00,61.0,20.8,29.75,NW,308,6.3,7.6,21,0.00,,FEW075,0.00,VWS V14.01,2013-04-24 21:33:00,
2013-04-24 14:34:00,61.0,20.8,29.75,West,280,3.1,6.3,21,0.00,,FEW075,0.00,VWS V14.01,2013-04-24 21:34:00,
2013-04-24 14:35:00,61.2,20.9,29.75,West,269,9.6,9.6,21,0.00,,BKN200,0.00,VWS V14.01,2013-04-24 21:35:00,
2013-04-24 14:36:00,61.0,20.8,29.75,NW,323,5.4,5.8,21,0.00,,FEW075,0.00,VWS V14.01,2013-04-24 21:36:00,
2013-04-24 14:37:00,61.0,20.8,29.75,WNW,290,4.9,6.3,21,0.00,,FEW075,0.00,VWS V14.01,2013-04-24 21:37:00,
2013-04-24 14:38:00,61.0,20.8,29.75,NNW,336,5.4,5.4,21,0.00,,FEW075,0.00,VWS V14.01,2013-04-24 21:38:00,
2013-04-24 14:39:00,61.0,20.8,29.75,West,270,5.8,6.3,21,0.00,,FEW075,0.00,VWS V14.01,2013-04-24 21:39:00,
2013-04-24 14:40:00,61.5,21.2,29.75,West,271,8.1,8.1,21,0.00,,BKN200,0.00,VWS V14.01,2013-04-24 21:40:00,
2013-04-24 14:41:00,60.8,20.6,29.75,WNW,301,3.1,5.4,21,0.00,,FEW075,0.00,VWS V14.01,2013-04-24 21:41:00,
2013-04-24 14:42:00,60.8,20.6,29.75,West,280,3.6,5.8,21,0.00,,FEW075,0.00,VWS V14.01,2013-04-24 21:42:00,
2013-04-24 14:43:00,61.0,20.8,29.75,NW,325,3.6,3.6,21,0.00,,FEW075,0.00,VWS V14.01,2013-04-24 21:43:00,
2013-04-24 14:44:00,61.0,20.8,29.75,West,273,8.1,8.1,21,0.00,,FEW075,0.00,VWS V14.01,2013-04-24 21:44:00,
2013-04-24 14:45:00,61.7,21.4,29.75,West,267,4.0,4.0,21,0.00,,BKN200,0.00,VWS V14.01,2013-04-24 21:45:00,
2013-04-24 14:46:00,61.2,20.9,29.75,SW,233,8.1,10.5,21,0.00,,FEW075,0.00,VWS V14.01,2013-04-24 21:46:00,
2013-04-24 14:47:00,61.2,20.9,29.75,West,265,12.8,12.8,21,0.00,,FEW075,0.00,VWS V14.01,2013-04-24 21:47:00,
2013-04-24 14:48:00,61.2,20.9,29.75,NW,325,4.0,12.8,21,0.00,,FEW075,0.00,VWS V14.01,2013-04-24 21:48:00,
2013-04-24 14:49:00,61.3,21.1,29.75,WNW,297,5.4,8.3,21,0.00,,FEW075,0.00,VWS V14.01,2013-04-24 21:49:00,
2013-04-24 14:50:00,61.7,21.4,29.75,WSW,251,7.6,8.3,21,0.00,,BKN200,0.00,VWS V14.01,2013-04-24 21:50:00,
2013-04-24 14:51:00,61.5,21.2,29.75,West,277,8.1,11.0,21,0.00,,FEW075,0.00,VWS V14.01,2013-04-24 21:51:00,
2013-04-24 14:52:00,61.7,21.4,29.75,West,272,5.8,8.1,21,0.00,,FEW075,0.00,VWS V14.01,2013-04-24 21:52:00,
2013-04-24 14:53:00,61.7,21.4,29.75,WNW,283,6.3,6.3,21,0.00,,FEW075,0.00,VWS V14.01,2013-04-24 21:53:00,
2013-04-24 14:54:00,61.7,21.4,29.75,SSW,202,3.6,6.3,21,0.00,,FEW075,0.00,VWS V14.01,2013-04-24 21:54:00,
2013-04-24 14:55:00,62.1,21.7,29.72,West,266,5.8,6.7,21,0.00,,BKN200,0.00,VWS V14.01,2013-04-24 21:55:00,
2013-04-24 14:56:00,61.7,21.4,29.75,West,270,3.6,4.9,21,0.00,,FEW075,0.00,VWS V14.01,2013-04-24 21:56:00,
2013-04-24 14:57:00,61.7,21.4,29.75,West,278,8.1,8.1,21,0.00,,FEW075,0.00,VWS V14.01,2013-04-24 21:57:00,
2013-04-24 14:58:00,61.7,21.4,29.75,West,281,3.1,10.1,21,0.00,,FEW075,0.00,VWS V14.01,2013-04-24 21:58:00,
2013-04-24 14:59:00,61.7,21.4,29.75,West,272,4.9,5.8,21,0.00,,FEW075,0.00,VWS V14.01,2013-04-24 21:59:00,
2013-04-24 15:00:00,62.4,22.0,29.72,West,269,8.3,9.6,21,0.00,,BKN200,0.00,VWS V14.01,2013-04-24 22:00:00,
2013-04-24 15:01:00,61.7,21.4,29.75,SW,236,6.7,8.3,21,0.00,,FEW075,0.00,VWS V14.01,2013-04-24 22:01:00,
2013-04-24 15:02:00,61.7,21.4,29.75,SW,222,6.3,8.3,21,0.00,,FEW075,0.00,VWS V14.01,2013-04-24 22:02:00,
2013-04-24 15:03:00,61.9,21.5,29.75,WSW,250,9.2,10.1,21,0.00,,FEW075,0.00,VWS V14.01,2013-04-24 22:03:00,
2013-04-24 15:04:00,61.9,21.5,29.72,West,273,7.6,10.5,21,0.00,,FEW075,0.00,VWS V14.01,2013-04-24 22:04:00,
2013-04-24 15:05:00,62.6,22.1,29.72,West,262,10.1,13.6,21,0.00,,BKN200,0.00,VWS V14.01,2013-04-24 22:05:00,
2013-04-24 15:06:00,62.1,21.7,29.72,West,279,6.7,10.5,21,0.00,,FEW075,0.00,VWS V14.01,2013-04-24 22:06:00,
2013-04-24 15:07:00,62.1,21.7,29.72,WSW,245,8.1,8.3,21,0.00,,FEW075,0.00,VWS V14.01,2013-04-24 22:07:00,
2013-04-24 15:08:00,62.2,21.8,29.72,SW,234,8.7,10.5,21,0.00,,FEW075,0.00,VWS V14.01,2013-04-24 22:08:00,
2013-04-24 15:09:00,62.2,21.8,29.72,West,262,8.7,8.7,21,0.00,,FEW075,0.00,VWS V14.01,2013-04-24 22:09:00,
2013-04-24 15:10:00,62.6,22.1,29.72,West,276,8.3,8.3,21,0.00,,BKN200,0.00,VWS V14.01,2013-04-24 22:10:00,
2013-04-24 15:11:00,62.4,22.0,29.72,WSW,237,9.6,9.6,21,0.00,,FEW075,0.00,VWS V14.01,2013-04-24 22:11:00,
2013-04-24 15:12:00,62.4,22.0,29.72,West,261,6.3,9.6,21,0.00,,FEW075,0.00,VWS V14.01,2013-04-24 22:12:00,
2013-04-24 15:13:00,62.4,22.0,29.72,West,264,5.8,7.2,21,0.00,,FEW075,0.00,VWS V14.01,2013-04-24 22:13:00,
2013-04-24 15:14:00,62.4,22.0,29.72,West,280,8.7,8.7,21,0.00,,FEW075,0.00,VWS V14.01,2013-04-24 22:14:00,
2013-04-24 15:15:00,62.4,22.0,29.72,WSW,252,6.3,7.6,21,0.00,,BKN200,0.00,VWS V14.01,2013-04-24 22:15:00,
2013-04-24 15:16:00,62.6,22.1,29.72,WSW,251,13.6,13.6,21,0.00,,FEW075,0.00,VWS V14.01,2013-04-24 22:16:00,
2013-04-24 15:17:00,62.6,22.1,29.72,WSW,254,8.1,13.6,21,0.00,,FEW075,0.00,VWS V14.01,2013-04-24 22:17:00,
2013-04-24 15:18:00,62.6,22.1,29.72,WSW,245,14.1,14.1,21,0.00,,FEW075,0.00,VWS V14.01,2013-04-24 22:18:00,
2013-04-24 15:19:00,62.6,22.1,29.72,West,275,10.1,14.1,21,0.00,,FEW075,0.00,VWS V14.01,2013-04-24 22:19:00,
2013-04-24 15:20:00,62.6,22.1,29.72,West,277,4.9,8.3,21,0.00,,BKN200,0.00,VWS V14.01,2013-04-24 22:20:00,
2013-04-24 15:21:00,62.6,22.1,29.72,West,265,8.3,10.5,21,0.00,,FEW075,0.00,VWS V14.01,2013-04-24 22:21:00,
2013-04-24 15:22:00,62.6,22.1,29.72,WNW,282,3.1,8.3,21,0.00,,FEW075,0.00,VWS V14.01,2013-04-24 22:22:00,
2013-04-24 15:23:00,62.6,22.1,29.72,West,273,4.0,8.7,21,0.00,,FEW075,0.00,VWS V14.01,2013-04-24 22:23:00,
2013-04-24 15:24:00,62.6,22.1,29.72,West,271,5.4,10.5,21,0.00,,FEW075,0.00,VWS V14.01,2013-04-24 22:24:00,
2013-04-24 15:25:00,62.6,22.1,29.72,West,262,9.6,13.2,21,0.00,,BKN200,0.00,VWS V14.01,2013-04-24 22:25:00,
2013-04-24 15:26:00,62.4,22.0,29.72,West,274,7.6,8.1,21,0.00,,FEW075,0.00,VWS V14.01,2013-04-24 22:26:00,
2013-04-24 15:27:00,62.4,22.0,29.72,WNW,292,6.3,7.6,21,0.00,,FEW075,0.00,VWS V14.01,2013-04-24 22:27:00,
2013-04-24 15:28:00,62.4,22.0,29.72,West,259,3.6,6.3,21,0.00,,FEW075,0.00,VWS V14.01,2013-04-24 22:28:00,
2013-04-24 15:29:00,62.6,22.1,29.72,WSW,253,12.8,12.8,21,0.00,,FEW075,0.00,VWS V14.01,2013-04-24 22:29:00,
2013-04-24 15:30:00,62.6,22.1,29.72,SW,232,14.1,14.1,21,0.00,,BKN200,0.00,VWS V14.01,2013-04-24 22:30:00,
2013-04-24 15:31:00,62.6,22.1,29.72,WNW,286,6.3,8.7,21,0.00,,FEW075,0.00,VWS V14.01,2013-04-24 22:31:00,
2013-04-24 15:32:00,62.6,22.1,29.72,SW,232,8.3,8.3,21,0.00,,FEW075,0.00,VWS V14.01,2013-04-24 22:32:00,
2013-04-24 15:33:00,62.6,22.1,29.72,West,260,3.1,8.3,21,0.00,,FEW075,0.00,VWS V14.01,2013-04-24 22:33:00,
2013-04-24 15:34:00,62.8,22.3,29.72,West,274,4.9,4.9,21,0.00,,FEW075,0.00,VWS V14.01,2013-04-24 22:34:00,
2013-04-24 15:35:00,62.4,22.0,29.72,NW,319,8.3,8.3,21,0.00,,BKN200,0.00,VWS V14.01,2013-04-24 22:35:00,
2013-04-24 15:36:00,62.6,22.1,29.72,WSW,257,6.3,10.1,21,0.00,,FEW075,0.00,VWS V14.01,2013-04-24 22:36:00,
2013-04-24 15:37:00,62.6,22.1,29.72,West,271,13.2,13.6,21,0.00,,FEW075,0.00,VWS V14.01,2013-04-24 22:37:00,
2013-04-24 15:38:00,62.6,22.1,29.72,SW,232,7.6,13.2,21,0.00,,FEW075,0.00,VWS V14.01,2013-04-24 22:38:00,
2013-04-24 15:39:00,62.6,22.1,29.72,WSW,255,7.6,8.3,21,0.00,,FEW075,0.00,VWS V14.01,2013-04-24 22:39:00,
2013-04-24 15:40:00,62.2,21.9,29.69,West,269,6.3,6.3,21,0.00,,BKN200,0.00,VWS V14.01,2013-04-24 22:40:00,
2013-04-24 15:41:00,62.6,22.1,29.72,WSW,246,8.3,10.1,21,0.00,,FEW075,0.00,VWS V14.01,2013-04-24 22:41:00,
2013-04-24 15:42:00,62.6,22.1,29.72,SW,228,8.7,10.1,21,0.00,,FEW075,0.00,VWS V14.01,2013-04-24 22:42:00,
2013-04-24 15:43:00,62.6,22.1,29.72,WSW,257,8.3,14.1,21,0.00,,FEW075,0.00,VWS V14.01,2013-04-24 22:43:00,
2013-04-24 15:44:00,62.6,22.1,29.72,WNW,302,5.4,8.3,21,0.00,,FEW075,0.00,VWS V14.01,2013-04-24 22:44:00,
2013-04-24 15:45:00,62.2,21.9,29.69,SW,231,8.1,9.2,21,0.00,,BKN200,0.00,VWS V14.01,2013-04-24 22:45:00,
2013-04-24 15:46:00,62.6,22.1,29.72,WNW,283,3.6,5.8,21,0.00,,FEW075,0.00,VWS V14.01,2013-04-24 22:46:00,
2013-04-24 15:47:00,62.4,22.0,29.72,NW,324,3.1,5.4,21,0.00,,FEW075,0.00,VWS V14.01,2013-04-24 22:47:00,
2013-04-24 15:48:00,62.4,22.0,29.72,NW,323,3.6,8.3,21,0.00,,FEW075,0.00,VWS V14.01,2013-04-24 22:48:00,
2013-04-24 15:49:00,61.9,21.5,29.69,West,267,4.0,6.3,21,0.00,,BKN200,0.00,VWS V14.01,2013-04-24 22:49:00,
2013-04-24 15:50:00,62.2,21.8,29.69,WNW,284,3.6,4.0,21,0.00,,FEW075,0.00,VWS V14.01,2013-04-24 22:50:00,
2013-04-24 15:51:00,62.2,21.8,29.69,WSW,238,3.1,3.6,21,0.00,,FEW075,0.00,VWS V14.01,2013-04-24 22:51:00,
2013-04-24 15:52:00,62.2,21.8,29.69,West,272,3.6,7.6,21,0.00,,FEW075,0.00,VWS V14.01,2013-04-24 22:52:00,
2013-04-24 15:53:00,62.2,21.8,29.69,West,263,6.3,6.3,21,0.00,,FEW075,0.00,VWS V14.01,2013-04-24 22:53:00,
2013-04-24 15:54:00,61.7,21.4,29.69,WSW,252,7.6,8.1,21,0.00,,BKN200,0.00,VWS V14.01,2013-04-24 22:54:00,
2013-04-24 15:55:00,62.4,22.0,29.69,WSW,239,10.1,10.1,21,0.00,,FEW075,0.00,VWS V14.01,2013-04-24 22:55:00,
2013-04-24 15:56:00,62.4,22.0,29.69,WSW,239,11.0,11.0,21,0.00,,FEW075,0.00,VWS V14.01,2013-04-24 22:56:00,
2013-04-24 15:57:00,62.2,21.8,29.69,WSW,249,9.2,11.0,21,0.00,,FEW075,0.00,VWS V14.01,2013-04-24 22:57:00,
2013-04-24 15:58:00,62.2,21.8,29.69,WSW,247,5.8,9.2,21,0.00,,FEW075,0.00,VWS V14.01,2013-04-24 22:58:00,
2013-04-24 15:59:00,61.5,21.2,29.69,SW,226,7.6,8.7,21,0.00,,BKN200,0.00,VWS V14.01,2013-04-24 22:59:00,
2013-04-24 16:00:00,62.1,21.7,29.69,WSW,248,7.6,11.0,21,0.00,,FEW075,0.00,VWS V14.01,2013-04-24 23:00:00,
2013-04-24 16:01:00,61.9,21.5,29.69,WSW,239,10.5,11.9,21,0.00,,FEW075,0.00,VWS V14.01,2013-04-24 23:01:00,
2013-04-24 16:02:00,61.9,21.5,29.69,West,271,6.3,10.5,21,0.00,,FEW075,0.00,VWS V14.01,2013-04-24 23:02:00,
2013-04-24 16:03:00,61.7,21.4,29.69,WSW,256,5.4,6.3,21,0.00,,FEW075,0.00,VWS V14.01,2013-04-24 23:03:00,
2013-04-24 16:04:00,61.9,21.5,29.69,West,281,4.9,8.3,21,0.00,,BKN200,0.00,VWS V14.01,2013-04-24 23:04:00,
2013-04-24 16:05:00,61.7,21.4,29.69,West,259,5.4,5.4,21,0.00,,FEW075,0.00,VWS V14.01,2013-04-24 23:05:00,
2013-04-24 16:06:00,61.7,21.4,29.69,South,184,4.0,5.8,21,0.00,,FEW075,0.00,VWS V14.01,2013-04-24 23:06:00,
2013-04-24 16:07:00,61.7,21.4,29.69,SSW,213,8.1,8.1,21,0.00,,FEW075,0.00,VWS V14.01,2013-04-24 23:07:00,
2013-04-24 16:08:00,61.7,21.4,29.69,SSW,207,6.3,8.3,21,0.00,,FEW075,0.00,VWS V14.01,2013-04-24 23:08:00,
2013-04-24 16:09:00,62.1,21.7,29.69,West,273,6.3,7.2,21,0.00,,BKN200,0.00,VWS V14.01,2013-04-24 23:09:00,
2013-04-24 16:10:00,61.7,21.4,29.69,SSW,207,5.4,8.3,21,0.00,,FEW075,0.00,VWS V14.01,2013-04-24 23:10:00,
2013-04-24 16:11:00,61.7,21.4,29.69,WSW,240,7.2,7.2,21,0.00,,FEW075,0.00,VWS V14.01,2013-04-24 23:11:00,
2013-04-24 16:12:00,61.7,21.4,29.69,SW,217,5.8,8.3,21,0.00,,FEW075,0.00,VWS V14.01,2013-04-24 23:12:00,
2013-04-24 16:13:00,61.5,21.2,29.69,WSW,252,13.2,13.2,21,0.00,,FEW075,0.00,VWS V14.01,2013-04-24 23:13:00,
2013-04-24 16:14:00,62.4,22.0,29.69,WSW,257,8.1,8.1,21,0.00,,BKN200,0.00,VWS V14.01,2013-04-24 23:14:00,
2013-04-24 16:15:00,61.7,21.4,29.69,WNW,284,5.4,11.0,21,0.00,,FEW075,0.00,VWS V14.01,2013-04-24 23:15:00,
2013-04-24 16:16:00,61.7,21.4,29.69,West,270,8.1,8.1,21,0.00,,FEW075,0.00,VWS V14.01,2013-04-24 23:16:00,
2013-04-24 16:17:00,61.7,21.4,29.69,West,260,8.3,10.1,21,0.00,,FEW075,0.00,VWS V14.01,2013-04-24 23:17:00,
2013-04-24 16:18:00,61.9,21.5,29.69,WNW,286,3.1,8.3,21,0.00,,FEW075,0.00,VWS V14.01,2013-04-24 23:18:00,
2013-04-24 16:19:00,62.6,22.1,29.69,WSW,254,3.6,4.9,21,0.00,,BKN200,0.00,VWS V14.01,2013-04-24 23:19:00,
2013-04-24 16:20:00,61.9,21.5,29.69,West,271,6.3,6.3,21,0.00,,FEW075,0.00,VWS V14.01,2013-04-24 23:20:00,
2013-04-24 16:21:00,61.9,21.5,29.69,West,273,6.3,7.6,21,0.00,,FEW075,0.00,VWS V14.01,2013-04-24 23:21:00,
2013-04-24 16:22:00,62.1,21.7,29.69,WSW,256,7.2,10.5,21,0.00,,FEW075,0.00,VWS V14.01,2013-04-24 23:22:00,
2013-04-24 16:23:00,62.1,21.7,29.69,WSW,246,3.6,7.2,21,0.00,,FEW075,0.00,VWS V14.01,2013-04-24 23:23:00,
2013-04-24 16:24:00,63.1,22.6,29.66,SW,225,10.5,11.0,21,0.00,,BKN200,0.00,VWS V14.01,2013-04-24 23:24:00,
2013-04-24 16:25:00,62.2,21.8,29.69,WSW,258,3.1,4.0,21,0.00,,FEW075,0.00,VWS V14.01,2013-04-24 23:25:00,
2013-04-24 16:26:00,62.2,21.8,29.69,West,260,4.0,6.3,21,0.00,,FEW075,0.00,VWS V14.01,2013-04-24 23:26:00,
2013-04-24 16:27:00,62.2,21.8,29.69,WSW,241,8.1,8.1,21,0.00,,FEW075,0.00,VWS V14.01,2013-04-24 23:27:00,
2013-04-24 16:28:00,62.2,21.8,29.69,West,259,2.7,8.1,21,0.00,,FEW075,0.00,VWS V14.01,2013-04-24 23:28:00,
2013-04-24 16:29:00,63.1,22.6,29.66,WSW,249,7.6,9.6,21,0.00,,BKN200,0.00,VWS V14.01,2013-04-24 23:29:00,
2013-04-24 16:30:00,62.4,22.0,29.69,WSW,253,7.6,7.6,21,0.00,,FEW075,0.00,VWS V14.01,2013-04-24 23:30:00,
2013-04-24 16:31:00,62.4,22.0,29.69,West,259,5.4,7.6,21,0.00,,FEW075,0.00,VWS V14.01,2013-04-24 23:31:00,
2013-04-24 16:32:00,62.6,22.1,29.69,WSW,253,4.9,5.4,21,0.00,,FEW075,0.00,VWS V14.01,2013-04-24 23:32:00,
2013-04-24 16:33:00,62.6,22.1,29.69,WSW,240,5.4,5.8,21,0.00,,FEW075,0.00,VWS V14.01,2013-04-24 23:33:00,
2013-04-24 16:34:00,63.3,22.8,29.66,WSW,249,12.8,12.8,21,0.00,,BKN200,0.00,VWS V14.01,2013-04-24 23:34:00,
2013-04-24 16:35:00,63.0,22.4,29.66,West,268,6.3,8.3,21,0.00,,FEW075,0.00,VWS V14.01,2013-04-24 23:35:00,
2013-04-24 16:36:00,63.1,22.6,29.66,WSW,256,8.1,8.1,21,0.00,,FEW075,0.00,VWS V14.01,2013-04-24 23:36:00,
2013-04-24 16:37:00,63.1,22.6,29.66,SW,231,11.0,11.9,21,0.00,,FEW075,0.00,VWS V14.01,2013-04-24 23:37:00,
2013-04-24 16:38:00,63.1,22.6,29.66,SW,232,8.1,11.0,21,0.00,,FEW075,0.00,VWS V14.01,2013-04-24 23:38:00,
2013-04-24 16:39:00,63.3,22.8,29.66,WSW,254,13.2,13.2,21,0.00,,BKN200,0.00,VWS V14.01,2013-04-24 23:39:00,
2013-04-24 16:40:00,63.1,22.6,29.66,SSW,208,8.1,8.7,21,0.00,,FEW075,0.00,VWS V14.01,2013-04-24 23:40:00,
2013-04-24 16:41:00,63.1,22.6,29.66,SW,216,7.6,9.2,21,0.00,,FEW075,0.00,VWS V14.01,2013-04-24 23:41:00,
2013-04-24 16:42:00,63.1,22.6,29.66,WSW,249,7.6,9.6,21,0.00,,FEW075,0.00,VWS V14.01,2013-04-24 23:42:00,
2013-04-24 16:43:00,63.3,22.8,29.66,WSW,251,10.1,11.4,21,0.00,,FEW075,0.00,VWS V14.01,2013-04-24 23:43:00,
2013-04-24 16:44:00,63.1,22.6,29.66,WSW,257,4.0,4.0,21,0.00,,BKN200,0.00,VWS V14.01,2013-04-24 23:44:00,
2013-04-24 16:45:00,63.3,22.8,29.66,WSW,257,8.7,13.2,21,0.00,,FEW075,0.00,VWS V14.01,2013-04-24 23:45:00,
2013-04-24 16:46:00,63.5,22.9,29.66,West,277,8.3,10.5,21,0.00,,FEW075,0.00,VWS V14.01,2013-04-24 23:46:00,
2013-04-24 16:47:00,63.3,22.8,29.66,SW,226,12.8,12.8,21,0.00,,FEW075,0.00,VWS V14.01,2013-04-24 23:47:00,
2013-04-24 16:48:00,63.5,22.9,29.66,SW,229,10.1,12.8,21,0.00,,FEW075,0.00,VWS V14.01,2013-04-24 23:48:00,
2013-04-24 16:49:00,62.6,22.1,29.66,NW,306,3.6,3.6,21,0.00,,BKN200,0.00,VWS V14.01,2013-04-24 23:49:00,
2013-04-24 16:50:00,63.3,22.8,29.66,WSW,246,8.7,13.6,21,0.00,,FEW075,0.00,VWS V14.01,2013-04-24 23:50:00,
2013-04-24 16:51:00,63.3,22.8,29.66,West,269,6.7,10.5,21,0.00,,FEW075,0.00,VWS V14.01,2013-04-24 23:51:00,
2013-04-24 16:52:00,63.3,22.8,29.66,WSW,254,13.2,13.2,21,0.00,,FEW075,0.00,VWS V14.01,2013-04-24 23:52:00,
2013-04-24 16:53:00,63.3,22.8,29.66,West,275,15.4,15.4,21,0.00,,FEW075,0.00,VWS V14.01,2013-04-24 23:53:00,
2013-04-24 16:54:00,62.4,22.0,29.66,WSW,256,13.6,13.6,21,0.00,,BKN200,0.00,VWS V14.01,2013-04-24 23:54:00,
2013-04-24 16:55:00,63.3,22.8,29.66,NW,314,7.6,8.7,21,0.00,,FEW075,0.00,VWS V14.01,2013-04-24 23:55:00,
2013-04-24 16:56:00,63.1,22.6,29.66,NW,316,3.1,7.6,21,0.00,,FEW075,0.00,VWS V14.01,2013-04-24 23:56:00,
2013-04-24 16:57:00,63.3,22.8,29.66,WSW,257,4.0,15.0,21,0.00,,FEW075,0.00,VWS V14.01,2013-04-24 23:57:00,
2013-04-24 16:58:00,63.1,22.6,29.66,West,260,3.1,7.2,21,0.00,,FEW075,0.00,VWS V14.01,2013-04-24 23:58:00,
2013-04-24 16:59:00,62.6,22.1,29.66,West,281,3.1,3.6,21,0.00,,BKN200,0.00,VWS V14.01,2013-04-24 23:59:00,
2013-04-24 17:00:00,63.0,22.4,29.66,WNW,293,3.6,12.3,21,0.00,,FEW075,0.00,VWS V14.01,2013-04-25 00:00:00,
2013-04-24 17:01:00,62.8,22.3,29.66,WNW,291,6.3,6.7,21,0.00,,FEW075,0.00,VWS V14.01,2013-04-25 00:01:00,
2013-04-24 17:02:00,62.6,22.1,29.66,NW,325,2.7,6.3,21,0.00,,FEW075,0.00,VWS V14.01,2013-04-25 00:02:00,
2013-04-24 17:03:00,62.6,22.1,29.66,WSW,252,6.3,7.6,21,0.00,,FEW075,0.00,VWS V14.01,2013-04-25 00:03:00,
2013-04-24 17:04:00,62.8,22.3,29.66,West,271,10.1,10.1,21,0.00,,BKN200,0.00,VWS V14.01,2013-04-25 00:04:00,
2013-04-24 17:05:00,62.4,22.0,29.66,WSW,247,10.1,11.0,21,0.00,,FEW075,0.00,VWS V14.01,2013-04-25 00:05:00,
2013-04-24 17:06:00,62.4,22.0,29.66,West,272,8.3,10.5,21,0.00,,FEW075,0.00,VWS V14.01,2013-04-25 00:06:00,
2013-04-24 17:07:00,62.4,22.0,29.66,NW,305,6.3,8.3,21,0.00,,FEW075,0.00,VWS V14.01,2013-04-25 00:07:00,
2013-04-24 17:08:00,62.6,22.1,29.66,West,262,7.6,13.6,21,0.00,,FEW075,0.00,VWS V14.01,2013-04-25 00:08:00,
2013-04-24 17:09:00,63.1,22.6,29.66,West,270,10.1,10.1,21,0.00,,BKN200,0.00,VWS V14.01,2013-04-25 00:09:00,
2013-04-24 17:10:00,62.6,22.1,29.66,West,277,5.4,10.1,21,0.00,,FEW075,0.00,VWS V14.01,2013-04-25 00:10:00,
2013-04-24 17:11:00,62.6,22.1,29.66,NNW,330,3.6,5.4,21,0.00,,FEW075,0.00,VWS V14.01,2013-04-25 00:11:00,
2013-04-24 17:12:00,62.6,22.1,29.66,West,281,3.1,3.6,21,0.00,,FEW075,0.00,VWS V14.01,2013-04-25 00:12:00,
2013-04-24 17:13:00,62.8,22.3,29.66,West,275,8.7,8.7,21,0.00,,FEW075,0.00,VWS V14.01,2013-04-25 00:13:00,
2013-04-24 17:14:00,63.1,19.0,29.66,WNW,293,6.3,6.7,18,0.00,,BKN200,0.00,VWS V14.01,2013-04-25 00:14:00,
2013-04-24 17:15:00,62.6,22.1,29.66,West,265,6.3,8.7,21,0.00,,FEW075,0.00,VWS V14.01,2013-04-25 00:15:00,
2013-04-24 17:16:00,62.6,18.5,29.66,West,275,6.3,6.3,18,0.00,,FEW075,0.00,VWS V14.01,2013-04-25 00:16:00,
2013-04-24 17:17:00,62.8,22.3,29.66,West,263,8.3,8.7,21,0.00,,FEW075,0.00,VWS V14.01,2013-04-25 00:17:00,
2013-04-24 17:18:00,62.8,22.3,29.66,West,275,10.5,10.5,21,0.00,,FEW075,0.00,VWS V14.01,2013-04-25 00:18:00,
2013-04-24 17:19:00,63.5,19.3,29.66,WNW,285,11.0,13.2,18,0.00,,BKN200,0.00,VWS V14.01,2013-04-25 00:19:00,
2013-04-24 17:20:00,63.0,22.4,29.66,West,271,5.8,8.3,21,0.00,,FEW075,0.00,VWS V14.01,2013-04-25 00:20:00,
2013-04-24 17:21:00,63.0,22.4,29.66,West,266,5.8,8.1,21,0.00,,FEW075,0.00,VWS V14.01,2013-04-25 00:21:00,
2013-04-24 17:22:00,63.1,22.6,29.66,West,270,10.1,10.1,21,0.00,,FEW075,0.00,VWS V14.01,2013-04-25 00:22:00,
2013-04-24 17:23:00,63.0,18.8,29.66,West,271,12.3,12.8,18,0.00,,FEW075,0.00,VWS V14.01,2013-04-25 00:23:00,
2013-04-24 17:24:00,63.9,19.6,29.66,WNW,285,8.1,8.1,18,0.00,,BKN200,0.00,VWS V14.01,2013-04-25 00:24:00,
2013-04-24 17:25:00,63.0,22.4,29.66,West,277,5.4,8.7,21,0.00,,FEW075,0.00,VWS V14.01,2013-04-25 00:25:00,
2013-04-24 17:26:00,63.1,19.0,29.66,NW,319,4.9,8.7,18,0.00,,FEW075,0.00,VWS V14.01,2013-04-25 00:26:00,
2013-04-24 17:27:00,63.1,19.0,29.66,WNW,293,6.3,6.7,18,0.00,,FEW075,0.00,VWS V14.01,2013-04-25 00:27:00,
2013-04-24 17:28:00,63.3,19.1,29.66,NW,320,4.9,8.1,18,0.00,,FEW075,0.00,VWS V14.01,2013-04-25 00:28:00,
2013-04-24 17:29:00,63.7,19.4,29.66,NW,320,3.6,4.9,18,0.00,,BKN200,0.00,VWS V14.01,2013-04-25 00:29:00,
2013-04-24 17:30:00,63.3,19.1,29.66,WNW,285,9.6,9.6,18,0.00,,FEW075,0.00,VWS V14.01,2013-04-25 00:30:00,
2013-04-24 17:31:00,63.5,19.3,29.66,West,268,13.2,13.2,18,0.00,,FEW075,0.00,VWS V14.01,2013-04-25 00:31:00,
2013-04-24 17:32:00,63.5,19.3,29.66,WNW,285,11.0,13.2,18,0.00,,FEW075,0.00,VWS V14.01,2013-04-25 00:32:00,
2013-04-24 17:33:00,63.7,19.4,29.66,West,273,6.3,11.0,18,0.00,,FEW075,0.00,VWS V14.01,2013-04-25 00:33:00,
2013-04-24 17:34:00,65.1,20.6,29.66,WSW,250,9.6,12.3,18,0.00,,BKN200,0.00,VWS V14.01,2013-04-25 00:34:00,
2013-04-24 17:35:00,64.0,19.7,29.66,WNW,284,5.4,11.0,18,0.00,,FEW075,0.00,VWS V14.01,2013-04-25 00:35:00,
2013-04-24 17:36:00,64.0,19.7,29.66,West,267,3.1,5.4,18,0.00,,FEW075,0.00,VWS V14.01,2013-04-25 00:36:00,
2013-04-24 17:37:00,63.9,19.6,29.66,NNW,333,4.0,8.1,18,0.00,,FEW075,0.00,VWS V14.01,2013-04-25 00:37:00,
2013-04-24 17:38:00,63.7,19.4,29.66,NW,321,2.7,5.8,18,0.00,,FEW075,0.00,VWS V14.01,2013-04-25 00:38:00,
2013-04-24 17:39:00,66.2,20.1,29.63,West,274,8.7,8.7,17,0.00,,BKN200,0.00,VWS V14.01,2013-04-25 00:39:00,
2013-04-24 17:40:00,63.5,19.3,29.66,NW,317,3.1,6.3,18,0.00,,FEW075,0.00,VWS V14.01,2013-04-25 00:40:00,
2013-04-24 17:41:00,63.7,19.4,29.66,NNW,327,2.7,3.1,18,0.00,,FEW075,0.00,VWS V14.01,2013-04-25 00:41:00,
2013-04-24 17:42:00,63.9,19.6,29.66,NW,320,3.6,4.9,18,0.00,,FEW075,0.00,VWS V14.01,2013-04-25 00:42:00,
2013-04-24 17:43:00,63.7,19.4,29.66,WSW,258,3.1,4.9,18,0.00,,FEW075,0.00,VWS V14.01,2013-04-25 00:43:00,
2013-04-24 17:44:00,67.3,21.0,29.63,West,266,10.1,10.1,17,0.00,,BKN200,0.00,VWS V14.01,2013-04-25 00:44:00,
2013-04-24 17:45:00,64.4,20.0,29.66,West,275,8.3,8.3,18,0.00,,FEW075,0.00,VWS V14.01,2013-04-25 00:45:00,
2013-04-24 17:46:00,64.6,20.1,29.66,West,268,12.3,12.3,18,0.00,,FEW075,0.00,VWS V14.01,2013-04-25 00:46:00,
2013-04-24 17:47:00,65.1,20.6,29.66,WSW,258,10.1,12.3,18,0.00,,FEW075,0.00,VWS V14.01,2013-04-25 00:47:00,
2013-04-24 17:48:00,65.3,20.7,29.66,WSW,248,5.4,10.1,18,0.00,,FEW075,0.00,VWS V14.01,2013-04-25 00:48:00,
2013-04-24 17:49:00,67.6,21.3,29.63,West,276,10.1,13.2,17,0.00,,BKN200,0.00,VWS V14.01,2013-04-25 00:49:00,
2013-04-24 17:50:00,65.7,21.0,29.63,WNW,287,6.3,11.0,18,0.00,,FEW075,0.00,VWS V14.01,2013-04-25 00:50:00,
2013-04-24 17:51:00,66.0,21.3,29.63,WNW,298,5.4,6.3,18,0.00,,FEW075,0.00,VWS V14.01,2013-04-25 00:51:00,
2013-04-24 17:52:00,66.2,20.1,29.63,West,274,8.7,8.7,17,0.00,,FEW075,0.00,VWS V14.01,2013-04-25 00:52:00,
2013-04-24 17:53:00,66.6,20.4,29.63,WSW,258,4.9,8.7,17,0.00,,FEW075,0.00,VWS V14.01,2013-04-25 00:53:00,
2013-04-24 17:54:00,67.5,21.2,29.63,West,273,5.8,7.2,17,0.00,,BKN200,0.00,VWS V14.01,2013-04-25 00:54:00,
2013-04-24 17:55:00,67.1,20.9,29.63,West,267,6.3,12.8,17,0.00,,FEW075,0.00,VWS V14.01,2013-04-25 00:55:00,
2013-04-24 17:56:00,66.9,20.7,29.63,West,270,8.1,8.1,17,0.00,,FEW075,0.00,VWS V14.01,2013-04-25 00:56:00,
2013-04-24 17:57:00,67.3,21.0,29.63,West,280,5.8,10.1,17,0.00,,FEW075,0.00,VWS V14.01,2013-04-25 00:57:00,
2013-04-24 17:58:00,67.3,21.0,29.63,NW,305,4.0,8.7,17,0.00,,FEW075,0.00,VWS V14.01,2013-04-25 00:58:00,
2013-04-24 17:59:00,66.7,20.6,29.63,West,273,5.4,6.3,17,0.00,,SCT200,0.00,VWS V14.01,2013-04-25 00:59:00,
2013-04-24 18:00:00,67.3,21.0,29.63,WNW,285,3.1,10.1,17,0.00,,FEW075,0.00,VWS V14.01,2013-04-25 01:00:00,
2013-04-24 18:01:00,67.3,21.0,29.63,West,264,8.3,8.3,17,0.00,,FEW075,0.00,VWS V14.01,2013-04-25 01:01:00,
2013-04-24 18:02:00,67.6,21.3,29.63,WSW,249,12.3,13.2,17,0.00,,FEW075,0.00,VWS V14.01,2013-04-25 01:02:00,
2013-04-24 18:03:00,67.8,21.5,29.63,WSW,255,7.6,12.3,17,0.00,,FEW075,0.00,VWS V14.01,2013-04-25 01:03:00,
2013-04-24 18:04:00,66.0,21.3,29.63,West,276,8.1,10.1,18,0.00,,SCT200,0.00,VWS V14.01,2013-04-25 01:04:00,
2013-04-24 18:05:00,67.6,21.3,29.63,West,268,6.3,11.0,17,0.00,,FEW075,0.00,VWS V14.01,2013-04-25 01:05:00,
2013-04-24 18:06:00,67.5,21.2,29.63,WSW,255,6.3,8.3,17,0.00,,FEW075,0.00,VWS V14.01,2013-04-25 01:06:00,
2013-04-24 18:07:00,67.5,21.2,29.63,West,260,11.0,11.0,17,0.00,,FEW075,0.00,VWS V14.01,2013-04-25 01:07:00,
2013-04-24 18:08:00,67.3,21.0,29.63,West,271,5.4,13.2,17,0.00,,FEW075,0.00,VWS V14.01,2013-04-25 01:08:00,
2013-04-24 18:09:00,64.4,20.0,29.63,WNW,297,5.8,10.1,18,0.00,,SCT200,0.00,VWS V14.01,2013-04-25 01:09:00,
2013-04-24 18:10:00,66.9,20.7,29.63,West,280,8.1,12.3,17,0.00,,FEW075,0.00,VWS V14.01,2013-04-25 01:10:00,
2013-04-24 18:11:00,66.7,20.6,29.63,West,274,5.4,8.1,17,0.00,,FEW075,0.00,VWS V14.01,2013-04-25 01:11:00,
2013-04-24 18:12:00,66.7,20.6,29.63,West,263,8.1,8.1,17,0.00,,FEW075,0.00,VWS V14.01,2013-04-25 01:12:00,
2013-04-24 18:13:00,66.7,20.6,29.63,West,281,8.1,9.6,17,0.00,,FEW075,0.00,VWS V14.01,2013-04-25 01:13:00,
2013-04-24 18:14:00,63.7,19.4,29.63,NW,321,2.7,4.5,18,0.00,,SCT200,0.00,VWS V14.01,2013-04-25 01:14:00,
2013-04-24 18:15:00,66.4,20.3,29.63,WSW,258,10.1,10.1,17,0.00,,FEW075,0.00,VWS V14.01,2013-04-25 01:15:00,
2013-04-24 18:16:00,66.2,20.1,29.63,West,279,10.1,11.0,17,0.00,,FEW075,0.00,VWS V14.01,2013-04-25 01:16:00,
2013-04-24 18:17:00,66.0,21.3,29.63,West,276,8.1,10.1,18,0.00,,FEW075,0.00,VWS V14.01,2013-04-25 01:17:00,
2013-04-24 18:18:00,65.7,21.0,29.63,West,273,10.1,10.5,18,0.00,,FEW075,0.00,VWS V14.01,2013-04-25 01:18:00,
2013-04-24 18:19:00,63.3,19.1,29.63,NNW,335,4.0,4.0,18,0.00,,SCT200,0.00,VWS V14.01,2013-04-25 01:19:00,
2013-04-24 18:20:00,64.9,20.4,29.63,West,271,5.8,8.3,18,0.00,,FEW075,0.00,VWS V14.01,2013-04-25 01:20:00,
2013-04-24 18:21:00,64.6,20.1,29.63,West,277,10.1,10.1,18,0.00,,FEW075,0.00,VWS V14.01,2013-04-25 01:21:00,
2013-04-24 18:22:00,64.2,19.9,29.63,WNW,297,5.8,10.1,18,0.00,,FEW075,0.00,VWS V14.01,2013-04-25 01:22:00,
2013-04-24 18:23:00,64.2,19.9,29.63,West,280,3.6,5.8,18,0.00,,FEW075,0.00,VWS V14.01,2013-04-25 01:23:00,
2013-04-24 18:24:00,62.2,19.5,29.63,WNW,296,2.7,7.2,19,0.00,,SCT200,0.00,VWS V14.01,2013-04-25 01:24:00,
2013-04-24 18:25:00,64.0,19.7,29.63,NNW,333,3.1,3.6,18,0.00,,FEW075,0.00,VWS V14.01,2013-04-25 01:25:00,
2013-04-24 18:26:00,63.7,19.4,29.63,WNW,303,4.5,4.5,18,0.00,,FEW075,0.00,VWS V14.01,2013-04-25 01:26:00,
2013-04-24 18:27:00,63.5,19.3,29.63,North,0,4.0,4.5,18,0.00,,FEW075,0.00,VWS V14.01,2013-04-25 01:27:00,
2013-04-24 18:28:00,63.3,19.1,29.63,NW,313,7.6,10.1,18,0.00,,FEW075,0.00,VWS V14.01,2013-04-25 01:28:00,
2013-04-24 18:29:00,60.6,18.2,29.63,NW,308,6.3,6.7,19,0.00,,SCT200,0.00,VWS V14.01,2013-04-25 01:29:00,
2013-04-24 18:30:00,63.3,19.1,29.63,NW,325,3.6,5.8,18,0.00,,FEW075,0.00,VWS V14.01,2013-04-25 01:30:00,
2013-04-24 18:31:00,63.3,19.1,29.63,WNW,291,2.7,5.4,18,0.00,,FEW075,0.00,VWS V14.01,2013-04-25 01:31:00,
2013-04-24 18:32:00,63.0,18.8,29.63,NW,308,7.6,7.6,18,0.00,,FEW075,0.00,VWS V14.01,2013-04-25 01:32:00,
2013-04-24 18:33:00,63.1,19.0,29.63,NW,312,2.7,7.6,18,0.00,,FEW075,0.00,VWS V14.01,2013-04-25 01:33:00,
2013-04-24 18:34:00,59.9,17.6,29.63,West,267,4.0,6.3,19,0.00,,SCT200,0.00,VWS V14.01,2013-04-25 01:34:00,
2013-04-24 18:35:00,62.8,18.7,29.63,West,274,5.8,8.3,18,0.00,,FEW075,0.00,VWS V14.01,2013-04-25 01:35:00,
2013-04-24 18:36:00,62.4,19.6,29.63,West,275,7.2,8.1,19,0.00,,FEW075,0.00,VWS V14.01,2013-04-25 01:36:00,
2013-04-24 18:37:00,62.2,19.5,29.63,WNW,294,3.6,7.2,19,0.00,,FEW075,0.00,VWS V14.01,2013-04-25 01:37:00,
2013-04-24 18:38:00,61.9,19.2,29.63,WNW,294,3.6,3.6,19,0.00,,FEW075,0.00,VWS V14.01,2013-04-25 01:38:00,
2013-04-24 18:39:00,59.2,17.0,29.63,NW,315,5.4,8.7,19,0.00,,SCT200,0.00,VWS V14.01,2013-04-25 01:39:00,
2013-04-24 18:40:00,61.2,18.6,29.63,NW,311,3.6,6.3,19,0.00,,FEW075,0.00,VWS V14.01,2013-04-25 01:40:00,
2013-04-24 18:41:00,61.2,18.6,29.63,NW,326,3.1,4.0,19,0.00,,FEW075,0.00,VWS V14.01,2013-04-25 01:41:00,
2013-04-24 18:42:00,60.6,18.2,29.63,NW,311,3.1,6.7,19,0.00,,FEW075,0.00,VWS V14.01,2013-04-25 01:42:00,
2013-04-24 18:43:00,60.4,18.0,29.63,West,260,2.7,3.1,19,0.00,,FEW075,0.00,VWS V14.01,2013-04-25 01:43:00,
2013-04-24 18:44:00,58.8,16.7,29.63,West,265,6.7,6.7,19,0.00,,SCT200,0.00,VWS V14.01,2013-04-25 01:44:00,
2013-04-24 18:45:00,60.3,17.9,29.63,West,271,5.8,5.8,19,0.00,,FEW075,0.00,VWS V14.01,2013-04-25 01:45:00,
2013-04-24 18:46:00,60.1,17.7,29.63,West,279,6.3,6.3,19,0.00,,FEW075,0.00,VWS V14.01,2013-04-25 01:46:00,
2013-04-24 18:47:00,59.9,17.6,29.63,West,268,2.7,6.3,19,0.00,,FEW075,0.00,VWS V14.01,2013-04-25 01:47:00,
2013-04-24 18:48:00,59.7,17.4,29.63,WNW,300,3.1,3.1,19,0.00,,FEW075,0.00,VWS V14.01,2013-04-25 01:48:00,
2013-04-24 18:49:00,59.0,16.8,29.63,West,268,4.9,4.9,19,0.00,,SCT200,0.00,VWS V14.01,2013-04-25 01:49:00,
2013-04-24 18:50:00,59.5,17.3,29.63,West,275,8.3,9.6,19,0.00,,FEW075,0.00,VWS V14.01,2013-04-25 01:50:00,
2013-04-24 18:51:00,59.4,17.1,29.63,West,267,8.7,12.3,19,0.00,,FEW075,0.00,VWS V14.01,2013-04-25 01:51:00,
2013-04-24 18:52:00,59.2,17.0,29.63,NW,306,2.7,8.7,19,0.00,,FEW075,0.00,VWS V14.01,2013-04-25 01:52:00,
2013-04-24 18:53:00,59.2,17.0,29.63,WNW,285,2.7,3.6,19,0.00,,FEW075,0.00,VWS V14.01,2013-04-25 01:53:00,
2013-04-24 18:54:00,59.2,17.0,29.63,West,270,3.1,3.6,19,0.00,,SCT200,0.00,VWS V14.01,2013-04-25 01:54:00,
2013-04-24 18:55:00,59.0,16.8,29.63,West,271,3.6,8.7,19,0.00,,FEW075,0.00,VWS V14.01,2013-04-25 01:55:00,
2013-04-24 18:56:00,58.8,16.7,29.63,WNW,299,2.7,5.8,19,0.00,,FEW075,0.00,VWS V14.01,2013-04-25 01:56:00,
2013-04-24 18:57:00,58.8,16.7,29.63,NW,326,5.4,6.7,19,0.00,,FEW075,0.00,VWS V14.01,2013-04-25 01:57:00,
2013-04-24 18:58:00,58.8,16.7,29.63,West,277,7.6,7.6,19,0.00,,FEW075,0.00,VWS V14.01,2013-04-25 01:58:00,
2013-04-24 18:59:00,58.8,16.7,29.63,NW,309,3.6,8.7,19,0.00,,BKN200,0.00,VWS V14.01,2013-04-25 01:59:00,
2013-04-24 19:00:00,59.0,16.8,29.63,West,280,2.7,5.8,19,0.00,,FEW075,0.00,VWS V14.01,2013-04-25 02:00:00,
2013-04-24 19:01:00,59.0,16.8,29.63,NW,304,2.7,4.0,19,0.00,,FEW075,0.00,VWS V14.01,2013-04-25 02:01:00,
2013-04-24 19:02:00,59.0,16.8,29.63,West,268,4.9,4.9,19,0.00,,FEW075,0.00,VWS V14.01,2013-04-25 02:02:00,
2013-04-24 19:03:00,59.2,17.0,29.63,West,269,2.7,4.9,19,0.00,,FEW075,0.00,VWS V14.01,2013-04-25 02:03:00,
2013-04-24 19:04:00,58.5,16.4,29.63,WSW,255,5.8,7.6,19,0.00,,BKN200,0.00,VWS V14.01,2013-04-25 02:04:00,
2013-04-24 19:05:00,59.2,17.0,29.63,WNW,285,3.1,5.8,19,0.00,,FEW075,0.00,VWS V14.01,2013-04-25 02:05:00,
2013-04-24 19:06:00,59.2,17.0,29.63,WSW,237,3.6,4.9,19,0.00,,FEW075,0.00,VWS V14.01,2013-04-25 02:06:00,
2013-04-24 19:07:00,59.2,17.0,29.63,West,273,4.0,4.0,19,0.00,,FEW075,0.00,VWS V14.01,2013-04-25 02:07:00,
2013-04-24 19:08:00,59.2,17.0,29.63,WNW,300,2.7,4.5,19,0.00,,FEW075,0.00,VWS V14.01,2013-04-25 02:08:00,
2013-04-24 19:09:00,57.9,15.9,29.63,WNW,285,4.0,5.4,19,0.00,,BKN200,0.00,VWS V14.01,2013-04-25 02:09:00,
2013-04-24 19:10:00,59.2,17.0,29.63,WSW,253,6.3,6.3,19,0.00,,FEW075,0.00,VWS V14.01,2013-04-25 02:10:00,
2013-04-24 19:11:00,59.0,16.8,29.63,West,270,8.7,8.7,19,0.00,,FEW075,0.00,VWS V14.01,2013-04-25 02:11:00,
2013-04-24 19:12:00,58.8,16.7,29.63,West,276,5.4,8.7,19,0.00,,FEW075,0.00,VWS V14.01,2013-04-25 02:12:00,
2013-04-24 19:13:00,58.6,16.5,29.63,WNW,283,8.1,8.1,19,0.00,,FEW075,0.00,VWS V14.01,2013-04-25 02:13:00,
2013-04-24 19:14:00,57.4,15.5,29.63,WNW,283,4.9,4.9,19,0.00,,BKN200,0.00,VWS V14.01,2013-04-25 02:14:00,
2013-04-24 19:15:00,58.5,16.4,29.63,WNW,296,5.8,5.8,19,0.00,,FEW075,0.00,VWS V14.01,2013-04-25 02:15:00,
2013-04-24 19:16:00,58.5,16.4,29.63,West,259,7.6,7.6,19,0.00,,FEW120,0.00,VWS V14.01,2013-04-25 02:16:00,
2013-04-24 19:17:00,58.5,16.4,29.63,West,271,5.4,7.6,19,0.00,,FEW075,0.00,VWS V14.01,2013-04-25 02:17:00,
2013-04-24 19:18:00,58.3,16.2,29.63,West,267,6.7,6.7,19,0.00,,FEW075,0.00,VWS V14.01,2013-04-25 02:18:00,
2013-04-24 19:19:00,57.0,16.4,29.63,West,281,5.4,6.3,20,0.00,,BKN200,0.00,VWS V14.01,2013-04-25 02:19:00,
2013-04-24 19:20:00,58.1,16.1,29.63,WSW,253,5.4,7.6,19,0.00,,FEW075,0.00,VWS V14.01,2013-04-25 02:20:00,
2013-04-24 19:21:00,57.9,15.9,29.63,West,281,3.1,6.3,19,0.00,,FEW075,0.00,VWS V14.01,2013-04-25 02:21:00,
2013-04-24 19:22:00,57.9,15.9,29.63,West,259,2.7,5.4,19,0.00,,FEW075,0.00,VWS V14.01,2013-04-25 02:22:00,
2013-04-24 19:23:00,57.7,15.8,29.63,West,267,2.7,4.9,19,0.00,,FEW075,0.00,VWS V14.01,2013-04-25 02:23:00,
2013-04-24 19:24:00,56.7,16.1,29.60,West,270,3.1,4.0,20,0.00,,BKN200,0.00,VWS V14.01,2013-04-25 02:24:00,
2013-04-24 19:25:00,57.6,15.6,29.63,WSW,257,6.3,6.3,19,0.00,,FEW075,0.00,VWS V14.01,2013-04-25 02:25:00,
2013-04-24 19:26:00,57.4,15.5,29.63,West,274,4.5,6.3,19,0.00,,FEW075,0.00,VWS V14.01,2013-04-25 02:26:00,
2013-04-24 19:27:00,57.4,15.5,29.63,West,268,5.8,5.8,19,0.00,,FEW075,0.00,VWS V14.01,2013-04-25 02:27:00,
2013-04-24 19:28:00,57.4,15.5,29.63,WSW,251,5.8,6.3,19,0.00,,FEW075,0.00,VWS V14.01,2013-04-25 02:28:00,
2013-04-24 19:29:00,56.3,15.8,29.60,WSW,255,4.5,5.4,20,0.00,,BKN200,0.00,VWS V14.01,2013-04-25 02:29:00,
2013-04-24 19:30:00,57.2,15.3,29.63,West,274,6.7,6.7,19,0.00,,FEW075,0.00,VWS V14.01,2013-04-25 02:30:00,
2013-04-24 19:31:00,57.0,16.4,29.63,WNW,294,6.3,8.1,20,0.00,,FEW075,0.00,VWS V14.01,2013-04-25 02:31:00,
2013-04-24 19:32:00,57.0,16.4,29.63,West,267,4.9,6.3,20,0.00,,FEW075,0.00,VWS V14.01,2013-04-25 02:32:00,
2013-04-24 19:33:00,56.8,16.2,29.63,West,262,8.1,8.1,20,0.00,,FEW075,0.00,VWS V14.01,2013-04-25 02:33:00,
2013-04-24 19:34:00,55.9,15.5,29.60,WSW,258,3.6,3.6,20,0.00,,BKN200,0.00,VWS V14.01,2013-04-25 02:34:00,
2013-04-24 19:35:00,56.8,16.2,29.60,West,260,4.5,5.4,20,0.00,,FEW075,0.00,VWS V14.01,2013-04-25 02:35:00,
2013-04-24 19:36:00,56.7,16.1,29.60,West,266,3.1,4.5,20,0.00,,FEW075,0.00,VWS V14.01,2013-04-25 02:36:00,
2013-04-24 19:37:00,56.7,16.1,29.60,West,268,3.6,6.3,20,0.00,,FEW075,0.00,VWS V14.01,2013-04-25 02:37:00,
2013-04-24 19:38:00,56.7,16.1,29.60,West,272,5.4,5.4,20,0.00,,FEW075,0.00,VWS V14.01,2013-04-25 02:38:00,
2013-04-24 19:39:00,55.6,15.2,29.60,WSW,250,4.0,5.4,20,0.00,,BKN200,0.00,VWS V14.01,2013-04-25 02:39:00,
2013-04-24 19:40:00,56.5,15.9,29.60,West,262,5.4,5.8,20,0.00,,FEW075,0.00,VWS V14.01,2013-04-25 02:40:00,
2013-04-24 19:41:00,56.5,15.9,29.60,WSW,253,5.4,5.8,20,0.00,,FEW075,0.00,VWS V14.01,2013-04-25 02:41:00,
2013-04-24 19:42:00,56.3,15.8,29.60,WSW,255,4.0,5.4,20,0.00,,FEW075,0.00,VWS V14.01,2013-04-25 02:42:00,
2013-04-24 19:43:00,56.3,15.8,29.60,West,265,4.0,4.0,20,0.00,,FEW075,0.00,VWS V14.01,2013-04-25 02:43:00,
2013-04-24 19:44:00,55.0,14.7,29.60,WSW,243,3.1,4.0,20,0.00,,BKN200,0.00,VWS V14.01,2013-04-25 02:44:00,
2013-04-24 19:45:00,56.1,15.6,29.60,West,265,5.4,5.4,20,0.00,,FEW075,0.00,VWS V14.01,2013-04-25 02:45:00,
2013-04-24 19:46:00,55.9,15.5,29.60,WSW,248,3.1,5.4,20,0.00,,FEW075,0.00,VWS V14.01,2013-04-25 02:46:00,
2013-04-24 19:47:00,55.9,15.5,29.60,West,260,4.0,4.0,20,0.00,,FEW075,0.00,VWS V14.01,2013-04-25 02:47:00,
2013-04-24 19:48:00,55.9,15.5,29.60,WSW,254,4.0,4.0,20,0.00,,FEW075,0.00,VWS V14.01,2013-04-25 02:48:00,
2013-04-24 19:49:00,54.7,14.4,29.60,West,272,6.3,6.3,20,0.00,,BKN200,0.00,VWS V14.01,2013-04-25 02:49:00,
2013-04-24 19:50:00,55.6,15.2,29.60,West,271,4.9,5.4,20,0.00,,FEW075,0.00,VWS V14.01,2013-04-25 02:50:00,
2013-04-24 19:51:00,55.6,15.2,29.60,WSW,252,5.4,5.4,20,0.00,,FEW075,0.00,VWS V14.01,2013-04-25 02:51:00,
2013-04-24 19:52:00,55.4,15.0,29.60,WSW,255,4.9,5.4,20,0.00,,FEW075,0.00,VWS V14.01,2013-04-25 02:52:00,
2013-04-24 19:53:00,55.4,15.0,29.60,WSW,241,3.6,4.9,20,0.00,,FEW075,0.00,VWS V14.01,2013-04-25 02:53:00,
2013-04-24 19:54:00,54.5,14.3,29.60,WSW,243,3.1,4.0,20,0.00,,BKN200,0.00,VWS V14.01,2013-04-25 02:54:00,
2013-04-24 19:55:00,55.2,14.9,29.60,West,263,3.6,5.4,20,0.00,,FEW075,0.00,VWS V14.01,2013-04-25 02:55:00,
2013-04-24 19:56:00,55.0,14.7,29.60,West,259,4.0,6.3,20,0.00,,FEW075,0.00,VWS V14.01,2013-04-25 02:56:00,
2013-04-24 19:57:00,55.0,14.7,29.60,West,270,5.8,5.8,20,0.00,,FEW075,0.00,VWS V14.01,2013-04-25 02:57:00,
2013-04-24 19:58:00,55.0,14.7,29.60,West,266,5.8,6.3,20,0.00,,FEW075,0.00,VWS V14.01,2013-04-25 02:58:00,
2013-04-24 19:59:00,54.0,17.0,29.60,WSW,247,3.6,3.6,23,0.00,,BKN200,0.00,VWS V14.01,2013-04-25 02:59:00,
2013-04-24 20:00:00,54.9,14.6,29.60,WSW,248,4.0,5.8,20,0.00,,FEW075,0.00,VWS V14.01,2013-04-25 03:00:00,
2013-04-24 20:01:00,54.7,14.4,29.60,West,259,3.6,4.0,20,0.00,,FEW075,0.00,VWS V14.01,2013-04-25 03:01:00,
2013-04-24 20:02:00,54.7,14.4,29.60,West,263,5.8,6.3,20,0.00,,FEW075,0.00,VWS V14.01,2013-04-25 03:02:00,
2013-04-24 20:03:00,54.7,14.4,29.60,West,263,4.5,5.8,20,0.00,,FEW075,0.00,VWS V14.01,2013-04-25 03:03:00,
2013-04-24 20:04:00,53.4,16.6,29.60,SW,230,2.7,3.6,23,0.00,,BKN200,0.00,VWS V14.01,2013-04-25 03:04:00,
2013-04-24 20:05:00,54.5,14.3,29.60,WSW,245,4.0,4.0,20,0.00,,FEW075,0.00,VWS V14.01,2013-04-25 03:05:00,
2013-04-24 20:06:00,54.5,14.3,29.60,WSW,243,4.0,4.5,20,0.00,,FEW075,0.00,VWS V14.01,2013-04-25 03:06:00,
2013-04-24 20:07:00,54.5,14.3,29.60,WSW,244,2.7,4.0,20,0.00,,FEW075,0.00,VWS V14.01,2013-04-25 03:07:00,
2013-04-24 20:08:00,54.3,14.1,29.60,WSW,245,3.6,3.6,20,0.00,,FEW075,0.00,VWS V14.01,2013-04-25 03:08:00,
2013-04-24 20:09:00,52.9,16.1,29.60,SW,230,2.2,2.7,23,0.00,,BKN200,0.00,VWS V14.01,2013-04-25 03:09:00,
2013-04-24 20:10:00,54.1,14.0,29.60,WSW,247,3.1,3.6,20,0.00,,FEW075,0.00,VWS V14.01,2013-04-25 03:10:00,
2013-04-24 20:11:00,54.0,17.0,29.60,WSW,247,3.1,3.6,23,0.00,,FEW075,0.00,VWS V14.01,2013-04-25 03:11:00,
2013-04-24 20:12:00,54.0,17.0,29.60,West,259,3.6,3.6,23,0.00,,FEW075,0.00,VWS V14.01,2013-04-25 03:12:00,
2013-04-24 20:13:00,53.8,16.9,29.60,WSW,239,3.1,4.0,23,0.00,,FEW075,0.00,VWS V14.01,2013-04-25 03:13:00,
2013-04-24 20:14:00,52.2,15.5,29.60,SW,230,2.7,2.7,23,0.00,,BKN200,0.00,VWS V14.01,2013-04-25 03:14:00,
2013-04-24 20:15:00,53.6,16.7,29.60,WSW,239,2.7,3.6,23,0.00,,FEW075,0.00,VWS V14.01,2013-04-25 03:15:00,
2013-04-24 20:16:00,53.4,16.6,29.60,SW,230,3.6,4.0,23,0.00,,FEW075,0.00,VWS V14.01,2013-04-25 03:16:00,
2013-04-24 20:17:00,53.4,16.6,29.60,SW,230,2.7,3.6,23,0.00,,FEW075,0.00,VWS V14.01,2013-04-25 03:17:00,
2013-04-24 20:18:00,53.2,16.4,29.60,SW,230,2.7,3.1,23,0.00,,FEW075,0.00,VWS V14.01,2013-04-25 03:18:00,
2013-04-24 20:19:00,51.8,15.2,29.60,WSW,241,3.1,4.0,23,0.00,,BKN200,0.00,VWS V14.01,2013-04-25 03:19:00,
2013-04-24 20:20:00,53.1,16.3,29.60,SW,230,2.7,3.1,23,0.00,,FEW075,0.00,VWS V14.01,2013-04-25 03:20:00,
2013-04-24 20:21:00,52.9,16.1,29.60,SW,230,2.7,3.1,23,0.00,,FEW075,0.00,VWS V14.01,2013-04-25 03:21:00,
2013-04-24 20:22:00,52.7,16.0,29.60,SW,230,2.7,2.7,23,0.00,,FEW075,0.00,VWS V14.01,2013-04-25 03:22:00,
2013-04-24 20:23:00,52.5,15.8,29.60,SW,230,2.7,2.7,23,0.00,,FEW075,0.00,VWS V14.01,2013-04-25 03:23:00,
2013-04-24 20:24:00,51.4,15.9,29.60,WSW,237,3.1,3.1,24,0.00,,BKN200,0.00,VWS V14.01,2013-04-25 03:24:00,
2013-04-24 20:25:00,52.3,15.6,29.60,SW,230,3.1,3.1,23,0.00,,FEW075,0.00,VWS V14.01,2013-04-25 03:25:00,
2013-04-24 20:26:00,52.2,15.5,29.60,SW,230,2.7,3.1,23,0.00,,FEW075,0.00,VWS V14.01,2013-04-25 03:26:00,
2013-04-24 20:27:00,52.2,15.5,29.60,SW,230,3.1,3.1,23,0.00,,FEW075,0.00,VWS V14.01,2013-04-25 03:27:00,
2013-04-24 20:28:00,52.0,15.4,29.60,SW,230,3.1,3.6,23,0.00,,FEW075,0.00,VWS V14.01,2013-04-25 03:28:00,
2013-04-24 20:29:00,51.1,15.6,29.60,SW,236,3.6,3.6,24,0.00,,BKN200,0.00,VWS V14.01,2013-04-25 03:29:00,
2013-04-24 20:30:00,52.0,15.4,29.60,WSW,237,4.0,4.0,23,0.00,,FEW075,0.00,VWS V14.01,2013-04-25 03:30:00,
2013-04-24 20:31:00,51.8,15.2,29.60,WSW,241,4.0,4.0,23,0.00,,FEW075,0.00,VWS V14.01,2013-04-25 03:31:00,
2013-04-24 20:32:00,51.8,15.2,29.60,WSW,241,3.1,4.0,23,0.00,,FEW075,0.00,VWS V14.01,2013-04-25 03:32:00,
2013-04-24 20:33:00,51.6,16.0,29.60,WSW,241,3.1,4.0,24,0.00,,FEW075,0.00,VWS V14.01,2013-04-25 03:33:00,
2013-04-24 20:34:00,50.7,15.3,29.60,SW,234,3.6,3.6,24,0.00,,BKN200,0.00,VWS V14.01,2013-04-25 03:34:00,
2013-04-24 20:35:00,51.6,16.0,29.60,WSW,237,3.6,3.6,24,0.00,,FEW075,0.00,VWS V14.01,2013-04-25 03:35:00,
2013-04-24 20:36:00,51.6,16.0,29.60,WSW,237,3.1,3.6,24,0.00,,FEW075,0.00,VWS V14.01,2013-04-25 03:36:00,
2013-04-24 20:37:00,51.4,15.9,29.60,WSW,239,4.0,4.0,24,0.00,,FEW075,0.00,VWS V14.01,2013-04-25 03:37:00,
2013-04-24 20:38:00,51.4,15.9,29.60,SW,236,2.7,4.0,24,0.00,,FEW075,0.00,VWS V14.01,2013-04-25 03:38:00,
2013-04-24 20:39:00,50.5,15.1,29.60,SW,234,2.7,3.1,24,0.00,,BKN200,0.00,VWS V14.01,2013-04-25 03:39:00,
2013-04-24 20:40:00,51.3,15.7,29.60,SW,236,3.1,3.6,24,0.00,,FEW075,0.00,VWS V14.01,2013-04-25 03:40:00,
2013-04-24 20:41:00,51.3,15.7,29.60,SW,236,3.1,3.6,24,0.00,,FEW075,0.00,VWS V14.01,2013-04-25 03:41:00,
2013-04-24 20:42:00,51.1,15.6,29.60,SW,236,2.7,3.6,24,0.00,,FEW075,0.00,VWS V14.01,2013-04-25 03:42:00,
2013-04-24 20:43:00,51.1,15.6,29.60,SW,236,3.6,3.6,24,0.00,,FEW075,0.00,VWS V14.01,2013-04-25 03:43:00,
2013-04-24 20:44:00,50.5,15.1,29.60,SW,234,2.2,2.2,24,0.00,,BKN200,0.00,VWS V14.01,2013-04-25 03:44:00,
2013-04-24 20:45:00,50.9,15.4,29.60,SW,234,3.1,4.0,24,0.00,,FEW075,0.00,VWS V14.01,2013-04-25 03:45:00,
2013-04-24 20:46:00,50.7,15.3,29.60,SW,234,2.7,3.1,24,0.00,,FEW075,0.00,VWS V14.01,2013-04-25 03:46:00,
2013-04-24 20:47:00,50.7,15.3,29.60,SW,234,3.6,3.6,24,0.00,,FEW075,0.00,VWS V14.01,2013-04-25 03:47:00,
2013-04-24 20:48:00,50.7,15.3,29.60,SW,234,2.7,3.6,24,0.00,,FEW075,0.00,VWS V14.01,2013-04-25 03:48:00,
2013-04-24 20:49:00,50.2,16.6,29.60,SW,233,2.2,2.2,26,0.00,,BKN200,0.00,VWS V14.01,2013-04-25 03:49:00,
2013-04-24 20:50:00,50.7,15.3,29.60,SW,234,3.1,3.6,24,0.00,,FEW075,0.00,VWS V14.01,2013-04-25 03:50:00,
2013-04-24 20:51:00,50.5,15.1,29.60,SW,234,3.1,3.1,24,0.00,,FEW075,0.00,VWS V14.01,2013-04-25 03:51:00,
2013-04-24 20:52:00,50.5,15.1,29.60,SW,234,3.1,3.1,24,0.00,,FEW075,0.00,VWS V14.01,2013-04-25 03:52:00,
2013-04-24 20:53:00,50.7,15.3,29.60,SW,234,2.7,3.1,24,0.00,,FEW075,0.00,VWS V14.01,2013-04-25 03:53:00,
2013-04-24 20:54:00,49.8,16.3,29.60,SW,216,3.1,3.1,26,0.00,,BKN200,0.00,VWS V14.01,2013-04-25 03:54:00,
2013-04-24 20:55:00,50.5,15.1,29.60,SW,234,2.7,3.1,24,0.00,,FEW075,0.00,VWS V14.01,2013-04-25 03:55:00,
2013-04-24 20:56:00,50.5,15.1,29.60,SW,234,2.2,2.7,24,0.00,,FEW075,0.00,VWS V14.01,2013-04-25 03:56:00,
2013-04-24 20:57:00,50.5,15.1,29.60,SW,234,2.7,2.7,24,0.00,,FEW075,0.00,VWS V14.01,2013-04-25 03:57:00,
2013-04-24 20:58:00,50.4,14.9,29.60,SW,234,0.0,2.7,24,0.00,,FEW075,0.00,VWS V14.01,2013-04-25 03:58:00,
2013-04-24 20:59:00,49.8,16.3,29.60,SW,216,2.2,3.6,26,0.00,,BKN200,0.00,VWS V14.01,2013-04-25 03:59:00,
2013-04-24 21:00:00,50.2,16.6,29.60,SW,234,0.0,2.2,26,0.00,,FEW075,0.00,VWS V14.01,2013-04-25 04:00:00,
2013-04-24 21:01:00,49.6,16.2,29.60,SW,216,2.7,2.7,26,0.00,,BKN200,0.00,VWS V14.01,2013-04-25 04:01:00,
2013-04-24 21:02:00,50.0,16.5,29.60,SW,231,2.2,2.2,26,0.00,,FEW075,0.00,VWS V14.01,2013-04-25 04:02:00,
2013-04-24 21:03:00,50.0,16.5,29.60,SW,225,2.2,3.1,26,0.00,,FEW075,0.00,VWS V14.01,2013-04-25 04:03:00,
2013-04-24 21:04:00,49.8,16.3,29.60,SW,224,2.2,2.7,26,0.00,,FEW075,0.00,VWS V14.01,2013-04-25 04:04:00,
2013-04-24 21:05:00,49.8,16.3,29.60,SW,216,2.7,3.1,26,0.00,,FEW075,0.00,VWS V14.01,2013-04-25 04:05:00,
2013-04-24 21:06:00,49.6,17.0,29.60,SW,216,2.7,2.7,27,0.00,,BKN200,0.00,VWS V14.01,2013-04-25 04:06:00,
2013-04-24 21:07:00,49.8,16.3,29.60,SW,216,3.1,3.1,26,0.00,,FEW075,0.00,VWS V14.01,2013-04-25 04:07:00,
2013-04-24 21:08:00,49.8,16.3,29.60,SW,216,2.7,3.1,26,0.00,,FEW075,0.00,VWS V14.01,2013-04-25 04:08:00,
2013-04-24 21:09:00,49.8,16.3,29.60,SW,216,2.7,2.7,26,0.00,,FEW075,0.00,VWS V14.01,2013-04-25 04:09:00,
2013-04-24 21:10:00,49.8,16.3,29.60,SW,216,2.2,2.7,26,0.00,,FEW075,0.00,VWS V14.01,2013-04-25 04:10:00,
2013-04-24 21:11:00,49.6,17.0,29.60,SW,233,2.7,2.7,27,0.00,,BKN200,0.00,VWS V14.01,2013-04-25 04:11:00,
2013-04-24 21:12:00,49.6,16.2,29.60,SW,215,2.2,2.7,26,0.00,,FEW075,0.00,VWS V14.01,2013-04-25 04:12:00,
2013-04-24 21:13:00,49.6,16.2,29.60,SW,216,2.7,2.7,26,0.00,,FEW075,0.00,VWS V14.01,2013-04-25 04:13:00,
2013-04-24 21:14:00,49.6,16.2,29.60,SW,215,3.1,3.1,26,0.00,,FEW075,0.00,VWS V14.01,2013-04-25 04:14:00,
2013-04-24 21:15:00,49.6,16.2,29.60,SW,216,2.7,3.1,26,0.00,,FEW075,0.00,VWS V14.01,2013-04-25 04:15:00,
2013-04-24 21:16:00,49.6,17.0,29.60,SW,223,2.7,3.1,27,0.00,,BKN200,0.00,VWS V14.01,2013-04-25 04:16:00,
2013-04-24 21:17:00,49.6,16.2,29.60,SW,216,2.7,3.1,26,0.00,,FEW075,0.00,VWS V14.01,2013-04-25 04:17:00,
2013-04-24 21:18:00,49.6,17.0,29.60,SW,216,2.7,2.7,27,0.00,,FEW075,0.00,VWS V14.01,2013-04-25 04:18:00,
2013-04-24 21:19:00,49.6,17.0,29.60,SW,216,2.7,3.6,27,0.00,,FEW075,0.00,VWS V14.01,2013-04-25 04:19:00,
2013-04-24 21:20:00,49.6,17.0,29.60,SW,216,2.7,3.1,27,0.00,,FEW075,0.00,VWS V14.01,2013-04-25 04:20:00,
2013-04-24 21:21:00,49.8,17.2,29.60,SW,223,3.1,4.0,27,0.00,,BKN200,0.00,VWS V14.01,2013-04-25 04:21:00,
2013-04-24 21:22:00,49.6,17.0,29.60,SW,236,3.6,3.6,27,0.00,,FEW075,0.00,VWS V14.01,2013-04-25 04:22:00,
2013-04-24 21:23:00,49.6,17.0,29.60,SW,233,2.7,3.6,27,0.00,,FEW075,0.00,VWS V14.01,2013-04-25 04:23:00,
2013-04-24 21:24:00,49.6,17.0,29.60,SW,231,2.7,2.7,27,0.00,,FEW075,0.00,VWS V14.01,2013-04-25 04:24:00,
2013-04-24 21:25:00,49.6,17.0,29.60,SW,230,3.6,3.6,27,0.00,,FEW075,0.00,VWS V14.01,2013-04-25 04:25:00,
2013-04-24 21:26:00,49.8,17.2,29.60,SW,235,3.1,3.1,27,0.00,,BKN200,0.00,VWS V14.01,2013-04-25 04:26:00,
2013-04-24 21:27:00,49.6,17.0,29.60,SW,223,3.6,3.6,27,0.00,,FEW075,0.00,VWS V14.01,2013-04-25 04:27:00,
2013-04-24 21:28:00,49.6,17.0,29.60,SW,223,3.1,3.6,27,0.00,,FEW075,0.00,VWS V14.01,2013-04-25 04:28:00,
2013-04-24 21:29:00,49.6,17.0,29.60,SW,223,2.7,3.1,27,0.00,,FEW075,0.00,VWS V14.01,2013-04-25 04:29:00,
2013-04-24 21:30:00,49.8,17.2,29.60,SW,223,3.6,3.6,27,0.00,,FEW075,0.00,VWS V14.01,2013-04-25 04:30:00,
2013-04-24 21:31:00,49.8,17.2,29.60,WSW,238,3.1,3.1,27,0.00,,BKN200,0.00,VWS V14.01,2013-04-25 04:31:00,
2013-04-24 21:32:00,49.8,17.2,29.60,SW,223,2.7,3.1,27,0.00,,FEW075,0.00,VWS V14.01,2013-04-25 04:32:00,
2013-04-24 21:33:00,49.8,17.2,29.60,SW,223,4.0,4.0,27,0.00,,FEW075,0.00,VWS V14.01,2013-04-25 04:33:00,
2013-04-24 21:34:00,49.8,17.2,29.60,SW,234,2.7,4.0,27,0.00,,FEW075,0.00,VWS V14.01,2013-04-25 04:34:00,
2013-04-24 21:35:00,49.8,17.2,29.60,SW,236,2.7,3.6,27,0.00,,FEW075,0.00,VWS V14.01,2013-04-25 04:35:00,
2013-04-24 21:36:00,49.5,16.9,29.60,WSW,238,0.0,2.2,27,0.00,,BKN200,0.00,VWS V14.01,2013-04-25 04:36:00,
2013-04-24 21:37:00,49.8,17.2,29.60,SW,235,3.1,3.6,27,0.00,,FEW075,0.00,VWS V14.01,2013-04-25 04:37:00,
2013-04-24 21:38:00,49.8,17.2,29.60,SW,235,3.1,3.6,27,0.00,,FEW075,0.00,VWS V14.01,2013-04-25 04:38:00,
2013-04-24 21:39:00,49.8,17.2,29.60,SW,234,3.6,3.6,27,0.00,,FEW075,0.00,VWS V14.01,2013-04-25 04:39:00,
2013-04-24 21:40:00,49.8,17.2,29.60,SW,234,3.1,4.0,27,0.00,,FEW075,0.00,VWS V14.01,2013-04-25 04:40:00,
2013-04-24 21:41:00,48.7,16.3,29.60,SW,235,3.1,3.1,27,0.00,,BKN200,0.00,VWS V14.01,2013-04-25 04:41:00,
2013-04-24 21:42:00,49.8,17.2,29.60,WSW,238,2.7,3.1,27,0.00,,FEW075,0.00,VWS V14.01,2013-04-25 04:42:00,
2013-04-24 21:43:00,49.8,17.2,29.60,WSW,238,3.1,3.1,27,0.00,,FEW075,0.00,VWS V14.01,2013-04-25 04:43:00,
2013-04-24 21:44:00,49.6,17.0,29.60,WSW,238,3.1,3.1,27,0.00,,FEW075,0.00,VWS V14.01,2013-04-25 04:44:00,
2013-04-24 21:45:00,49.6,17.0,29.60,WSW,238,3.1,3.1,27,0.00,,FEW075,0.00,VWS V14.01,2013-04-25 04:45:00,
2013-04-24 21:46:00,48.6,16.1,29.60,SW,236,2.7,3.6,27,0.00,,BKN200,0.00,VWS V14.01,2013-04-25 04:46:00,
2013-04-24 21:47:00,49.6,17.0,29.60,WSW,238,2.2,2.7,27,0.00,,FEW075,0.00,VWS V14.01,2013-04-25 04:47:00,
2013-04-24 21:48:00,49.5,16.9,29.60,WSW,238,0.0,2.2,27,0.00,,FEW075,0.00,VWS V14.01,2013-04-25 04:48:00,
2013-04-24 21:49:00,49.5,16.9,29.60,WSW,238,2.2,2.2,27,0.00,,FEW075,0.00,VWS V14.01,2013-04-25 04:49:00,
2013-04-24 21:50:00,49.1,16.6,29.60,WSW,238,0.0,2.7,27,0.00,,FEW075,0.00,VWS V14.01,2013-04-25 04:50:00,
2013-04-24 21:51:00,48.9,16.4,29.60,WSW,243,3.6,4.0,27,0.00,,BKN200,0.00,VWS V14.01,2013-04-25 04:51:00,
2013-04-24 21:52:00,48.9,16.4,29.60,WSW,238,2.7,2.7,27,0.00,,FEW075,0.00,VWS V14.01,2013-04-25 04:52:00,
2013-04-24 21:53:00,48.7,16.3,29.60,WSW,237,2.7,2.7,27,0.00,,FEW075,0.00,VWS V14.01,2013-04-25 04:53:00,
2013-04-24 21:54:00,48.6,16.1,29.60,SW,235,2.7,3.1,27,0.00,,FEW075,0.00,VWS V14.01,2013-04-25 04:54:00,
2013-04-24 21:55:00,48.6,16.1,29.60,SW,235,3.1,3.6,27,0.00,,FEW075,0.00,VWS V14.01,2013-04-25 04:55:00,
2013-04-24 21:56:00,49.3,16.7,29.60,WSW,243,2.7,3.1,27,0.00,,BKN200,0.00,VWS V14.01,2013-04-25 04:56:00,
2013-04-24 21:57:00,48.6,16.1,29.60,SW,235,2.7,3.6,27,0.00,,FEW075,0.00,VWS V14.01,2013-04-25 04:57:00,
2013-04-24 21:58:00,48.6,16.1,29.60,SW,236,2.7,3.6,27,0.00,,FEW075,0.00,VWS V14.01,2013-04-25 04:58:00,
2013-04-24 21:59:00,48.7,16.3,29.60,WSW,237,3.1,3.1,27,0.00,,FEW075,0.00,VWS V14.01,2013-04-25 04:59:00,
2013-04-24 22:00:00,48.7,16.3,29.60,SW,236,3.6,3.6,27,0.00,,FEW075,0.00,VWS V14.01,2013-04-25 05:00:00,
2013-04-24 22:01:00,49.3,16.7,29.60,WSW,242,3.1,4.0,27,0.00,,BKN200,0.00,VWS V14.01,2013-04-25 05:01:00,
2013-04-24 22:02:00,48.9,16.4,29.60,SW,227,2.7,3.6,27,0.00,,FEW075,0.00,VWS V14.01,2013-04-25 05:02:00,
2013-04-24 22:03:00,48.9,16.4,29.60,WSW,243,3.6,4.0,27,0.00,,FEW075,0.00,VWS V14.01,2013-04-25 05:03:00,
2013-04-24 22:04:00,48.9,16.4,29.60,WSW,243,3.1,3.6,27,0.00,,FEW075,0.00,VWS V14.01,2013-04-25 05:04:00,
2013-04-24 22:05:00,49.1,16.6,29.60,WSW,243,2.7,3.1,27,0.00,,FEW075,0.00,VWS V14.01,2013-04-25 05:05:00,
2013-04-24 22:06:00,49.1,16.6,29.60,WSW,251,2.7,2.7,27,0.00,,BKN200,0.00,VWS V14.01,2013-04-25 05:06:00,
2013-04-24 22:07:00,49.1,16.6,29.60,WSW,243,3.1,3.1,27,0.00,,FEW075,0.00,VWS V14.01,2013-04-25 05:07:00,
2013-04-24 22:08:00,49.3,16.7,29.60,WSW,243,2.7,3.1,27,0.00,,FEW075,0.00,VWS V14.01,2013-04-25 05:08:00,
2013-04-24 22:09:00,49.3,16.7,29.60,WSW,243,2.7,3.1,27,0.00,,FEW075,0.00,VWS V14.01,2013-04-25 05:09:00,
2013-04-24 22:10:00,49.3,16.7,29.60,WSW,243,2.7,3.1,27,0.00,,FEW075,0.00,VWS V14.01,2013-04-25 05:10:00,
2013-04-24 22:11:00,48.7,16.3,29.60,WSW,251,0.0,0.0,27,0.00,,BKN200,0.00,VWS V14.01,2013-04-25 05:11:00,
2013-04-24 22:12:00,49.3,16.7,29.60,WSW,242,4.0,4.0,27,0.00,,FEW075,0.00,VWS V14.01,2013-04-25 05:12:00,
2013-04-24 22:13:00,49.3,16.7,29.60,WSW,242,3.1,4.0,27,0.00,,FEW075,0.00,VWS V14.01,2013-04-25 05:13:00,
2013-04-24 22:14:00,49.3,16.7,29.60,WSW,246,2.7,3.1,27,0.00,,FEW075,0.00,VWS V14.01,2013-04-25 05:14:00,
2013-04-24 22:15:00,49.3,16.7,29.60,WSW,251,3.1,3.6,27,0.00,,FEW075,0.00,VWS V14.01,2013-04-25 05:15:00,
2013-04-24 22:16:00,48.2,15.8,29.60,WSW,251,0.0,0.0,27,0.00,,BKN200,0.00,VWS V14.01,2013-04-25 05:16:00,
2013-04-24 22:17:00,49.3,16.7,29.60,WSW,251,2.7,3.1,27,0.00,,FEW075,0.00,VWS V14.01,2013-04-25 05:17:00,
2013-04-24 22:18:00,49.1,16.6,29.60,WSW,251,2.7,2.7,27,0.00,,FEW075,0.00,VWS V14.01,2013-04-25 05:18:00,
2013-04-24 22:19:00,49.1,16.6,29.60,WSW,251,2.7,3.1,27,0.00,,FEW075,0.00,VWS V14.01,2013-04-25 05:19:00,
2013-04-24 22:20:00,49.1,16.6,29.60,WSW,251,0.0,2.7,27,0.00,,FEW075,0.00,VWS V14.01,2013-04-25 05:20:00,
2013-04-24 22:21:00,47.8,16.3,29.60,WSW,251,0.0,0.0,28,0.00,,BKN200,0.00,VWS V14.01,2013-04-25 05:21:00,
2013-04-24 22:22:00,48.9,16.4,29.60,WSW,251,0.0,0.0,27,0.00,,FEW075,0.00,VWS V14.01,2013-04-25 05:22:00,
2013-04-24 22:23:00,48.7,16.3,29.60,WSW,251,0.0,0.0,27,0.00,,FEW075,0.00,VWS V14.01,2013-04-25 05:23:00,
2013-04-24 22:24:00,48.7,16.3,29.60,WSW,251,0.0,0.0,27,0.00,,FEW075,0.00,VWS V14.01,2013-04-25 05:24:00,
2013-04-24 22:25:00,48.6,16.1,29.60,WSW,251,0.0,0.0,27,0.00,,FEW075,0.00,VWS V14.01,2013-04-25 05:25:00,
2013-04-24 22:26:00,47.3,15.9,29.57,WSW,251,0.0,0.0,28,0.00,,BKN200,0.00,VWS V14.01,2013-04-25 05:26:00,
2013-04-24 22:27:00,48.4,16.0,29.60,WSW,251,0.0,0.0,27,0.00,,FEW075,0.00,VWS V14.01,2013-04-25 05:27:00,
2013-04-24 22:28:00,48.2,15.8,29.60,WSW,251,0.0,0.0,27,0.00,,FEW075,0.00,VWS V14.01,2013-04-25 05:28:00,
2013-04-24 22:29:00,48.2,15.8,29.60,WSW,251,0.0,0.0,27,0.00,,FEW075,0.00,VWS V14.01,2013-04-25 05:29:00,
2013-04-24 22:30:00,48.0,16.5,29.60,WSW,251,0.0,0.0,28,0.00,,FEW075,0.00,VWS V14.01,2013-04-25 05:30:00,
2013-04-24 22:31:00,47.1,15.7,29.57,WSW,251,0.0,0.0,28,0.00,,BKN200,0.00,VWS V14.01,2013-04-25 05:31:00,
2013-04-24 22:32:00,47.8,16.3,29.60,WSW,251,0.0,0.0,28,0.00,,FEW075,0.00,VWS V14.01,2013-04-25 05:32:00,
2013-04-24 22:33:00,47.8,16.3,29.60,WSW,251,0.0,0.0,28,0.00,,FEW075,0.00,VWS V14.01,2013-04-25 05:33:00,
2013-04-24 22:34:00,47.7,16.2,29.57,WSW,251,0.0,0.0,28,0.00,,FEW075,0.00,VWS V14.01,2013-04-25 05:34:00,
2013-04-24 22:35:00,47.7,16.2,29.57,WSW,251,0.0,0.0,28,0.00,,FEW075,0.00,VWS V14.01,2013-04-25 05:35:00,
2013-04-24 22:36:00,47.5,16.0,29.57,WSW,251,0.0,0.0,28,0.00,,BKN200,0.00,VWS V14.01,2013-04-25 05:36:00,
2013-04-24 22:37:00,47.5,16.0,29.57,WSW,251,0.0,0.0,28,0.00,,FEW075,0.00,VWS V14.01,2013-04-25 05:37:00,
2013-04-24 22:38:00,47.3,15.9,29.57,WSW,251,0.0,0.0,28,0.00,,FEW075,0.00,VWS V14.01,2013-04-25 05:38:00,
2013-04-24 22:39:00,47.1,15.7,29.57,WSW,251,0.0,0.0,28,0.00,,FEW075,0.00,VWS V14.01,2013-04-25 05:39:00,
2013-04-24 22:40:00,46.9,15.6,29.57,WSW,251,0.0,0.0,28,0.00,,FEW075,0.00,VWS V14.01,2013-04-25 05:40:00,
2013-04-24 22:41:00,47.3,15.9,29.57,WSW,251,0.0,0.0,28,0.00,,BKN200,0.00,VWS V14.01,2013-04-25 05:41:00,
2013-04-24 22:42:00,46.9,15.6,29.57,WSW,251,0.0,0.0,28,0.00,,FEW075,0.00,VWS V14.01,2013-04-25 05:42:00,
2013-04-24 22:43:00,47.1,15.7,29.57,WSW,251,0.0,0.0,28,0.00,,FEW075,0.00,VWS V14.01,2013-04-25 05:43:00,
2013-04-24 22:44:00,47.3,15.9,29.57,WSW,251,0.0,0.0,28,0.00,,FEW075,0.00,VWS V14.01,2013-04-25 05:44:00,
2013-04-24 22:45:00,47.3,15.9,29.57,WSW,251,0.0,0.0,28,0.00,,FEW075,0.00,VWS V14.01,2013-04-25 05:45:00,
2013-04-24 22:46:00,46.8,15.4,29.57,WSW,251,0.0,0.0,28,0.00,,BKN200,0.00,VWS V14.01,2013-04-25 05:46:00,
2013-04-24 22:47:00,47.5,16.0,29.57,WSW,251,0.0,0.0,28,0.00,,FEW075,0.00,VWS V14.01,2013-04-25 05:47:00,
2013-04-24 22:48:00,47.5,16.0,29.57,WSW,251,0.0,0.0,28,0.00,,FEW075,0.00,VWS V14.01,2013-04-25 05:48:00,
2013-04-24 22:49:00,47.3,15.9,29.57,WSW,251,0.0,0.0,28,0.00,,FEW075,0.00,VWS V14.01,2013-04-25 05:49:00,
2013-04-24 22:50:00,47.3,15.9,29.57,WSW,251,0.0,0.0,28,0.00,,FEW075,0.00,VWS V14.01,2013-04-25 05:50:00,
2013-04-24 22:51:00,46.2,15.7,29.57,WSW,251,0.0,0.0,29,0.00,,BKN200,0.00,VWS V14.01,2013-04-25 05:51:00,
2013-04-24 22:52:00,47.3,15.9,29.57,WSW,251,0.0,0.0,28,0.00,,FEW075,0.00,VWS V14.01,2013-04-25 05:52:00,
2013-04-24 22:53:00,47.1,15.7,29.57,WSW,251,0.0,0.0,28,0.00,,FEW075,0.00,VWS V14.01,2013-04-25 05:53:00,
2013-04-24 22:54:00,47.1,15.7,29.57,WSW,251,0.0,0.0,28,0.00,,FEW075,0.00,VWS V14.01,2013-04-25 05:54:00,
2013-04-24 22:55:00,46.9,15.6,29.57,WSW,251,0.0,0.0,28,0.00,,FEW075,0.00,VWS V14.01,2013-04-25 05:55:00,
2013-04-24 22:56:00,46.0,15.6,29.57,WSW,251,0.0,0.0,29,0.00,,BKN200,0.00,VWS V14.01,2013-04-25 05:56:00,
2013-04-24 22:57:00,46.8,15.4,29.57,WSW,251,0.0,0.0,28,0.00,,FEW075,0.00,VWS V14.01,2013-04-25 05:57:00,
2013-04-24 22:58:00,46.6,15.2,29.57,WSW,251,0.0,0.0,28,0.00,,FEW075,0.00,VWS V14.01,2013-04-25 05:58:00,
2013-04-24 22:59:00,46.6,15.2,29.57,WSW,251,0.0,0.0,28,0.00,,FEW075,0.00,VWS V14.01,2013-04-25 05:59:00,
2013-04-24 23:00:00,46.4,15.1,29.57,WSW,251,0.0,0.0,28,0.00,,FEW075,0.00,VWS V14.01,2013-04-25 06:00:00,
2013-04-24 23:01:00,45.7,16.0,29.57,WSW,251,0.0,0.0,30,0.00,,BKN200,0.00,VWS V14.01,2013-04-25 06:01:00,
2013-04-24 23:02:00,46.2,15.7,29.57,WSW,251,0.0,0.0,29,0.00,,FEW075,0.00,VWS V14.01,2013-04-25 06:02:00,
2013-04-24 23:03:00,46.2,15.7,29.57,WSW,251,0.0,0.0,29,0.00,,FEW075,0.00,VWS V14.01,2013-04-25 06:03:00,
2013-04-24 23:04:00,46.2,15.7,29.57,WSW,251,0.0,0.0,29,0.00,,FEW075,0.00,VWS V14.01,2013-04-25 06:04:00,
2013-04-24 23:05:00,46.2,15.7,29.57,WSW,251,0.0,0.0,29,0.00,,FEW075,0.00,VWS V14.01,2013-04-25 06:05:00,
2013-04-24 23:06:00,44.6,16.6,29.57,WSW,251,0.0,0.0,32,0.00,,BKN200,0.00,VWS V14.01,2013-04-25 06:06:00,
2013-04-24 23:07:00,46.2,15.7,29.57,WSW,251,0.0,0.0,29,0.00,,FEW075,0.00,VWS V14.01,2013-04-25 06:07:00,
2013-04-24 23:08:00,46.0,15.6,29.57,WSW,251,0.0,0.0,29,0.00,,FEW075,0.00,VWS V14.01,2013-04-25 06:08:00,
2013-04-24 23:09:00,46.0,15.6,29.57,WSW,251,0.0,0.0,29,0.00,,FEW075,0.00,VWS V14.01,2013-04-25 06:09:00,
2013-04-24 23:10:00,45.9,16.2,29.57,WSW,251,0.0,0.0,30,0.00,,FEW075,0.00,VWS V14.01,2013-04-25 06:10:00,
2013-04-24 23:11:00,43.5,16.3,29.57,WSW,251,0.0,0.0,33,0.00,,BKN200,0.00,VWS V14.01,2013-04-25 06:11:00,
2013-04-24 23:12:00,45.9,16.2,29.57,WSW,251,0.0,0.0,30,0.00,,FEW075,0.00,VWS V14.01,2013-04-25 06:12:00,
2013-04-24 23:13:00,45.7,16.0,29.57,WSW,251,0.0,0.0,30,0.00,,FEW075,0.00,VWS V14.01,2013-04-25 06:13:00,
2013-04-24 23:14:00,45.5,15.9,29.57,WSW,251,0.0,0.0,30,0.00,,FEW075,0.00,VWS V14.01,2013-04-25 06:14:00,
2013-04-24 23:15:00,45.3,15.7,29.57,WSW,251,0.0,0.0,30,0.00,,FEW075,0.00,VWS V14.01,2013-04-25 06:15:00,
2013-04-24 23:16:00,43.9,16.7,29.57,WSW,251,0.0,0.0,33,0.00,,BKN200,0.00,VWS V14.01,2013-04-25 06:16:00,
2013-04-24 23:17:00,45.0,16.2,29.57,WSW,251,0.0,0.0,31,0.00,,FEW075,0.00,VWS V14.01,2013-04-25 06:17:00,
2013-04-24 23:18:00,44.6,16.6,29.57,WSW,251,0.0,0.0,32,0.00,,FEW075,0.00,VWS V14.01,2013-04-25 06:18:00,
2013-04-24 23:19:00,44.4,16.4,29.57,WSW,251,0.0,0.0,32,0.00,,FEW075,0.00,VWS V14.01,2013-04-25 06:19:00,
2013-04-24 23:20:00,44.2,16.3,29.57,WSW,251,0.0,0.0,32,0.00,,FEW075,0.00,VWS V14.01,2013-04-25 06:20:00,
2013-04-24 23:21:00,43.2,17.4,29.57,WSW,251,0.0,0.0,35,0.00,,BKN200,0.00,VWS V14.01,2013-04-25 06:21:00,
2013-04-24 23:22:00,44.1,16.1,29.57,WSW,251,0.0,0.0,32,0.00,,FEW075,0.00,VWS V14.01,2013-04-25 06:22:00,
2013-04-24 23:23:00,43.5,16.3,29.57,WSW,251,0.0,0.0,33,0.00,,FEW075,0.00,VWS V14.01,2013-04-25 06:23:00,
2013-04-24 23:24:00,43.9,16.7,29.57,WSW,251,0.0,0.0,33,0.00,,FEW075,0.00,VWS V14.01,2013-04-25 06:24:00,
2013-04-24 23:25:00,43.9,16.7,29.57,WSW,251,0.0,0.0,33,0.00,,FEW075,0.00,VWS V14.01,2013-04-25 06:25:00,
2013-04-24 23:26:00,43.0,17.2,29.57,WSW,251,0.0,0.0,35,0.00,,BKN200,0.00,VWS V14.01,2013-04-25 06:26:00,
2013-04-24 23:27:00,43.9,16.7,29.57,WSW,251,0.0,0.0,33,0.00,,FEW075,0.00,VWS V14.01,2013-04-25 06:27:00,
2013-04-24 23:28:00,43.9,16.7,29.57,WSW,251,0.0,0.0,33,0.00,,FEW075,0.00,VWS V14.01,2013-04-25 06:28:00,
2013-04-24 23:29:00,43.7,17.2,29.57,WSW,251,0.0,0.0,34,0.00,,FEW075,0.00,VWS V14.01,2013-04-25 06:29:00,
2013-04-24 23:30:00,43.5,17.0,29.57,WSW,251,0.0,0.0,34,0.00,,FEW075,0.00,VWS V14.01,2013-04-25 06:30:00,
2013-04-24 23:31:00,43.0,16.5,29.57,WSW,251,0.0,0.0,34,0.00,,BKN200,0.00,VWS V14.01,2013-04-25 06:31:00,
2013-04-24 23:32:00,43.3,16.9,29.57,WSW,251,0.0,0.0,34,0.00,,FEW075,0.00,VWS V14.01,2013-04-25 06:32:00,
2013-04-24 23:33:00,43.0,17.2,29.57,WSW,251,0.0,0.0,35,0.00,,FEW075,0.00,VWS V14.01,2013-04-25 06:33:00,
2013-04-24 23:34:00,43.0,17.2,29.57,WSW,251,0.0,0.0,35,0.00,,FEW075,0.00,VWS V14.01,2013-04-25 06:34:00,
2013-04-24 23:35:00,43.0,17.2,29.57,WSW,251,0.0,0.0,35,0.00,,FEW075,0.00,VWS V14.01,2013-04-25 06:35:00,
2013-04-24 23:36:00,43.0,17.9,29.57,SW,216,2.2,2.7,36,0.00,,BKN200,0.00,VWS V14.01,2013-04-25 06:36:00,
2013-04-24 23:37:00,43.0,17.2,29.57,WSW,251,0.0,0.0,35,0.00,,FEW075,0.00,VWS V14.01,2013-04-25 06:37:00,
2013-04-24 23:38:00,43.0,17.2,29.57,WSW,251,0.0,0.0,35,0.00,,FEW075,0.00,VWS V14.01,2013-04-25 06:38:00,
2013-04-24 23:39:00,43.0,17.2,29.57,WSW,251,0.0,0.0,35,0.00,,FEW075,0.00,VWS V14.01,2013-04-25 06:39:00,
2013-04-24 23:40:00,43.0,17.2,29.57,WSW,251,0.0,0.0,35,0.00,,FEW075,0.00,VWS V14.01,2013-04-25 06:40:00,
2013-04-24 23:41:00,43.7,19.1,29.57,East,82,2.2,2.2,37,0.00,,BKN200,0.00,VWS V14.01,2013-04-25 06:41:00,
2013-04-24 23:42:00,43.0,16.5,29.57,WSW,251,0.0,0.0,34,0.00,,FEW075,0.00,VWS V14.01,2013-04-25 06:42:00,
2013-04-24 23:43:00,43.0,16.5,29.57,WSW,251,0.0,0.0,34,0.00,,FEW075,0.00,VWS V14.01,2013-04-25 06:43:00,
2013-04-24 23:44:00,43.0,16.5,29.57,WSW,251,0.0,0.0,34,0.00,,FEW075,0.00,VWS V14.01,2013-04-25 06:44:00,
2013-04-24 23:45:00,42.8,17.1,29.57,WSW,251,2.2,2.2,35,0.00,,FEW075,0.00,VWS V14.01,2013-04-25 06:45:00,
2013-04-24 23:46:00,44.2,18.3,29.57,East,83,0.0,0.0,35,0.00,,BKN200,0.00,VWS V14.01,2013-04-25 06:46:00,
2013-04-24 23:47:00,43.0,17.9,29.57,WSW,251,2.7,3.1,36,0.00,,FEW075,0.00,VWS V14.01,2013-04-25 06:47:00,
2013-04-24 23:48:00,43.0,17.9,29.57,SW,216,0.0,2.7,36,0.00,,FEW075,0.00,VWS V14.01,2013-04-25 06:48:00,
2013-04-24 23:49:00,43.2,18.7,29.57,ESE,102,2.2,3.6,37,0.00,,FEW075,0.00,VWS V14.01,2013-04-25 06:49:00,
2013-04-24 23:50:00,43.3,18.8,29.57,East,82,2.2,2.2,37,0.00,,FEW075,0.00,VWS V14.01,2013-04-25 06:50:00,
2013-04-24 23:51:00,44.1,18.2,29.57,East,83,0.0,0.0,35,0.00,,BKN200,0.00,VWS V14.01,2013-04-25 06:51:00,
2013-04-24 23:52:00,43.5,19.0,29.57,East,82,2.2,2.2,37,0.00,,FEW075,0.00,VWS V14.01,2013-04-25 06:52:00,
2013-04-24 23:53:00,43.7,19.1,29.57,East,82,0.0,2.2,37,0.00,,FEW075,0.00,VWS V14.01,2013-04-25 06:53:00,
2013-04-24 23:54:00,43.9,18.7,29.57,East,83,0.0,2.2,36,0.00,,FEW075,0.00,VWS V14.01,2013-04-25 06:54:00,
2013-04-24 23:55:00,43.9,18.7,29.57,East,83,0.0,0.0,36,0.00,,FEW075,0.00,VWS V14.01,2013-04-25 06:55:00,
2013-04-24 23:56:00,43.3,17.5,29.57,East,83,0.0,0.0,35,0.00,,BKN200,0.00,VWS V14.01,2013-04-25 06:56:00,
2013-04-24 23:57:00,44.2,18.3,29.57,East,83,0.0,0.0,35,0.00,,FEW075,0.00,VWS V14.01,2013-04-25 06:57:00,
2013-04-24 23:58:00,44.2,18.3,29.57,East,83,0.0,0.0,35,0.00,,FEW075,0.00,VWS V14.01,2013-04-25 06:58:00,
2013-04-24 23:59:00,44.2,19.0,29.57,East,83,0.0,0.0,36,0.00,,FEW075,0.00,VWS V14.01,2013-04-25 06:59:00,